[[{"header":{"parameterUnit":"m.s-1","parameterCategory":1,"la1":30.6,"la2":29.2853,"lo1":-89.7004,"lo2":-87.6739,"dy":0.0162,"dx":0.0183,"nx":112,"ny":82,"refTime":"2024-05-12T18:00:00:Z","depth":0,"parameterNumber":2,"parameterNumberName":"U-component_of_WINDS"},"data":[0.0,0.0,0.0,0.0,0.0,0.0,0.0,0.0,0.0,0.0,0.0,0.0,0.0,0.0,0.0,0.0,0.0,0.0,0.0,0.0,0.0,0.0,0.0,0.0,0.0,0.0,0.0,0.0,0.0,0.0,0.0,0.0,0.0,0.0,0.0,0.0,0.0,0.0,0.0,0.0,0.0,0.0,0.0,0.0,0.0,0.0,0.0,0.0,0.0,0.0,0.0,0.0,0.0,0.0,0.0,0.0,0.0,0.0,0.0,0.0,0.0,0.0,0.0,0.0,0.0,0.0,0.0,0.0,0.0,0.0,0.0,0.0,0.0,0.0,0.0,0.0,0.0,0.0,0.0,0.0,0.0,0.0,0.0,0.0,0.0,0.0,0.0,0.0,0.0,0.0,-5.5643,-6.1356,-6.728,-7.0322,-6.9232,-6.3988,-5.7594,-5.026,0.0,0.0,0.0,0.0,0.0,0.0,0.0,0.0,0.0,0.0,0.0,0.0,0.0,0.0,0.0,0.0,0.0,0.0,0.0,0.0,0.0,0.0,0.0,0.0,0.0,0.0,0.0,0.0,0.0,0.0,0.0,0.0,0.0,0.0,0.0,0.0,0.0,0.0,0.0,0.0,0.0,0.0,0.0,0.0,0.0,0.0,0.0,0.0,0.0,0.0,0.0,0.0,0.0,0.0,0.0,0.0,0.0,0.0,0.0,0.0,0.0,0.0,0.0,0.0,0.0,0.0,0.0,0.0,0.0,0.0,0.0,0.0,0.0,0.0,0.0,0.0,0.0,0.0,0.0,0.0,0.0,0.0,0.0,0.0,0.0,0.0,0.0,0.0,0.0,0.0,0.0,0.0,0.0,0.0,0.0,0.0,0.0,0.0,0.0,0.0,0.0,0.0,0.0,0.0,-5.7873,-6.9316,-7.2054,-7.2725,-7.2033,-6.3826,-5.679,-5.2156,0.0,0.0,0.0,0.0,0.0,0.0,0.0,0.0,0.0,0.0,0.0,0.0,0.0,0.0,0.0,0.0,0.0,0.0,0.0,0.0,0.0,0.0,0.0,0.0,0.0,0.0,0.0,0.0,0.0,0.0,0.0,0.0,0.0,0.0,0.0,0.0,0.0,0.0,0.0,0.0,0.0,0.0,0.0,0.0,0.0,0.0,0.0,0.0,0.0,0.0,0.0,0.0,0.0,0.0,0.0,0.0,0.0,0.0,0.0,0.0,0.0,0.0,0.0,0.0,0.0,0.0,0.0,0.0,0.0,0.0,0.0,0.0,0.0,0.0,0.0,0.0,0.0,0.0,0.0,0.0,0.0,0.0,0.0,0.0,0.0,0.0,0.0,0.0,0.0,0.0,0.0,0.0,0.0,0.0,0.0,0.0,0.0,0.0,0.0,0.0,0.0,0.0,0.0,-5.8186,-6.4038,-7.4322,-7.4999,-7.4287,-7.3274,-6.4347,-5.6968,-5.2582,-4.659,0.0,0.0,0.0,0.0,0.0,0.0,0.0,0.0,0.0,0.0,0.0,0.0,0.0,0.0,0.0,0.0,0.0,0.0,0.0,0.0,0.0,0.0,0.0,0.0,0.0,0.0,0.0,0.0,0.0,0.0,0.0,0.0,0.0,0.0,0.0,0.0,0.0,0.0,0.0,0.0,0.0,0.0,0.0,0.0,0.0,0.0,0.0,0.0,0.0,0.0,0.0,0.0,0.0,0.0,0.0,0.0,0.0,0.0,0.0,0.0,0.0,0.0,0.0,0.0,0.0,0.0,0.0,0.0,0.0,0.0,0.0,0.0,0.0,0.0,0.0,0.0,0.0,0.0,0.0,0.0,0.0,0.0,0.0,0.0,0.0,0.0,0.0,0.0,0.0,0.0,0.0,0.0,0.0,0.0,0.0,0.0,0.0,0.0,0.0,0.0,0.0,0.0,-6.573,-7.0094,-7.7468,-7.6724,-7.5291,-7.4256,-6.4617,-5.6947,-5.3025,-4.5356,0.0,0.0,0.0,0.0,0.0,0.0,0.0,0.0,0.0,0.0,0.0,0.0,0.0,0.0,0.0,0.0,0.0,0.0,0.0,0.0,0.0,0.0,0.0,0.0,0.0,0.0,0.0,0.0,0.0,0.0,0.0,0.0,0.0,0.0,0.0,0.0,0.0,0.0,0.0,0.0,0.0,0.0,0.0,0.0,0.0,0.0,0.0,0.0,0.0,0.0,0.0,0.0,0.0,0.0,0.0,0.0,0.0,0.0,0.0,0.0,0.0,0.0,0.0,0.0,0.0,0.0,0.0,0.0,0.0,0.0,0.0,0.0,0.0,0.0,0.0,0.0,0.0,0.0,0.0,0.0,0.0,0.0,0.0,0.0,0.0,0.0,0.0,0.0,0.0,0.0,0.0,0.0,0.0,0.0,0.0,0.0,0.0,0.0,0.0,0.0,0.0,0.0,-6.7151,-7.3747,-7.8517,-7.7029,-7.5662,-7.558,-6.3933,-5.5991,-5.4448,-4.5172,0.0,0.0,0.0,0.0,0.0,0.0,0.0,0.0,0.0,0.0,0.0,0.0,0.0,0.0,0.0,0.0,0.0,0.0,0.0,0.0,0.0,0.0,0.0,0.0,0.0,0.0,0.0,0.0,0.0,0.0,0.0,0.0,0.0,0.0,0.0,0.0,0.0,0.0,0.0,0.0,0.0,0.0,0.0,0.0,0.0,0.0,0.0,0.0,0.0,0.0,0.0,0.0,0.0,0.0,0.0,0.0,0.0,0.0,0.0,0.0,0.0,0.0,0.0,0.0,0.0,0.0,0.0,0.0,0.0,0.0,0.0,0.0,0.0,0.0,0.0,0.0,0.0,0.0,0.0,0.0,0.0,0.0,0.0,0.0,0.0,0.0,0.0,0.0,0.0,0.0,0.0,0.0,0.0,0.0,0.0,0.0,0.0,0.0,0.0,0.0,0.0,0.0,-6.7218,-7.3443,0.0,-7.7232,-7.6048,-7.51,-6.5254,-5.7833,-5.4704,0.0,0.0,0.0,0.0,0.0,0.0,0.0,0.0,0.0,0.0,0.0,0.0,0.0,0.0,0.0,0.0,0.0,0.0,0.0,0.0,0.0,0.0,0.0,0.0,0.0,0.0,0.0,0.0,0.0,0.0,0.0,0.0,0.0,0.0,0.0,0.0,0.0,0.0,0.0,0.0,0.0,0.0,0.0,0.0,0.0,0.0,0.0,0.0,0.0,0.0,0.0,0.0,0.0,0.0,0.0,0.0,0.0,0.0,0.0,0.0,0.0,0.0,0.0,0.0,0.0,0.0,0.0,0.0,0.0,0.0,0.0,0.0,0.0,0.0,0.0,0.0,0.0,0.0,0.0,0.0,0.0,0.0,0.0,0.0,0.0,0.0,0.0,0.0,0.0,0.0,0.0,0.0,0.0,0.0,0.0,0.0,0.0,0.0,0.0,0.0,0.0,0.0,-6.0452,-6.7557,-7.3443,0.0,-7.6758,-7.554,-7.4052,-6.5277,-5.8325,-5.4768,0.0,0.0,0.0,0.0,0.0,0.0,0.0,0.0,0.0,0.0,0.0,0.0,0.0,0.0,0.0,0.0,0.0,0.0,0.0,0.0,0.0,0.0,0.0,0.0,0.0,0.0,0.0,0.0,0.0,0.0,0.0,0.0,0.0,0.0,0.0,0.0,0.0,0.0,0.0,0.0,0.0,0.0,0.0,0.0,0.0,0.0,0.0,0.0,0.0,0.0,0.0,0.0,0.0,0.0,0.0,0.0,0.0,0.0,0.0,0.0,0.0,0.0,0.0,0.0,0.0,0.0,0.0,0.0,0.0,0.0,0.0,0.0,0.0,0.0,0.0,0.0,0.0,0.0,0.0,0.0,0.0,0.0,0.0,0.0,0.0,0.0,0.0,0.0,0.0,0.0,0.0,0.0,0.0,0.0,0.0,0.0,0.0,0.0,0.0,0.0,0.0,0.0,-6.0689,-6.8402,-7.4322,-7.6623,-7.5506,-7.3984,-7.2529,-6.3497,-5.6968,0.0,0.0,0.0,0.0,0.0,0.0,0.0,0.0,0.0,0.0,0.0,0.0,0.0,0.0,0.0,0.0,0.0,0.0,0.0,0.0,0.0,0.0,0.0,0.0,0.0,0.0,0.0,0.0,0.0,0.0,0.0,0.0,0.0,0.0,0.0,0.0,0.0,0.0,0.0,0.0,0.0,0.0,0.0,0.0,0.0,0.0,0.0,0.0,0.0,0.0,0.0,0.0,0.0,0.0,0.0,0.0,0.0,0.0,0.0,0.0,0.0,0.0,0.0,0.0,0.0,0.0,0.0,0.0,0.0,0.0,0.0,0.0,0.0,0.0,0.0,0.0,0.0,0.0,0.0,0.0,0.0,0.0,0.0,0.0,0.0,0.0,0.0,0.0,0.0,0.0,0.0,0.0,0.0,0.0,0.0,0.0,0.0,0.0,0.0,0.0,0.0,0.0,0.0,-5.9268,-6.732,-7.3172,-7.4356,-7.4086,-7.324,-7.1751,-6.5121,-5.9201,-5.4871,0.0,0.0,0.0,0.0,0.0,0.0,0.0,0.0,0.0,0.0,0.0,0.0,0.0,0.0,0.0,0.0,0.0,0.0,0.0,0.0,0.0,0.0,0.0,0.0,0.0,0.0,0.0,0.0,0.0,0.0,0.0,0.0,0.0,0.0,0.0,0.0,0.0,0.0,0.0,0.0,0.0,0.0,0.0,0.0,0.0,0.0,0.0,0.0,0.0,0.0,0.0,0.0,0.0,0.0,0.0,0.0,0.0,0.0,0.0,0.0,0.0,0.0,0.0,0.0,0.0,0.0,0.0,0.0,0.0,0.0,0.0,0.0,0.0,0.0,0.0,0.0,0.0,0.0,0.0,0.0,0.0,0.0,0.0,0.0,0.0,0.0,0.0,0.0,0.0,0.0,0.0,0.0,0.0,0.0,0.0,0.0,0.0,0.0,0.0,0.0,0.0,0.0,-5.8626,-6.6339,-7.1921,-7.2935,-7.3037,-7.2462,-7.1007,-6.5933,-6.0486,-5.4938,0.0,0.0,0.0,0.0,0.0,0.0,0.0,0.0,0.0,0.0,0.0,0.0,0.0,0.0,0.0,0.0,0.0,0.0,0.0,0.0,0.0,0.0,0.0,0.0,0.0,0.0,0.0,0.0,0.0,0.0,0.0,0.0,0.0,0.0,0.0,0.0,0.0,0.0,0.0,0.0,0.0,0.0,0.0,0.0,0.0,0.0,0.0,0.0,0.0,0.0,0.0,0.0,0.0,0.0,0.0,0.0,0.0,0.0,0.0,0.0,0.0,0.0,0.0,0.0,0.0,0.0,0.0,0.0,0.0,0.0,0.0,0.0,0.0,0.0,0.0,0.0,0.0,0.0,0.0,0.0,0.0,0.0,0.0,0.0,0.0,0.0,0.0,0.0,0.0,0.0,0.0,0.0,0.0,0.0,0.0,0.0,0.0,0.0,0.0,0.0,0.0,0.0,-5.8524,-6.5324,-7.05,-7.2124,-7.2293,-7.1684,-7.0195,-6.617,-6.1163,-5.5175,0.0,0.0,0.0,0.0,0.0,0.0,0.0,0.0,0.0,0.0,0.0,0.0,0.0,0.0,0.0,0.0,0.0,0.0,0.0,0.0,0.0,0.0,0.0,0.0,0.0,0.0,0.0,0.0,0.0,0.0,0.0,0.0,0.0,0.0,0.0,0.0,0.0,0.0,0.0,0.0,0.0,0.0,0.0,0.0,0.0,0.0,0.0,0.0,0.0,0.0,0.0,0.0,0.0,0.0,0.0,0.0,0.0,0.0,0.0,0.0,-6.0162,-5.7899,0.0,0.0,0.0,0.0,0.0,0.0,0.0,0.0,0.0,0.0,0.0,0.0,0.0,0.0,0.0,0.0,0.0,0.0,0.0,0.0,0.0,0.0,0.0,0.0,0.0,0.0,0.0,0.0,0.0,0.0,0.0,0.0,0.0,0.0,0.0,0.0,0.0,0.0,0.0,0.0,-5.7679,-6.3632,-6.8571,-7.1244,-7.1548,-7.0939,-6.9451,-6.6812,-6.2685,-5.6697,-5.2131,0.0,0.0,0.0,0.0,0.0,0.0,0.0,0.0,0.0,0.0,0.0,0.0,0.0,0.0,0.0,0.0,0.0,0.0,0.0,0.0,0.0,0.0,0.0,0.0,0.0,0.0,0.0,0.0,0.0,0.0,0.0,0.0,0.0,0.0,0.0,0.0,0.0,0.0,0.0,0.0,0.0,0.0,0.0,0.0,0.0,0.0,0.0,0.0,0.0,0.0,0.0,0.0,0.0,0.0,0.0,0.0,0.0,0.0,0.0,-6.4922,-6.1615,0.0,0.0,0.0,0.0,0.0,0.0,0.0,0.0,0.0,0.0,0.0,0.0,0.0,0.0,0.0,0.0,0.0,0.0,0.0,0.0,0.0,0.0,0.0,0.0,0.0,0.0,0.0,0.0,0.0,0.0,0.0,0.0,0.0,0.0,0.0,0.0,0.0,0.0,0.0,0.0,-5.7915,-6.3024,-6.7557,-7.0939,-7.1312,-7.0872,-6.9722,-6.7523,-6.3835,-5.822,-5.3991,0.0,0.0,0.0,0.0,0.0,0.0,0.0,0.0,0.0,0.0,0.0,0.0,0.0,0.0,0.0,0.0,0.0,0.0,0.0,0.0,0.0,0.0,0.0,0.0,0.0,0.0,0.0,0.0,0.0,0.0,0.0,0.0,0.0,0.0,0.0,0.0,0.0,0.0,0.0,0.0,0.0,0.0,0.0,0.0,0.0,0.0,0.0,0.0,0.0,0.0,0.0,0.0,0.0,-7.2716,-7.4331,-7.5616,-7.6276,-7.668,-7.6509,-7.1603,-6.7314,-6.3712,-6.1915,0.0,0.0,0.0,0.0,0.0,0.0,0.0,0.0,0.0,0.0,0.0,0.0,0.0,0.0,0.0,0.0,0.0,0.0,0.0,0.0,0.0,0.0,-5.8254,-5.9336,-6.0655,-5.9742,-5.2672,0.0,0.0,0.0,0.0,0.0,0.0,0.0,0.0,0.0,0.0,0.0,-5.8457,-6.2922,-6.7151,-7.0906,-7.121,-7.0804,-7.006,-6.803,-6.4749,-5.9911,-5.6122,-5.1623,0.0,0.0,0.0,0.0,0.0,0.0,0.0,0.0,0.0,0.0,0.0,0.0,0.0,0.0,0.0,0.0,0.0,0.0,0.0,0.0,0.0,0.0,0.0,0.0,0.0,0.0,0.0,0.0,0.0,0.0,0.0,0.0,-6.1263,-6.2071,0.0,0.0,0.0,0.0,0.0,0.0,0.0,0.0,0.0,0.0,0.0,0.0,0.0,-7.0807,-7.2422,-7.6166,-7.8148,-7.8405,-8.1415,-8.2957,-8.3177,-8.3287,-8.3691,-8.4318,-8.3302,0.0,-6.7788,-6.6284,0.0,0.0,0.0,0.0,0.0,0.0,0.0,0.0,0.0,0.0,0.0,0.0,0.0,0.0,0.0,0.0,0.0,0.0,0.0,0.0,0.0,0.0,-6.2516,-6.2042,-6.2618,-6.2584,-6.0182,-5.6258,-5.2469,-4.9999,-4.7597,0.0,0.0,0.0,0.0,0.0,0.0,0.0,-5.8524,-6.2922,-6.7151,-7.0906,-7.0737,-7.006,-6.9316,-6.776,-6.5425,-6.2144,-5.8457,-5.4871,-5.152,-4.7327,0.0,0.0,0.0,0.0,0.0,0.0,0.0,0.0,0.0,0.0,0.0,0.0,0.0,0.0,0.0,0.0,0.0,0.0,0.0,0.0,0.0,0.0,0.0,0.0,0.0,0.0,0.0,0.0,0.0,-6.2805,-6.5154,-6.3686,-6.5118,-6.4757,0.0,0.0,0.0,0.0,0.0,0.0,0.0,0.0,0.0,-7.259,-7.425,-7.6373,-7.914,-8.1819,-8.3618,-8.4535,-8.7325,-8.9124,-9.0078,-9.0519,-9.0922,-9.1216,-9.0665,-8.6116,-7.8721,-7.3762,-6.9391,-6.5421,0.0,0.0,0.0,0.0,-6.0861,-6.1431,-6.3936,-6.3496,-6.1934,-6.2002,0.0,0.0,0.0,0.0,0.0,0.0,0.0,-5.8457,-6.025,-6.3024,-6.5493,-6.6034,-6.7049,-6.7489,-6.6,-6.255,-5.8457,-5.4093,-5.2198,-5.0777,-4.9086,0.0,0.0,0.0,0.0,-5.575,-6.0317,-6.4072,-6.7455,-7.0364,-7.0398,-6.9722,-6.8538,-6.7455,-6.5561,-6.2584,-5.9641,-5.6325,-5.2503,-4.9661,-4.6684,0.0,0.0,0.0,0.0,0.0,0.0,0.0,0.0,0.0,0.0,0.0,0.0,0.0,0.0,0.0,0.0,0.0,0.0,0.0,0.0,0.0,0.0,0.0,0.0,0.0,0.0,0.0,0.0,-6.6182,-6.8568,-6.5925,-6.8825,-6.8972,0.0,0.0,0.0,0.0,0.0,0.0,-7.1978,-7.3297,-7.5713,-7.954,-8.0695,-8.2718,-8.5823,-8.7472,-8.9087,-9.0702,-9.2501,-9.4226,-9.5841,-9.5718,-9.5792,-9.6023,-9.4564,-9.2001,-8.8263,-8.0834,-7.5836,-7.2424,-6.8049,-6.6348,-6.63,-6.6626,-6.6874,-6.7372,-7.024,-6.9969,-6.8164,-6.6698,-6.3843,-6.0317,-5.6596,0.0,0.0,0.0,0.0,-6.096,-6.4309,-6.6136,-6.7523,-6.9248,-7.05,-7.0973,-6.9654,-6.732,-6.3802,-5.822,-5.6528,-5.5175,-5.2536,0.0,0.0,0.0,0.0,-5.7915,-6.2381,-6.5561,-6.8132,-6.9992,-7.0026,-6.9282,-6.776,-6.6779,-6.5155,-6.255,-6.0452,-5.7611,-5.389,-5.1928,-4.912,-4.5196,0.0,0.0,0.0,0.0,0.0,0.0,0.0,0.0,0.0,0.0,0.0,0.0,0.0,0.0,0.0,0.0,0.0,0.0,0.0,0.0,0.0,0.0,0.0,0.0,0.0,0.0,0.0,0.0,0.0,-6.9889,-7.4001,0.0,0.0,0.0,0.0,-7.0852,-7.4522,-7.7436,-7.8995,-8.1394,-8.4199,-8.7358,-8.9093,-9.0813,-9.2611,-9.4226,-9.5841,-9.7383,-9.753,-9.8447,-9.9912,-9.721,-9.6603,-9.7596,-9.4338,-9.3112,-9.2779,-8.5907,-8.0793,-7.6997,-7.4358,-7.3305,-7.3212,-7.2834,-7.3097,-7.3739,-7.383,-7.3337,-7.2782,-7.3407,-7.034,-6.6102,-6.4478,-6.3024,0.0,0.0,-6.2725,-6.3802,-6.6102,-6.7252,-6.8402,-7.0669,-7.1278,-7.1109,-7.0297,-6.8876,-6.6406,0.0,-5.8693,-5.6258,-5.4702,0.0,-5.5343,-5.548,-5.8626,-6.1839,-6.4174,-6.7117,-6.9316,-7.0094,-6.9553,-6.8538,-6.7015,-6.5561,-6.4038,-6.2482,-6.0926,-5.9302,-5.7679,-5.4871,-5.2198,-4.9796,-4.6312,0.0,0.0,0.0,0.0,0.0,0.0,0.0,0.0,0.0,0.0,0.0,0.0,0.0,0.0,0.0,0.0,0.0,0.0,0.0,0.0,0.0,0.0,0.0,0.0,0.0,0.0,0.0,0.0,-7.8516,-8.2003,0.0,-7.7488,-7.8295,-7.9323,-7.9837,-8.3618,-8.6463,-8.7815,-8.9718,-9.1752,-9.3933,-9.4586,-9.5838,-9.7713,-9.7273,-9.7603,-9.8668,-9.8154,-9.8018,-9.8269,-9.6682,-9.5786,-9.536,-9.3637,-9.2565,-9.1749,-8.9121,-8.6454,-8.3638,-8.0545,-7.9533,-7.9648,-7.8518,-7.8572,-7.9213,-7.9168,-7.8682,-7.732,-7.3281,-6.9466,-6.5989,-6.3838,-6.3159,-6.3396,-6.485,-6.5764,-6.6846,-6.9113,-6.9891,-7.0297,-7.1109,-7.1312,-7.1244,-7.0973,-6.9722,-6.8199,-6.6643,-6.3125,-6.008,-5.9066,-5.8321,-5.8186,-5.9167,-6.1264,-6.3531,-6.573,-6.8233,-6.9722,-6.9519,-6.8808,-6.7726,-6.6203,-6.3869,-6.2042,-6.0994,-5.9066,-5.7306,-5.5818,-5.4296,-5.2198,-4.9458,-4.8105,-4.5737,0.0,0.0,0.0,0.0,0.0,0.0,0.0,0.0,0.0,0.0,0.0,0.0,0.0,0.0,0.0,0.0,0.0,0.0,0.0,0.0,0.0,0.0,0.0,0.0,0.0,0.0,-8.292,-8.4792,-8.883,-8.9858,-8.582,-8.7178,-8.85,-8.905,-9.2317,-9.4765,-9.5876,-9.6671,-9.7621,-9.8675,-9.8711,-9.912,-9.9916,-9.8676,-9.8331,-9.8879,-9.7632,-9.7008,-9.6904,-9.5372,-9.4491,-9.4029,-9.2329,-9.1224,-9.0589,-8.9951,-8.8862,-8.735,-8.5662,-8.5395,-8.5841,-8.4478,-8.4282,-8.467,-8.4097,-8.2901,-8.0788,-7.6089,-7.1967,-6.8544,-6.6827,-6.6228,-6.644,-6.7929,-6.8673,-6.9383,-7.0939,-7.1312,-7.1312,-7.1312,-7.1312,-7.1244,-7.0973,-6.9958,-6.9011,-6.8741,-6.6102,-6.3565,-6.2584,-6.1772,-6.1603,-6.2618,-6.4038,-6.5696,-6.7692,-6.9248,-6.9789,-6.8808,-6.7996,-6.6745,-6.4749,-6.2584,-6.0655,-5.9099,-5.7137,-5.5378,-5.389,-5.3112,-5.1657,-4.9424,-4.8409,-4.6041,-4.2286,0.0,0.0,0.0,0.0,0.0,0.0,0.0,0.0,0.0,0.0,0.0,0.0,0.0,0.0,0.0,0.0,0.0,0.0,0.0,0.0,0.0,0.0,0.0,-7.4955,-8.215,-8.7545,-8.8536,-9.4263,-9.6575,-9.2648,-9.5841,-9.8154,-9.8154,-10.0393,-10.2118,-10.2815,-10.2081,-10.1677,-10.1677,-10.1604,-10.0796,-9.9255,-9.8663,-9.8351,-9.8351,-9.6232,-9.5649,-9.6273,-9.3446,-9.2834,-9.3753,-9.0505,-8.9389,-8.9725,-8.849,-8.7819,-8.7756,-8.9371,-9.0713,-9.1546,-9.0364,-9.0001,-8.9785,-8.8122,-8.5642,-8.3082,-8.2214,-7.8377,-7.4135,-7.4024,-7.2759,-7.1379,-7.1345,-7.1345,-7.1345,-7.1345,-7.1345,-7.1312,-7.1312,-7.1312,-7.1109,-7.0398,-6.9654,-6.891,-6.8132,-6.7387,-6.6406,-6.4918,-6.5256,-6.5764,-6.5764,-6.7015,0.0,-6.9958,-7.0128,-6.9553,-6.803,-6.7184,-6.5561,-6.2618,-6.1603,-5.9877,-5.69,-5.5277,-5.3754,-5.2266,-5.1488,-5.0777,-5.0033,-4.7158,-4.4587,-4.2388,0.0,0.0,0.0,0.0,0.0,0.0,0.0,0.0,0.0,0.0,0.0,0.0,0.0,0.0,0.0,0.0,0.0,0.0,0.0,0.0,0.0,-7.6313,-8.1599,-8.3434,-8.8169,-9.3235,-9.8117,-10.131,-10.2889,-10.2412,-10.3403,-10.41,-10.41,-10.5789,-10.6596,-10.6266,-10.5972,-10.5678,-10.5091,-10.388,-10.2705,-10.1714,-9.8917,-9.752,-9.7484,-9.483,-9.3489,-9.336,-9.1957,-9.1021,-9.0452,-8.9496,-8.8855,-8.8456,-8.7579,-8.7341,-8.7741,-8.9078,-8.942,-8.9178,-8.8798,-8.8311,-8.7706,-8.6631,-8.6128,-8.5478,-8.2758,-7.9982,-7.7228,-7.4726,-7.3479,-7.2766,-7.2259,-7.209,-7.209,-7.209,-7.1718,-7.1312,-7.1312,-7.1312,-7.1244,-7.1041,-7.0432,-6.9823,-6.9586,-6.8977,-6.7996,-6.6474,-6.6812,-6.7286,-6.7286,-6.8132,0.0,-6.935,-6.8876,-6.8166,-6.7218,-6.5967,-6.4241,-6.1806,-5.893,-5.6427,-5.4532,-5.1961,-5.0338,-4.9932,-4.9221,-4.8683,-4.8511,-4.6109,-4.4857,0.0,0.0,0.0,0.0,0.0,0.0,0.0,0.0,0.0,0.0,0.0,0.0,0.0,0.0,0.0,0.0,0.0,0.0,0.0,0.0,0.0,0.0,-8.2186,-8.85,-9.2501,-9.5401,-9.8888,-10.3696,-10.6009,-10.7514,-10.8321,-10.8395,-10.8395,-10.8395,-10.8982,-10.8982,-10.8101,-10.7771,-10.7073,-10.5899,-10.4908,-10.3416,-10.1381,-9.8442,-9.6276,-9.5084,-9.2525,-9.1178,-9.0868,-9.0456,-8.9799,-8.9072,-8.9072,-8.8497,-8.7516,-8.7076,-8.6681,-8.6457,0.0,0.0,0.0,0.0,-8.7728,-8.6993,-8.6646,-8.6456,-8.5992,-8.4135,-8.1518,-7.8735,-7.6713,-7.4912,-7.3341,-7.2597,-7.2394,-7.2326,-7.2022,-7.1616,-7.1312,-7.1312,-7.1312,-7.1312,-7.1312,-7.0737,-7.0195,-7.0195,-6.9586,0.0,-6.7929,-6.8132,-6.8504,-6.8808,-6.9011,-6.9113,-6.9113,-6.8132,-6.7049,-6.6,-6.4546,-6.2888,-6.096,-5.7949,0.0,0.0,0.0,-4.9187,-4.8578,-4.7834,0.0,0.0,0.0,-4.5737,-4.6143,-4.5524,0.0,0.0,-4.4902,-4.4923,0.0,0.0,0.0,0.0,0.0,0.0,0.0,0.0,0.0,0.0,0.0,0.0,0.0,0.0,0.0,0.0,-8.7692,-9.3859,-10.0796,-10.2705,-10.421,-10.6413,-10.8688,-11.0414,-11.1111,-11.1221,-11.1221,-11.1221,-11.0487,-10.979,-10.8982,-10.8175,0.0,0.0,0.0,-10.3273,-9.9881,-9.7551,-9.5039,-9.2408,-9.0174,-8.9072,-8.9072,-8.9072,-8.9072,-8.9072,-8.9072,-8.826,-8.6907,-8.6907,-8.5993,-8.4713,-8.5786,-8.6913,-8.7998,-8.7815,-8.7413,-8.6904,-8.7145,0.0,0.0,-8.5587,-8.2902,-7.9617,-7.9316,-7.6806,-7.3911,-7.2914,-7.2597,-7.236,-7.1616,-7.1379,-7.1312,-7.1312,-7.1312,-7.1312,-7.1312,-7.0804,-7.0297,-7.0297,-6.9789,-6.9316,-6.9248,-6.9214,-6.9417,-6.9992,-6.9451,-6.8944,-6.8842,-6.7455,-6.5933,-6.4613,0.0,0.0,-6.0114,-5.7881,-5.5649,-5.3518,-5.1217,-4.939,-4.8075,-4.7327,-4.7259,-4.8007,-4.7293,-4.6955,-4.7056,-4.7698,-4.8775,-5.0075,-4.7831,-4.7276,0.0,0.0,0.0,0.0,0.0,0.0,0.0,0.0,0.0,0.0,0.0,0.0,0.0,0.0,0.0,-8.604,-9.2354,-9.8117,-10.2779,-10.5899,-10.7807,-10.8285,-10.99,-11.1001,-11.1221,-11.1221,-11.1221,-11.1221,-11.1111,-11.0597,-10.979,-10.8982,-10.7807,-10.6192,-10.4798,-10.321,-10.1209,-9.7386,-9.4937,-9.3678,-9.0593,0.0,-8.9072,-8.9072,-8.9072,-8.9072,-8.9072,-8.826,-8.6907,-8.6907,-8.5993,-8.4606,-8.4838,-8.5719,-8.6623,-8.5668,-8.5405,-8.5503,-8.4937,-8.5371,-8.5961,-8.4782,-8.391,-8.2804,-8.0652,-7.8854,0.0,-7.4805,-7.3747,-7.3105,-7.2394,-7.1751,-7.1312,-7.1312,-7.1312,-7.1312,-7.1312,-7.121,-7.1109,-7.1109,-7.0973,-7.0703,-7.0094,-6.9992,-6.9823,-6.9383,-6.8639,-6.7929,-6.732,-6.5459,-6.4038,-6.3768,-6.2415,-6.0892,-5.9336,-5.663,-5.4296,-5.2638,-5.0439,-4.9086,-4.8815,-4.8105,-4.8037,-4.8781,-4.8071,-4.8003,-4.8578,-4.9256,-5.0021,-5.0864,-4.9213,-4.9139,0.0,0.0,0.0,0.0,0.0,0.0,0.0,0.0,0.0,0.0,0.0,-7.3377,-7.624,0.0,-8.571,-9.0996,-9.6282,-10.098,-10.4614,-10.7294,-10.8909,-10.9386,-11.0487,-11.1221,-11.1221,-11.1221,-11.1221,-11.1221,-11.0817,-11.0193,-10.9386,-10.8578,-10.7587,-10.6413,-10.4798,-10.3008,-10.118,-9.7867,-9.5554,-9.4065,-9.1369,-9.0036,-9.0036,-8.9373,-8.9072,-8.9072,-8.87,-8.8239,-8.7723,-8.6935,-8.6234,-8.5412,-8.4838,-8.4995,-8.5412,-8.4785,-8.4282,-8.3853,-8.4011,-8.4155,-8.4216,-8.4568,-8.4104,-8.3089,-8.1738,-8.0076,-7.8024,-7.5374,-7.4052,-7.324,-7.2157,-7.1582,-7.1312,-7.1312,-7.1312,-7.1312,-7.1312,-7.1312,-7.1312,-7.1312,-7.1007,-7.0635,-7.0263,-6.9553,-6.891,-6.8538,-6.7861,-6.6948,-6.5831,-6.441,-6.3226,-6.2482,-6.14,-6.025,-5.9099,-5.6292,-5.4093,-5.2976,-5.115,-5.0101,-5.0101,-4.939,-4.9357,-5.0101,-4.939,-4.9357,-5.0101,-5.0424,-5.0962,-5.1626,-5.0862,-5.0891,0.0,0.0,0.0,0.0,0.0,0.0,0.0,0.0,-7.2753,-7.5469,-7.7341,-7.9617,-8.3398,-8.7105,-9.1106,-9.5694,-9.9548,-10.2999,-10.5972,-10.7697,-10.8909,-10.9679,-11.0597,-11.1111,-11.1001,-11.1001,-11.1001,-11.1001,-11.0193,-10.9386,-10.8615,-10.7991,-10.7226,-10.6192,-10.4798,-10.3169,-10.121,-9.8845,-9.6788,-9.4906,-9.257,-9.1438,-9.1386,-8.9942,-8.9309,-8.9241,-8.8469,-8.8394,-8.8738,-8.7312,-8.6658,-8.635,-8.5344,-8.4785,-8.464,-8.464,-8.3862,-8.2936,-8.3556,-8.3127,-8.2581,-8.4154,-8.3779,-8.2707,-8.2707,-8.0883,-7.8276,-7.5868,-7.4339,-7.3138,-7.1684,-7.1312,-7.1312,-7.1312,-7.1312,-7.1312,-7.1312,-7.121,-7.1109,-7.1109,-7.05,-6.9925,-6.9755,-6.8707,-6.7861,-6.7726,-6.6948,-6.5899,-6.4546,-6.3632,-6.2618,-6.1434,-6.0452,-5.9539,-5.866,-5.6393,-5.4634,-5.3788,-5.257,-5.1826,-5.1624,-5.0913,-5.0879,-5.1657,-5.0913,-5.0811,-5.142,-5.1401,-5.1634,-5.2012,-5.2391,-5.2498,-7.3193,-7.022,-6.8752,-7.2055,-7.0954,-7.0881,0.0,0.0,-7.98,-8.3654,-8.571,-8.7655,-9.0298,-9.2905,-9.5804,-9.9218,-10.1898,-10.4284,-10.6082,-10.7183,-10.7991,-10.8799,-11.0304,-11.0891,-11.0193,-11.0083,-11.0083,-11.0083,-10.9386,-10.8578,-10.7771,-10.7587,-10.689,-10.5311,-10.5091,-10.4164,-10.2504,-10.0398,-9.8848,-9.7876,-9.4599,-9.3032,-9.2997,-9.0964,-9.0087,-9.0008,-8.9049,-8.8921,-8.9269,-8.8351,-8.7387,-8.6483,-8.6301,-8.5566,-8.464,-8.464,-8.4539,-8.4167,-8.3003,-8.3102,-8.3677,-8.2616,-8.2813,-8.3479,-8.3479,-8.1647,-7.9207,-7.756,-7.5378,-7.3138,-7.1684,-7.1312,-7.1312,-7.1312,-7.1312,-7.1312,-7.1312,-7.0804,-7.0297,-7.0297,-6.9722,-6.9011,-6.8267,-6.7996,-6.7692,-6.7015,-6.573,-6.4546,-6.3734,-6.2415,-6.1501,-6.1332,-6.0013,-5.8558,-5.7171,-5.6731,-5.5953,-5.4566,-5.4296,-5.3923,-5.3281,-5.2469,-5.2435,-5.3247,-5.2469,-5.2097,-5.2198,-5.2195,-5.1859,-5.1361,-5.3372,-5.3901,-7.3377,-7.2899,-7.334,0.0,-7.5175,-7.7635,-8.1525,-8.3214,-8.5013,-8.8573,-9.0592,-9.2648,-9.5547,-9.7676,-9.9879,0.0,-10.4394,-10.5899,-10.7587,-10.7294,-10.667,-10.6009,-10.6523,-10.7587,-10.9092,-10.9312,-10.9312,-10.9312,-10.8578,-10.7991,-10.7587,-10.7226,-10.6596,-10.5899,-10.5422,-10.4798,-10.41,-10.1774,-10.0506,-10.0214,-9.6597,-9.4477,-9.3726,-9.1644,-9.0197,-8.9376,-8.9917,-9.0001,-8.9729,-8.9406,-8.8535,-8.7387,-8.6707,-8.5634,-8.4573,-8.4133,-8.3693,-8.3186,-8.2103,-8.1783,-8.1767,-8.1365,-8.1583,-8.1882,-8.1462,-8.0279,-7.8598,-7.6394,-7.4672,-7.3138,-7.1684,-7.1312,-7.1312,-7.1312,-7.1312,-7.1312,-7.1312,-7.1075,-7.0703,-7.0263,-6.9586,-6.8842,-6.803,-6.7184,-6.6373,-6.5628,-6.4986,-6.4174,-6.3024,-6.1941,-6.096,-6.008,-5.8998,-5.8118,-5.7476,-5.6664,-5.5919,-5.5277,-5.4431,-5.3822,-5.3518,-5.3179,-5.3179,-5.3484,-5.3179,-5.301,-5.301,-5.2097,-5.1734,-5.184,-5.2393,-5.2856,-7.4368,-7.5726,0.0,-7.6607,-7.9984,-8.3911,-8.5416,-8.7619,-9.0188,-9.3198,-9.496,-9.6722,-9.9292,-10.109,-10.2705,-10.4504,-10.5899,-10.7,-10.7697,-10.6596,-10.4908,-10.2815,-10.2191,-10.2815,-10.5201,-10.6706,-10.7587,-10.8101,-10.7404,-10.7,-10.7294,-10.6706,-10.6376,-10.6376,-10.5789,-10.5311,-10.5128,-10.3109,-10.1898,-10.1494,-9.8184,-9.6024,-9.4869,-9.2533,-9.0723,-8.9445,-9.0688,-9.0922,-9.0483,-9.0483,-8.9801,-8.8623,-8.7723,-8.6324,-8.471,-8.396,-8.326,-8.2577,-8.1629,-8.0818,-8.019,-8.0316,-8.0187,-8.0005,-7.9785,-7.8819,-7.7422,-7.5561,-7.416,-7.2902,-7.165,-7.1312,-7.1312,-7.1312,-7.1312,-7.1312,-7.1312,-7.1142,-7.077,-7.0026,-6.9282,-6.8504,-6.7726,-6.6711,-6.5662,-6.4749,-6.4613,-6.4072,-6.2584,-6.1772,-6.0723,-5.9167,-5.8524,-5.8118,-5.7915,-5.6934,-5.6156,-5.575,-5.4702,-5.3923,-5.3518,-5.3518,-5.3518,-5.3518,-5.3518,-5.3382,-5.3179,-5.186,-5.1369,-5.1714,-5.14,-5.1766,-7.676,-7.7855,-7.9286,-8.237,-8.5013,-8.7692,-9.0886,-9.3492,-9.5914,-9.8374,-9.9548,-10.0393,-10.1274,-10.2705,-10.388,-10.388,-10.5972,-10.7,-10.5422,-10.4504,-10.2815,-9.9622,-9.786,-9.6942,0.0,-10.131,-10.4687,-10.6376,-10.5715,-10.5495,-10.6376,-10.6376,-10.6376,-10.6376,-10.6376,-10.6009,-10.5128,-10.4284,-10.2999,-10.1494,-9.9309,-9.7793,-9.6911,-9.4075,-9.2128,-9.1145,-9.1186,-9.14,-9.1767,-9.1767,-9.1022,-8.9924,-8.9924,-8.7985,-8.5188,-8.4474,-8.3884,-8.3253,-8.1799,-8.0818,-8.0073,-7.9379,-7.8668,-7.8269,-7.9373,-7.788,-7.5871,-7.6173,-7.4405,-7.2259,-7.1515,-7.1312,-7.1312,-7.1312,-7.1312,-7.1312,-7.1312,-7.0737,-6.9992,-6.9282,-6.8504,-6.7692,-6.6981,-6.6812,-6.6271,-6.4816,-6.4613,-6.4072,-6.2584,-6.1772,-6.0723,-5.9167,-5.8998,-5.8693,-5.7949,-5.7848,-5.7205,-5.5818,-5.5647,-5.5006,-5.3551,-5.3518,-5.3518,-5.3518,-5.3518,-5.3112,-5.2334,-5.1589,-5.0845,-5.0164,-5.0952,-5.1327,-7.8148,-8.1489,-8.5343,-8.6995,-9.0041,-9.3235,-9.5364,-9.6906,-9.797,-9.8264,-9.7236,-9.6392,-9.6649,-9.7163,-9.8411,-10.109,-10.3586,-10.5091,-10.5128,-10.4908,-10.2705,-9.7346,-9.7163,0.0,0.0,0.0,0.0,-10.3696,-10.421,-10.4908,-10.6302,-10.6376,-10.6376,-10.6376,-10.6376,-10.5678,-10.432,-10.3513,-10.2301,-10.0686,-9.7495,-9.5564,-9.4691,-9.264,-9.1534,-9.1197,-9.1484,-9.1654,-9.1803,-9.1803,-9.1097,-8.997,-8.9388,-8.8043,-8.6193,-8.4134,-8.3321,-8.2889,-8.1155,-8.0073,-7.9363,-7.8619,-7.7502,-7.6448,-7.6331,-7.5374,-7.4145,-7.3821,-7.3096,-7.2225,-7.1515,-7.1312,-7.1312,-7.1312,-7.1312,-7.1312,-7.1312,-7.1109,-7.0703,-6.9958,-6.9214,-6.8436,-6.7658,-6.7117,-6.6474,-6.5459,-6.4072,-6.2787,-6.1806,-6.1467,-6.0892,-5.9844,-5.9742,-5.9438,-5.8693,-5.8186,-5.7273,-5.5818,-5.5243,-5.4532,-5.3551,-5.3518,-5.3518,-5.3518,-5.3518,-5.3382,-5.3078,-5.2334,-5.1555,-5.0845,-5.1639,-5.1428,-8.1636,-8.5894,-9.0335,-9.2024,-9.485,-9.7566,-9.8888,-9.9145,-9.8704,-9.7309,-9.463,-9.2391,-9.1803,-9.0739,-9.1583,-9.6465,-9.8557,-10.0613,-10.3403,-10.2815,-10.0613,-9.6428,-9.5804,-9.4923,0.0,0.0,0.0,-10.1604,-10.2889,-10.421,-10.5789,-10.6192,-10.6376,-10.6376,-10.6082,-10.5311,-10.388,-10.2815,-10.131,-9.9402,-9.6745,-9.4922,-9.3833,-9.278,-9.1981,-9.1439,-9.1691,-9.1803,-9.1803,-9.1803,-9.1177,-9.0165,-8.9657,-8.8131,-8.6011,-8.4302,-8.2939,-8.1825,-8.0612,-7.9532,-7.8619,-7.8145,-7.6961,-7.5574,-7.483,-7.4086,-7.3341,-7.2597,-7.2225,-7.1921,-7.1447,-7.1312,-7.1312,-7.1312,-7.1312,-7.1312,-7.1312,-7.1312,-7.1075,-7.0331,-6.9586,-6.8842,-6.803,-6.7083,-6.6237,-6.5764,-6.4275,-6.2922,-6.2178,-6.211,-6.1704,-6.0655,-6.052,-6.0114,-5.9099,-5.8558,-5.7543,-5.5818,-5.5277,-5.4532,-5.3551,-5.3518,-5.3518,-5.3518,-5.3518,-5.3518,-5.3518,-5.2706,-5.2063,-5.1623,-5.1826,-5.1371,-8.6995,-9.0959,-9.4263,-9.7346,-9.9255,-10.0576,-10.1274,-10.0099,-9.808,-9.5584,-9.1767,-8.8353,-8.6628,-8.3985,-8.4168,-9.0519,-9.1877,-9.4299,-10.0686,-9.8998,-9.7052,0.0,0.0,0.0,0.0,0.0,0.0,-9.9989,0.0,-10.3329,-10.5128,-10.6009,-10.6376,-10.6302,-10.5495,-10.4614,-10.3696,-10.2081,-10.0099,-9.7823,-9.7016,-9.5841,-9.4336,-9.4263,-9.3382,-9.184,-9.1803,-9.1803,-9.1803,-9.1767,-9.1289,-9.0592,-9.0519,-8.8193,-8.4883,-8.4804,-8.287,-8.0276,-8.0209,-7.9228,-7.7976,-7.7976,-7.6927,-7.5506,-7.4796,-7.4018,-7.3274,-7.2563,-7.1853,-7.1312,-7.1312,-7.1312,-7.1312,-7.1312,-7.1312,-7.1312,-7.1312,-7.1312,-7.1109,-7.0398,-6.9654,-6.8876,-6.803,-6.6745,-6.5797,-6.5764,-6.5155,-6.4444,-6.3666,-6.3531,-6.299,-6.1569,-6.1366,-6.0689,-5.9201,-5.9032,-5.8084,-5.5817,-5.5681,-5.504,-5.3551,-5.3518,-5.3518,-5.3518,-5.3518,-5.3518,-5.3518,-5.2739,-5.2334,-5.2266,-5.1623,-5.1285,-9.151,-9.5988,-9.9695,-10.109,-10.131,-10.109,-10.0686,-9.7493,-9.3602,-8.9931,-8.5013,-8.0498,-7.7598,-7.8919,-8.2113,-8.7362,-9.2794,0.0,-10.1788,-10.2705,0.0,-9.8851,0.0,-9.83,-9.6539,-9.7089,0.0,0.0,-10.1017,-10.2412,-10.5899,-10.6302,-10.6082,-10.5495,-10.4614,-10.3219,-10.12,-9.9035,-9.7603,-9.7016,-9.6208,-9.5584,-9.5144,-9.3969,-9.3161,-9.2721,-9.206,-9.1803,-9.173,-9.1143,-9.0812,-9.0482,-8.9271,-8.7703,-8.5885,-8.4456,-8.2881,-8.1331,-8.0492,-7.9228,-7.7976,-7.7976,-7.6589,-7.4762,-7.3984,-7.3274,-7.2529,-7.1785,-7.1447,-7.1312,-7.1312,-7.1312,-7.1312,-7.1312,-7.1312,-7.1312,-7.1312,-7.1312,-7.1244,-7.1075,-7.0432,-6.9485,-6.8132,-6.759,-6.7151,-6.6609,-6.6373,-6.5797,-6.4478,-6.3869,-6.3362,-6.299,-6.1975,-6.0892,-5.9911,-5.9336,-5.8084,-5.5817,-5.5681,-5.504,-5.3551,-5.3518,-5.3518,-5.3518,-5.3518,-5.3518,-5.3518,-5.3281,-5.2875,-5.23,-5.2739,-5.23,-9.7199,-10.0686,-10.3293,-10.41,-10.2889,-10.0907,-9.8704,-9.4153,-8.8977,-8.3801,-7.8552,-7.4074,-7.1541,-7.2936,-7.6533,0.0,0.0,0.0,-10.0796,-10.2412,-10.2705,0.0,-10.2191,0.0,-10.0686,-10.0613,-10.131,0.0,-10.2008,-10.2705,-10.5715,-10.5789,-10.5422,-10.4614,-10.3476,-10.1677,-9.9255,-9.7566,-9.6685,-9.6685,-9.6245,-9.5841,-9.5474,-9.4189,-9.3418,-9.3051,-9.217,-9.1583,-9.1253,-9.0812,-9.0188,-8.9454,-8.8536,-8.7009,-8.51,-8.3974,-8.2527,-8.0994,-8.0053,-7.8957,-7.7976,-7.7976,-7.669,-7.4897,-7.3815,-7.3206,-7.2665,-7.1616,-7.1312,-7.1312,-7.1312,-7.1312,-7.1312,-7.1312,-7.1312,-7.1312,-7.1312,-7.1312,-7.121,-7.0872,-7.0466,-6.9823,-6.8639,-6.8132,-6.776,-6.7354,-6.7015,-6.6508,-6.5662,-6.4647,-6.3869,-6.3531,-6.2482,-6.1332,-6.0182,-5.9708,-5.8423,-5.5886,-5.5681,-5.504,-5.3551,-5.3518,-5.3518,-5.3518,-5.3518,-5.3518,-5.3518,-5.3518,-5.3281,-5.2841,-5.3281,-5.3044,-10.2889,-10.5018,-10.5715,-10.6302,-10.3696,-9.9952,-9.5951,-9.0188,-8.3985,-7.775,0.0,-6.8972,-6.7357,-6.7467,-7.0513,-7.8626,0.0,-8.9528,-9.9402,-10.0796,-10.2008,-10.5201,-10.4908,-10.4394,-10.4504,-10.3806,-10.3917,-10.5311,-10.4027,-10.3696,-10.5018,-10.5128,-10.4614,-10.3476,-10.1898,-9.9952,-9.775,-9.7052,-9.6685,-9.6685,-9.6685,-9.6282,-9.5474,-9.4666,-9.3859,-9.3051,-9.217,-9.14,-9.0739,-9.0555,-8.9638,-8.8316,-8.7955,-8.6082,-8.3578,-8.345,-8.2049,-8.0073,-7.9363,-7.8619,-7.7976,-7.7874,-7.686,-7.5439,-7.4052,-7.3646,-7.3341,-7.1853,-7.1447,-7.1447,-7.1345,-7.1312,-7.1312,-7.1312,-7.1312,-7.1312,-7.1312,-7.1312,-7.1109,-7.0466,-7.0331,-7.0094,-6.9383,-6.8673,-6.8132,-6.7929,-6.7354,-6.6914,-6.6812,-6.5527,-6.4343,-6.3734,-6.2719,-6.1535,-6.0216,-5.9911,-5.8626,-5.585,-5.5681,-5.504,-5.3551,-5.3518,-5.3518,-5.3518,-5.3518,-5.3518,-5.3518,-5.3518,-5.3518,-5.3518,-5.3518,-5.3551,-10.5972,-10.7514,-10.7881,-10.6706,-10.2375,-9.7456,-9.3418,-8.549,0.0,0.0,-6.9045,-6.5632,-6.398,-6.6402,-7.1358,-7.947,-8.4719,0.0,0.0,0.0,-10.4504,0.0,0.0,0.0,-10.7881,-10.7183,0.0,0.0,-10.6302,-10.5605,-10.5128,-10.5128,-10.3806,-10.1017,-9.9365,-9.8007,-9.6906,-9.6759,-9.6685,-9.6685,-9.6685,-9.6282,-9.5474,-9.4666,-9.3859,-9.3051,-9.217,0.0,-9.1473,-9.0188,-8.9419,-8.8944,-8.6681,-8.4916,-8.3493,-8.2527,-8.1331,-8.0073,-7.9363,-7.8619,-7.7874,-7.7299,-7.6454,-7.554,-7.4695,-7.4424,-7.4119,-7.2631,-7.2225,-7.209,-7.1481,-7.1312,-7.1312,-7.1312,-7.1312,-7.1312,-7.1312,-7.1312,-7.1278,-7.1142,-7.1109,-7.0872,-7.0128,-6.9891,-6.935,-6.8098,-6.7793,-6.7489,-6.688,-6.5527,-6.4546,-6.441,-6.2076,-6.0385,-6.0114,-5.8964,-5.7543,-5.5818,-5.5681,-5.504,-5.3551,-5.3518,-5.3518,-5.3518,-5.3518,-5.3518,-5.3518,-5.3518,-5.3518,-5.3518,-5.3518,-5.3822,-10.8578,-10.979,-10.9496,-10.7,-10.1494,-9.5144,-8.9417,0.0,0.0,0.0,-6.5962,-6.3759,-6.2952,-6.6145,0.0,-7.5175,-8.0021,0.0,0.0,0.0,0.0,0.0,0.0,0.0,0.0,0.0,-10.8064,-10.7587,-10.689,-10.6009,-10.5128,-10.3513,-10.1714,-9.9732,-9.8117,-9.7089,-9.6685,-9.6685,-9.6685,-9.6685,-9.6027,-9.5626,-9.5436,-9.3981,-9.3217,-9.3051,-9.217,-9.1326,-9.0482,-8.9748,-8.894,-8.7954,-8.6059,-8.4613,-8.3457,-8.23,-8.1174,-8.004,-7.8923,-7.828,-7.7807,-7.6657,-7.6014,-7.5574,-7.483,-7.4322,-7.3781,-7.2699,-7.2124,-7.1751,-7.1413,-7.1582,-7.1785,-7.1413,-7.1312,-7.1312,-7.1312,-7.1312,-7.1312,-7.1312,-7.1312,-7.121,-7.0838,-7.0432,-6.9823,-6.8707,-6.8166,-6.7489,-6.6373,-6.5256,-6.4613,-6.4613,-6.2618,-6.096,-6.0182,-5.9438,-5.8254,-5.6393,-5.6292,-5.5784,-5.4702,-5.4668,-5.4465,-5.4093,-5.4059,-5.389,-5.3518,-5.389,-5.4059,-5.4093,-5.4465,-5.4837,-11.0414,-11.1221,-11.0414,-10.7,-10.0209,-9.2611,-8.5673,-7.6937,0.0,-6.5778,-6.387,-6.278,-6.278,-6.5448,-6.8421,0.0,-7.4955,-8.1305,0.0,0.0,0.0,0.0,0.0,0.0,0.0,0.0,0.0,-10.7703,-10.6706,-10.5715,-10.4908,-10.1788,-9.9842,-9.9365,-9.764,-9.6795,-9.6942,-9.6795,-9.6685,-9.6685,-9.5708,-9.5199,-9.5179,-9.3558,-9.2797,-9.2794,-9.2097,-9.1069,-8.9895,-8.9529,-8.8505,-8.7011,-8.55,-8.4248,-8.3103,-8.1922,-8.0966,-8.0006,-7.8483,-7.7976,-7.7739,-7.6183,-7.5709,-7.5574,-7.4999,-7.4424,-7.3815,-7.3071,-7.236,-7.1751,-7.1582,-7.1853,-7.2022,-7.1447,-7.1312,-7.1312,-7.1312,-7.1312,-7.1312,-7.1312,-7.1312,-7.1312,-7.1312,-7.0804,-7.0128,-6.9248,-6.8571,-6.7624,-6.6136,-6.5155,-6.4613,-6.4613,-6.3125,-6.1603,-6.0216,-5.9945,-5.8998,-5.6934,-5.6799,-5.6461,-5.5715,-5.5681,-5.5446,-5.4837,-5.4837,-5.4532,-5.3991,-5.4566,-5.4837,-5.4837,-5.5446,-5.5749,-11.0707,-11.1221,-11.023,-10.6229,-9.808,-8.9528,-8.3728,0.0,0.0,-6.4567,-6.3466,-6.278,-6.278,-6.311,-6.5092,-7.0412,-7.3523,-7.914,0.0,0.0,0.0,0.0,0.0,0.0,0.0,0.0,0.0,-10.7703,-10.6119,-10.4908,-10.41,-10.1017,-9.9512,-10.0209,-9.7933,-9.7052,-9.7787,-9.7052,-9.6685,-9.6685,-9.657,-9.5801,-9.441,-9.4224,-9.3344,-9.1913,-9.184,-9.173,0.0,-9.0005,-8.8727,-8.7378,-8.4741,-8.306,-8.1922,-8.0804,-8.0276,-8.0006,-7.8483,-7.7976,-7.7739,-7.6183,-7.5709,-7.5676,-7.5608,-7.554,-7.5337,-7.4627,-7.3883,-7.3138,-7.2462,-7.1853,-7.1413,-7.1345,-7.1312,-7.1312,-7.1312,-7.1312,-7.1312,-7.1312,-7.1312,-7.1312,-7.1312,-7.1244,-7.0737,-6.9316,-6.9045,-6.8436,-6.6914,-6.5459,-6.4613,-6.4613,-6.2685,-6.1061,-6.0182,-5.9505,-5.8457,-5.69,-5.6799,-5.6461,-5.5715,-5.5681,-5.5683,-5.5615,-5.5615,-5.5581,-5.5513,-5.5581,-5.5615,-5.5615,-5.5683,-5.6089,-10.8505,-11.0817,-11.0707,-10.5605,-9.7052,-8.839,-8.2774,0.0,-6.5448,-6.431,-6.3429,-6.2658,-6.2181,-6.2475,-6.3392,-6.5191,-6.6256,-7.033,-8.0241,0.0,0.0,0.0,0.0,0.0,0.0,0.0,-10.7697,-10.689,-10.5789,-10.4724,-10.3917,-10.1788,-10.0503,-10.0283,-9.8888,-9.808,-9.7897,-9.7566,-9.7163,-9.6685,-9.5436,-9.4634,-9.4263,-9.2991,-9.2191,-9.1803,-9.1803,-9.1546,0.0,-8.9858,-8.8435,-8.6751,-8.451,-8.2928,-8.177,-8.0607,-7.9938,-7.9397,-7.8348,-7.7976,-7.7807,-7.6758,-7.642,-7.6318,-7.5845,-7.5067,-7.4289,-7.4018,-7.3105,-7.2225,-7.236,-7.2191,-7.1954,-7.1954,-7.1616,-7.1312,-7.1312,-7.1312,-7.1312,-7.1312,-7.1312,-7.1312,-7.1312,-7.1312,-7.0804,-6.9316,-6.9113,-6.8368,-6.6406,-6.5222,-6.4444,-6.4005,-6.2753,-6.1637,-6.0892,-6.0554,-5.9742,-5.822,-5.8558,-5.8254,-5.707,-5.7476,-5.7273,-5.6393,-5.6359,-5.6156,-5.5681,-5.6156,-5.6359,-5.6393,-5.6833,-5.7171,-10.5128,-10.8909,-11.001,-10.4577,-9.5878,-8.7215,0.0,0.0,-6.464,-6.3576,-6.2879,-6.2218,-6.1374,-6.1704,-6.1924,-6.1337,-6.2071,-6.5485,-7.345,-7.6754,0.0,0.0,0.0,-10.0576,0.0,-10.689,-10.7294,-10.6486,-10.5789,-10.5018,-10.399,-10.2779,-10.1604,-10.0319,-9.9292,-9.8484,-9.7897,-9.764,-9.7126,-9.6355,-9.4879,-9.4117,-9.3895,-9.2436,-9.1785,-9.1803,-9.1803,-9.1473,0.0,-8.9858,-8.8213,-8.6168,-8.4349,-8.2706,-8.1283,-8.0492,-7.9735,-7.8991,-7.8247,-7.7976,-7.7874,-7.713,-7.6893,-7.6792,-7.6217,-7.5168,-7.4153,-7.4153,-7.324,-7.2326,-7.2394,-7.2394,-7.236,-7.2124,-7.1684,-7.1312,-7.1312,-7.1312,-7.1312,-7.1312,-7.1312,-7.1312,-7.1312,-7.1312,-7.0804,-6.9316,-6.9113,-6.8368,-6.6271,-6.5189,-6.441,-6.3903,-6.2956,-6.211,-6.1366,-6.1298,-6.0757,-5.9438,-5.981,-5.9641,-5.8592,-5.9066,-5.8863,-5.7814,-5.7577,-5.7205,-5.6697,-5.7002,-5.7137,-5.7137,-5.7645,-5.778,-10.0723,-10.5128,-10.7697,-10.2705,-9.4226,-8.5563,0.0,0.0,-6.3613,-6.1961,-6.163,-6.1374,-6.0566,-6.0419,-6.0419,-6.0419,-6.3135,-6.7247,-7.2899,-7.7892,0.0,0.0,0.0,-9.3896,-9.8741,-10.4284,-10.7294,-10.6486,-10.6376,0.0,-10.399,-10.388,-10.2779,-10.0393,-9.8741,-9.7897,-9.7897,-9.7126,-9.6318,-9.5511,-9.5473,-9.4629,-9.3125,-9.3088,-9.2611,-9.1803,-9.1803,-9.1803,0.0,-9.0078,-8.8049,-8.5832,-8.4265,-8.2198,-8.0209,-8.0209,-7.9735,-7.8991,-7.8247,-7.7976,-7.7874,-7.713,-7.6893,-7.6893,-7.6893,-7.6318,-7.5676,-7.5676,-7.5134,-7.4255,-7.2766,-7.2394,-7.2225,-7.1481,-7.1312,-7.1312,-7.1312,-7.1312,-7.1312,-7.1312,-7.1312,-7.1312,-7.1312,-7.1312,-7.0804,-6.9316,-6.9113,-6.8538,-6.7015,-6.5527,-6.4613,-6.458,-6.326,-6.211,-6.1366,-6.1298,-6.096,-6.0148,-6.0114,-6.008,-6.008,-6.008,-6.008,-6.008,-5.937,-5.8998,-5.8964,-5.8254,-5.7881,-5.7881,-5.7881,-5.7509,-9.0592,-9.4336,-9.6135,-9.184,-8.5527,-7.936,-7.5359,-6.9082,-6.3759,-6.2658,-6.2438,-6.2034,-6.0639,-6.086,-6.1594,-6.2732,-6.4273,-6.6696,0.0,0.0,0.0,-8.7509,-9.7236,-10.3806,0.0,0.0,-10.7881,-10.6486,-10.5789,-10.5018,-10.399,-10.2889,-10.1677,-10.0319,-9.9805,-9.8998,-9.7897,-9.7089,-9.6318,-9.5511,-9.441,-9.3602,-9.3088,-9.2464,-9.206,-9.1767,-9.1216,-9.0996,-9.0813,-8.8395,-8.6553,-8.5002,-8.3136,-8.1522,-8.0141,-7.9634,-7.8991,-7.8314,-7.8077,-7.7976,-7.8044,-7.8314,-7.8077,-7.7638,-7.7638,-7.6386,-7.483,-7.4322,-7.439,-7.4255,-7.28,-7.2766,-7.2834,-7.1616,-7.1312,-7.1312,-7.1312,-7.1312,-7.1312,-7.1312,-7.1312,-7.1312,-7.1312,-7.1312,-7.0973,-6.9992,-6.9417,-6.8538,-6.7015,-6.5527,-6.441,-6.3903,-6.299,-6.2313,-6.2076,-6.2042,-6.1357,-5.9804,-6.0156,-5.9956,-5.8887,-5.9392,-5.9816,-6.0114,-5.9877,-5.9505,-5.9032,-5.8795,-5.8389,-5.7881,-5.7881,-5.7746,-8.2774,-8.6848,-8.872,-8.527,-8.0388,-7.5579,-7.2349,-6.7687,-6.3759,-6.2585,-6.2365,-6.1851,-6.0236,-6.0382,-6.0933,-6.1667,-6.2732,-6.4787,0.0,0.0,0.0,-8.8169,0.0,0.0,0.0,-10.6706,-10.7294,-10.6009,-10.5091,-10.432,-10.3513,-10.2191,-10.098,-9.9879,-9.9548,-9.8631,-9.7016,-9.6502,-9.5694,-9.4593,-9.3602,-9.2941,-9.2574,-9.206,-9.162,-9.1326,-9.0812,-9.0445,0.0,-8.7509,-8.5836,-8.464,-8.2659,-8.1222,-8.0107,-7.9397,-7.8822,-7.8382,-7.8077,-7.8179,-7.8483,-7.8957,-7.8585,-7.7874,-7.7299,-7.6149,-7.4931,-7.4458,-7.4661,-7.4695,-7.3206,-7.3138,-7.3105,-7.165,-7.1312,-7.1312,-7.1312,-7.1312,-7.1312,-7.1312,-7.1312,-7.1312,-7.1312,-7.1312,-7.1075,-7.0297,-6.9553,-6.8639,-6.7387,-6.5696,-6.4546,-6.4343,-6.3,-6.2211,-6.2479,-6.2245,-6.1493,-6.0044,-6.0348,-6.0435,-5.9975,-6.0181,-6.0654,-6.1361,-6.0858,-6.0317,-5.9877,-5.9302,-5.8761,-5.8321,-5.8017,-5.7577,0.0,-8.1525,-8.3875,-8.1562,-7.7524,-7.334,-7.033,-6.6733,0.0,-6.1998,-6.1704,-6.1227,-5.9685,-5.9294,-5.9074,-5.8547,-5.9685,-6.2365,0.0,-7.2532,0.0,0.0,-9.6245,0.0,-10.0393,-10.41,-10.6009,-10.5128,-10.4284,-10.3476,-10.2705,-10.1788,-10.0613,-9.8998,-9.8154,-9.7016,-9.5511,-9.5401,-9.4593,-9.3088,-9.3051,-9.2574,-9.1803,-9.173,-9.1326,0.0,-9.0482,-8.9969,-8.9055,-8.7068,-8.5606,-8.4404,-8.2522,-8.1125,-8.0107,-7.9397,-7.9126,-7.9025,-7.8314,-7.8517,-7.9092,-7.9058,-7.8551,-7.7705,-7.6149,-7.5709,-7.5709,-7.5709,-7.5709,-7.5371,-7.395,-7.3578,-7.3206,-7.1751,-7.1379,-7.1379,-7.1312,-7.1312,-7.1312,-7.1312,-7.1312,-7.1312,-7.1312,-7.1312,-7.1075,-7.0364,-6.962,-6.8808,-6.7996,-6.6,-6.4918,-6.5527,-6.3324,-6.2035,-6.2618,-6.195,-6.1227,-6.061,-6.0548,-6.1138,-6.2409,-6.1797,-6.1995,-6.3337,-6.2003,-6.1298,-6.1298,-5.981,-5.9066,-5.8998,-5.8287,-5.7205,-6.8201,0.0,-7.0734,-6.9559,-6.7944,-6.6439,0.0,-6.4273,-6.2989,-6.2622,-6.2511,-6.2218,-6.1227,-6.0529,-6.0676,-6.2401,-6.2989,-6.4714,-6.8935,0.0,0.0,-9.6245,-10.2081,-10.4687,-10.2412,-10.4687,-10.5789,-10.4284,-10.3403,-10.2595,-10.1788,-10.0393,-9.8924,-9.7309,-9.6502,-9.5878,-9.5511,-9.4299,-9.3492,-9.3088,-9.2427,-9.1987,-9.1767,-9.1179,-9.0776,-9.0519,-8.9307,-8.8144,-8.7032,-8.51,-8.3611,-8.2442,-8.1097,-8.0476,-8.0107,-7.9397,-7.9126,-7.9092,-7.8923,-7.8957,-7.9025,-7.845,-7.8145,-7.7705,-7.6149,-7.5709,-7.5709,-7.5709,-7.5709,-7.5473,-7.4593,-7.4356,-7.3984,-7.2496,-7.2157,-7.1988,-7.1447,-7.1312,-7.1312,-7.1312,-7.1312,-7.1312,-7.1312,-7.1312,-7.1244,-7.1075,-6.9925,-6.8808,-6.7996,-6.644,-6.529,-6.4884,-6.4267,-6.3387,-6.2174,-6.1345,-6.0436,-5.9385,-5.9318,-5.9465,-5.9804,-5.9646,-6.0334,-6.2004,-6.1575,-6.1298,-6.1298,-6.0317,-5.9573,-5.9032,-5.8829,-5.8254,-6.4751,-6.5081,-6.5301,-6.4861,-6.4127,-6.3503,-6.3503,-6.3135,-6.278,-6.278,-6.278,-6.2548,-6.1741,-6.0933,-6.097,-6.2658,-6.3246,0.0,0.0,0.0,-9.1803,-9.9805,-10.3109,-10.4687,0.0,-10.4614,-10.432,-10.3403,-10.2301,-10.1384,-10.098,-9.9402,-9.797,-9.6722,-9.5547,-9.4777,-9.441,-9.3529,-9.2905,-9.2501,-9.2024,-9.162,-9.1216,-9.0812,-9.0188,-8.9454,-8.8573,-8.7341,-8.5814,-8.4261,-8.2928,-8.1816,-8.0656,-8.0209,-8.0107,-7.9397,-7.9329,-7.9566,-7.9228,-7.9329,-7.9431,-7.8348,-7.7976,-7.7705,-7.6149,-7.5709,-7.5709,-7.5709,-7.5709,-7.554,-7.4796,-7.4627,-7.4255,-7.2766,-7.2394,-7.2191,-7.1481,-7.1312,-7.1312,-7.1312,-7.1312,-7.1312,-7.1312,-7.1312,-7.1312,-7.1312,-7.006,-6.8944,-6.8504,-6.6846,-6.5662,-6.5628,-6.5102,-6.4486,-6.3868,-6.2571,-6.1008,-5.9112,-5.8979,-5.9257,-5.9804,-5.9525,-6.0091,-6.1544,-6.116,-6.1266,-6.1806,-6.1028,-6.025,-5.9505,-5.9167,-5.8423,-6.42,-6.4347,-6.4383,-6.398,-6.3356,-6.2817,-6.2989,-6.2915,-6.2842,-6.2989,-6.289,-6.2548,-6.1741,-6.1337,-6.1337,-6.1887,-6.3503,0.0,-8.1379,-8.6481,-9.2207,-10.0907,-10.1898,0.0,-10.4908,-10.3513,-10.2412,-10.2191,-10.0907,-10.0099,-9.9952,-9.8521,-9.7273,-9.6355,-9.4887,-9.3712,-9.2905,-9.2905,-9.2537,-9.1803,-9.1803,-9.1363,-9.0592,-9.0482,-8.9601,-8.8206,-8.7882,-8.672,-8.4967,-8.3797,-8.2661,-8.1535,-8.0591,-8.0209,-8.0107,-7.9498,-7.9667,-8.0107,-7.9498,-7.96,-7.9803,-7.8416,-7.7908,-7.757,-7.6115,-7.5709,-7.5709,-7.5709,-7.5709,-7.5574,-7.4931,-7.4695,-7.4255,-7.2902,-7.2462,-7.2191,-7.1481,-7.1312,-7.1312,-7.1312,-7.1312,-7.1312,-7.1312,-7.1312,-7.1312,-7.1312,-7.0161,-6.9282,-6.9282,-6.7489,-6.644,-6.7083,-6.6189,-6.5721,-6.6133,-6.4452,-6.2359,-5.9861,-5.9387,-5.9697,-6.0661,-6.0166,-6.0372,-6.1315,-6.0965,-6.1244,-6.2278,-6.1728,-6.0994,-6.008,-5.9471,-5.8389,-6.4751,-6.5595,-6.5632,-6.3539,-6.2915,-6.2989,-6.3723,-6.3319,-6.3025,-6.3759,-6.3319,-6.2548,-6.1741,-6.3209,-6.4383,-6.3796,-6.8972,-7.6387,0.0,0.0,-9.3896,-9.8117,0.0,-10.2375,-9.9475,-10.0686,-10.109,-9.9769,-9.9438,-9.8998,-9.83,-9.7383,-9.6208,-9.4703,-9.3786,-9.2868,-9.2024,-9.1987,-9.1913,-9.1803,-9.1803,-9.1363,-9.0592,-8.9895,-8.9087,-8.8134,0.0,-8.5035,-8.3755,-8.2616,-8.1522,-8.0442,-8.0276,-8.0209,-8.0175,-8.0073,-8.0107,-8.0175,-8.0073,-7.9701,-7.9126,-7.828,-7.757,-7.6893,-7.598,-7.5709,-7.5709,-7.5709,-7.5709,-7.5676,-7.5574,-7.5067,-7.439,-7.351,-7.2834,-7.2191,-7.1481,-7.1312,-7.1312,-7.1312,-7.1312,-7.1312,-7.1312,-7.1312,-7.1312,-7.1312,-7.0567,-7.0026,-7.0026,-6.918,-6.8605,-6.8741,-6.8567,-6.8015,-6.7017,-6.561,-6.4133,-6.2597,-6.0886,-5.9777,-5.9422,-5.9716,-5.9954,-6.0183,-6.1032,-6.1551,-6.1721,-6.2038,-6.1501,-6.0114,-5.9979,-5.9133,-6.3734,-6.4237,-6.4567,-6.4751,-6.4787,-6.4457,-6.3062,-6.2768,-6.3062,-6.3906,-6.3429,-6.3099,-6.4053,-6.5888,-6.8421,-7.1982,-7.6827,-8.2186,-8.8023,-9.0886,-9.3932,0.0,0.0,-10.0393,-9.9879,-10.0099,-9.9916,-9.9181,-9.8704,-9.808,-9.7273,-9.6502,-9.5327,-9.3712,-9.3308,-9.2684,-9.1803,-9.1803,-9.1803,-9.1803,-9.1363,-9.0739,-8.9896,-8.8472,-8.7374,-8.6537,-8.5032,-8.3713,-8.2661,-8.2106,-8.1222,-8.0209,-8.0209,-8.0209,-8.0209,-8.0209,-8.0209,-8.0141,-7.9735,-7.9397,-7.8923,-7.7773,-7.7164,-7.6758,-7.5946,-7.5709,-7.5709,-7.5709,-7.5709,-7.5709,-7.5709,-7.5439,-7.4897,-7.3747,-7.324,-7.2665,-7.1548,-7.1312,-7.1312,-7.1312,-7.1312,-7.1312,-7.1312,-7.1312,-7.1312,-7.1312,-7.0669,-7.0195,-7.0195,-6.9553,-6.9113,-6.9113,-6.9451,-6.9434,-6.8841,-6.7856,-6.5783,-6.2225,-6.0801,-5.9937,-5.9638,-5.9176,-5.9246,-5.9877,-6.0355,-6.0945,-6.1587,-6.2125,-6.1603,-6.0114,-6.0114,-5.9302,-6.3282,-6.3514,-6.409,-6.5778,-6.6072,-6.5668,-6.464,-6.4457,-6.4934,-6.6329,-6.5815,-6.5485,-6.6806,-6.9009,-7.2936,-8.0021,-8.3911,-8.7215,-9.0629,-9.217,-9.4483,-9.8631,-9.8557,-9.8814,-10.0503,-9.9548,-9.8668,-9.83,-9.7676,-9.6979,-9.6171,-9.5401,-9.4373,-9.3125,-9.2905,-9.2464,-9.1803,-9.162,-9.151,-9.151,-9.0886,-9.0078,-8.9088,-8.7293,-8.6036,-8.5201,-8.3797,-8.2706,-8.1875,-8.1582,-8.1014,-8.0209,-8.0209,-8.0209,-8.0175,-8.0006,-7.9938,-7.9837,-7.9092,-7.872,-7.8416,-7.7266,-7.6758,-7.6487,-7.5879,-7.5709,-7.5709,-7.5709,-7.5709,-7.5709,-7.5709,-7.5574,-7.51,-7.3781,-7.3341,-7.2868,-7.1582,-7.1312,-7.1312,-7.1312,-7.1312,-7.1312,-7.1312,-7.1312,-7.1312,-7.1312,-7.0804,-7.0466,-7.0466,-6.9958,-6.962,-6.962,-7.0128,-7.0343,-6.9962,-6.9207,-6.6818,-6.2334,-6.1147,-6.0416,-6.0086,-5.9129,-5.8949,-5.9666,-5.9801,-6.0206,-6.0951,-6.1592,-6.1144,-5.9665,-5.9798,-5.9133,-6.4714,-6.5668,-6.6109,-6.5521,-6.4824,-6.5778,-7.1505,-7.1138,-7.044,-7.3487,-7.2899,-7.1174,-6.9119,-7.2496,-7.7745,-8.4278,-8.8059,-9.1583,-9.5621,0.0,-9.7052,-9.8888,-9.9071,-9.8778,-9.819,-9.8043,-9.7383,-9.5878,-9.5731,-9.5327,-9.452,-9.3712,-9.3235,-9.3088,-9.2317,-9.184,-9.1803,-9.1069,-9.0702,-9.0702,-9.0629,-8.9784,-8.8244,-8.7039,-8.6036,-8.5162,-8.2981,-8.1968,-8.1816,-8.0755,-8.0276,-8.0209,-8.0209,-8.0209,-8.0107,-7.9431,-7.9194,-7.9092,-7.8314,-7.7638,-7.7029,-7.6927,-7.6386,-7.5777,-7.5709,-7.5709,-7.5709,-7.5709,-7.5709,-7.5709,-7.5709,-7.5202,-7.4492,-7.368,-7.2969,-7.2259,-7.1481,-7.1312,-7.1312,-7.1312,-7.1312,-7.1312,-7.1312,-7.1312,-7.1312,-7.1312,-7.1278,-7.1244,-7.1244,-7.1176,-7.1142,-7.1142,-7.121,-7.069,-6.9391,-6.8124,-6.6615,-6.4932,-6.3031,-6.1403,-6.0146,-5.9997,-5.9692,-5.9201,-5.9614,-5.9663,-5.9109,-6.0049,-5.9795,-5.8459,-5.8883,-5.866,-6.3551,-6.5081,-6.6439,-6.6109,-6.6953,-6.8605,-7.1541,-7.2275,-7.3266,-7.6533,-7.7121,-7.69,-7.6497,-7.914,-8.2994,-8.7986,-9.151,-9.4373,-9.6428,-9.7126,-9.7676,-9.8264,-9.8337,-9.8227,-9.7933,-9.7456,-9.6685,-9.5584,-9.5511,-9.4923,-9.3639,-9.3272,-9.2868,-9.2317,-9.1473,-9.1069,-9.1069,-9.0262,-8.9601,-8.9124,-8.9124,-8.8793,-8.8134,-8.5768,-8.4533,-8.4124,-8.1816,-8.0819,-8.077,-8.0376,-8.0209,-8.0209,-8.0209,-8.0209,-8.0107,-7.9397,-7.9126,-7.8957,-7.7739,-7.713,-7.6826,-7.6318,-7.5946,-7.5709,-7.5709,-7.5709,-7.5709,-7.5709,-7.5709,-7.5709,-7.5709,-7.5506,-7.4965,-7.3781,-7.3274,-7.2766,-7.1582,-7.1312,-7.1312,-7.1312,-7.1312,-7.1312,-7.1312,-7.1312,-7.1312,-7.1312,-7.1312,-7.1312,-7.1312,-7.1312,-7.1312,-7.1312,-7.1312,-7.0745,-6.9313,-6.7974,-6.6627,-6.5165,-6.3208,-6.1882,-6.1343,-6.0535,-5.9967,-5.9727,-5.945,-5.9154,-5.8907,-5.9224,-5.8917,-5.7947,-5.8888,-5.8873,-6.2365,-6.3649,-6.5154,-6.5925,-6.7724,-7.0293,-7.3927,-7.5579,-7.7524,-8.1562,-8.1415,-8.0791,-8.1599,-8.3104,-8.5453,-8.9234,-9.3051,-9.5804,-9.6575,-9.7163,-9.753,-9.753,-9.753,-9.7419,-9.7163,-9.6649,-9.5878,-9.4813,-9.474,-9.4153,-9.2758,-9.2684,-9.2317,-9.1436,-9.0886,-9.0482,-9.0225,-8.9417,-8.8578,-8.7669,-8.7772,-8.7625,-8.7195,-8.4742,-8.3407,-8.2972,-8.1063,-8.0209,-8.0209,-8.0209,-8.0209,-8.0209,-8.0209,-8.0073,-7.9769,-7.9025,-7.8619,-7.8213,-7.6961,-7.6521,-7.642,-7.5879,-7.5709,-7.5709,-7.5709,-7.5709,-7.5709,-7.5709,-7.5709,-7.5709,-7.5709,-7.5709,-7.5337,-7.3849,-7.3477,-7.3105,-7.1616,-7.1312,-7.1312,-7.1312,-7.1312,-7.1312,-7.1312,-7.1312,-7.1312,-7.1312,-7.1312,-7.1312,-7.1312,-7.1312,-7.1312,-7.1312,-7.0882,-7.0263,-6.9265,-6.7572,-6.6154,-6.5165,-6.3421,-6.2301,-6.2121,-6.1014,-6.0296,-6.0086,-5.937,-5.8767,-5.8338,-5.8451,-5.8018,-5.7177,-5.8109,-5.826,-6.1374,-6.1594,-6.2218,-6.4714,-6.6549,-7.0293,-8.0021,-8.2223,-8.3838,-8.9491,-8.6187,-8.2517,-8.3324,-8.3471,-8.4499,-8.7692,-9.2317,-9.5768,-9.6575,-9.6685,-9.6685,-9.6685,-9.6685,-9.6392,-9.5584,-9.5511,-9.485,-9.3235,-9.3088,-9.2721,-9.184,-9.1803,-9.1436,-9.0629,-9.0592,-9.0188,-8.9382,-8.8538,-8.7596,-8.6469,-8.6793,-8.6356,-8.524,-8.4124,-8.2937,-8.1829,-8.0706,-8.0175,-8.0175,-8.0175,-8.0175,-8.0175,-8.0175,-7.9735,-7.9025,-7.8247,-7.7536,-7.6792,-7.598,-7.5709,-7.5709,-7.5709,-7.5709,-7.5709,-7.5709,-7.5709,-7.5709,-7.5709,-7.5709,-7.5709,-7.5709,-7.5709,-7.5337,-7.3849,-7.3477,-7.3105,-7.1616,-7.1312,-7.1312,-7.1312,-7.1312,-7.1312,-7.1312,-7.1312,-7.1312,-7.1312,-7.1312,-7.1312,-7.1312,-7.1312,-7.1312,-7.1267,-7.0043,-6.9217,-6.9136,-6.6647,-6.5056,-6.5056,-6.3845,-6.278,-6.2121,-6.1463,-6.0775,-6.0086,-5.9428,-5.8441,-5.7094,-5.7534,-5.7157,-5.5906,-5.6315,-5.6495,-6.152,-6.2438,-6.409,-6.71,-7.033,-7.4735,-8.2186,-8.3875,-8.582,-9.2648,-9.0886,-8.8023,-8.7692,-8.7621,-8.8133,-8.9638,-9.2574,-9.5144,-9.6502,-9.6685,-9.6502,-9.5914,-9.5878,-9.5547,-9.474,-9.4666,-9.4226,-9.3198,-9.3088,-9.2464,-9.1033,-9.0959,-9.0592,-8.9784,-8.9234,-8.8179,-8.6607,-8.5771,-8.4556,-8.2923,-8.2994,-8.3419,-8.4124,-8.3755,-8.2734,-8.1067,-7.9922,-7.9431,-7.9431,-7.9431,-7.9431,-7.9397,-7.8855,-7.8517,-7.8247,-7.7502,-7.7096,-7.6792,-7.598,-7.5709,-7.5709,-7.5709,-7.5709,-7.5709,-7.5709,-7.5709,-7.5709,-7.5709,-7.5709,-7.5709,-7.5709,-7.5709,-7.5337,-7.3849,-7.3477,-7.3105,-7.1616,-7.1312,-7.1312,-7.1312,-7.1312,-7.1312,-7.1312,-7.1312,-7.1312,-7.1312,-7.1312,-7.1312,-7.1312,-7.1312,-7.0928,-6.9949,-6.9457,-6.8454,-6.649,-6.5598,-6.4703,-6.3732,-6.3337,-6.278,-6.2121,-6.1463,-6.0775,-6.0086,-5.8979,-5.8231,-5.7812,-5.7037,-5.6456,-5.6113,-5.6617,-5.6855,-6.0933,-6.2585,-6.5007,-6.8898,-7.2899,-7.7745,-8.4903,-8.828,-9.1216,-9.5988,-9.4079,-9.1363,-9.0555,-8.9601,-8.9307,-9.0408,-9.2427,-9.4373,-9.5988,-9.5951,-9.5694,-9.5547,-9.5217,-9.4703,-9.3896,-9.3822,-9.3492,-9.2648,-9.2281,-9.1657,-9.0665,-9.0005,-8.9271,-8.85,-8.7655,-8.6354,-8.4452,-8.3982,-8.2568,-8.0317,-8.1018,-8.1261,-8.0966,-8.1734,-8.1185,-7.9677,-7.9269,-7.9295,-7.9532,-7.9532,-7.9363,-7.9058,-7.8619,-7.7874,-7.7029,-7.6589,-7.6048,-7.5506,-7.5337,-7.527,-7.5303,-7.5608,-7.5709,-7.5709,-7.5709,-7.5709,-7.5709,-7.5709,-7.5709,-7.5709,-7.5709,-7.5709,-7.5337,-7.3849,-7.3477,-7.3105,-7.1616,-7.1312,-7.1312,-7.1312,-7.1312,-7.1312,-7.1312,-7.1312,-7.1312,-7.1312,-7.1312,-7.1312,-7.1312,-7.0791,-7.0136,-6.9313,-6.8224,-6.6906,-6.5219,-6.4623,-6.3958,-6.3137,-6.3079,-6.278,-6.2121,-6.1702,-6.1194,-6.0505,-5.9458,-5.865,-5.8112,-5.7334,-5.6675,-5.6218,-5.6545,-5.6525,-6.0272,-6.2438,-6.5485,-7.077,-7.5402,-8.0686,-8.8134,-9.3969,-9.797,-9.8631,-9.5914,-9.3161,-9.2281,-9.0225,-8.9124,-9.0592,-9.2097,-9.3639,-9.518,-9.4777,-9.452,-9.5217,-9.463,-9.3822,-9.2978,-9.2868,-9.2501,-9.1657,-9.0849,-9.0372,-9.0298,-8.883,-8.7619,-8.6811,-8.5899,-8.4603,-8.279,-8.2531,-8.0981,-7.8291,-7.9916,-7.9225,-7.6671,-7.8729,-7.9084,-7.801,-7.872,-7.9397,-8.0006,-8.0006,-7.9566,-7.8889,-7.8822,-7.7502,-7.5608,-7.5608,-7.4695,-7.3578,-7.4289,-7.4559,-7.4728,-7.5371,-7.5642,-7.5709,-7.5709,-7.5709,-7.5709,-7.5709,-7.5709,-7.5709,-7.5709,-7.5709,-7.5337,-7.3849,-7.3544,-7.3172,-7.165,-7.1379,-7.1379,-7.1312,-7.1312,-7.1312,-7.1312,-7.1312,-7.1312,-7.1312,-7.1312,-7.1312,-7.1312,-7.0043,-6.9169,-6.8991,-6.6647,-6.5056,-6.4923,-6.3789,-6.3079,-6.3079,-6.3079,-6.281,-6.2211,-6.2121,-6.1792,-6.1134,-6.0505,-5.9548,-5.8291,-5.8231,-5.7573,-5.6346,-5.6286,-5.5897,-6.2511,-6.4163,-6.7136,-7.5799,-8.3875,-9.0335,-9.2684,-9.518,-9.6832,-9.6392,-9.6098,-9.5474,-9.4042,-9.2831,-9.217,-9.2501,-9.2868,-9.3455,-9.441,-9.441,-9.4116,-9.3675,-9.3455,-9.2758,-9.1289,-9.1143,-9.0812,-9.0005,-8.916,-8.8426,-8.7802,-8.6848,-8.593,-8.5159,-8.3552,-8.2215,-8.1128,-7.8882,-7.7062,-7.5768,-7.5362,-7.4844,-7.4335,-7.8052,-7.9084,-7.801,-7.8145,-7.8314,-7.845,-7.845,-7.8044,-7.7299,-7.669,-7.5777,-7.4864,-7.4864,-7.4255,-7.351,-7.368,-7.4119,-7.4627,-7.4796,-7.5236,-7.5709,-7.5709,-7.5709,-7.5709,-7.5709,-7.5709,-7.5709,-7.5709,-7.5709,-7.5337,-7.3849,-7.395,-7.3815,-7.1751,-7.1751,-7.1988,-7.1413,-7.1312,-7.1312,-7.1312,-7.1312,-7.1312,-7.1312,-7.1312,-7.1312,-7.1312,-7.0043,-6.8797,-6.7723,-6.6101,-6.4648,-6.3649,-6.3279,-6.3079,-6.3079,-6.3079,-6.3019,-6.2869,-6.2361,-6.1792,-6.1134,-6.0954,-6.0475,-5.9668,-5.9129,-5.8471,-5.7693,-5.7154,-5.6555,-6.2585,-6.5485,-7.011,-8.0645,-8.8206,-9.3198,-9.3639,-9.4666,-9.5437,-9.4997,-9.5584,-9.5621,-9.4006,-9.3382,-9.2978,-9.2537,-9.2464,-9.2758,-9.3602,-9.3382,-9.2941,-9.2537,-9.2134,-9.1253,-8.9601,-8.9454,-8.9124,-8.8316,-8.7142,-8.6297,-8.5894,-8.4352,-8.3084,-8.2201,-8.0838,-7.9426,-7.7969,-7.6489,-7.5077,-7.3734,-7.3595,-7.368,-7.4132,-7.6278,-7.7358,-7.7468,-7.7468,-7.7671,-7.7976,-7.7976,-7.757,-7.6826,-7.6014,-7.5033,-7.4018,-7.368,-7.3071,-7.2496,-7.2834,-7.324,-7.368,-7.439,-7.4864,-7.5236,-7.5574,-7.5709,-7.5709,-7.5709,-7.5709,-7.5709,-7.5709,-7.5709,-7.5337,-7.3849,-7.3781,-7.3578,-7.1718,-7.1616,-7.1751,-7.1379,-7.1312,-7.1312,-7.1312,-7.1312,-7.1312,-7.1312,-7.1312,-7.1312,-7.1312,-6.949,-6.7974,-6.7266,-6.5382,-6.3845,-6.3194,-6.3079,-6.3079,-6.3079,-6.3079,-6.3079,-6.3079,-6.275,-6.2241,-6.1583,-6.1583,-6.1104,-6.0086,-5.9727,-5.9069,-5.8112,-5.7752,-5.7064,-6.1924,-6.71,-7.4001,-8.4242,-8.9858,-9.2868,-9.2868,-9.3382,-9.3822,-9.3675,-9.441,-9.4703,-9.3345,-9.2978,-9.2611,-9.173,-9.1583,-9.1803,-9.2391,-9.184,-9.14,-9.14,-9.0665,-8.9564,-8.7949,-8.7655,-8.7178,-8.6261,-8.4829,-8.3985,-8.3985,-8.1798,-8.0156,-7.9322,-7.8099,-7.6707,-7.5178,-7.4695,-7.3782,-7.2473,-7.2892,-7.351,-7.4221,-7.4356,-7.5337,-7.6893,-7.6893,-7.7232,-7.7773,-7.7638,-7.7164,-7.642,-7.5642,-7.4492,-7.324,-7.2631,-7.1954,-7.1413,-7.1988,-7.2293,-7.2597,-7.3815,-7.439,-7.4728,-7.5337,-7.5608,-7.5709,-7.5709,-7.5709,-7.5709,-7.5709,-7.5709,-7.5371,-7.4018,-7.3578,-7.3105,-7.1616,-7.1413,-7.1447,-7.1345,-7.1312,-7.1312,-7.1312,-7.1312,-7.1312,-7.1312,-7.1312,-7.1312,-7.1312,-6.8879,-6.7164,-6.7164,-6.4734,-6.3079,-6.3079,-6.3079,-6.3079,-6.3079,-6.3079,-6.3079,-6.3079,-6.3079,-6.281,-6.2271,-6.2271,-6.1672,-6.0416,-6.0326,-5.9638,-5.8471,-5.8351,-5.7573,-6.1924,-7.0,-7.8809,-8.4535,-8.8977,-9.195,-9.195,-9.206,-9.195,0.0,-9.2354,-9.3345,-9.3125,-9.2464,-9.1693,-9.0886,-9.0776,-9.0555,-9.0005,-8.9785,-8.9748,-8.9748,-8.9014,-8.7876,-8.6261,-8.549,-8.4462,-8.2957,-8.2003,-8.1489,-8.1489,-7.966,-7.8525,-7.8384,-7.5893,-7.4833,-7.5465,-7.3026,-7.2112,-7.272,-7.1971,-7.1988,-7.2732,-7.3341,-7.483,-7.6893,-7.6893,-7.6961,-7.6995,-7.6284,-7.5574,-7.483,-7.4086,-7.3274,-7.2529,-7.2428,-7.1954,-7.1312,-7.1413,-7.1887,-7.2428,-7.2631,-7.3578,-7.4627,-7.4728,-7.5202,-7.5709,-7.5709,-7.5709,-7.5709,-7.5709,-7.5709,-7.5473,-7.4661,-7.395,-7.3105,-7.1616,-7.1819,-7.2056,-7.1447,-7.1312,-7.1312,-7.1312,-7.1312,-7.1312,-7.1312,-7.1312,-7.1312,-7.1312,-6.8879,-6.7164,-6.7164,-6.4734,-6.3079,-6.3079,-6.3079,-6.3079,-6.3079,-6.3079,-6.3079,-6.3079,-6.3079,-6.3049,-6.2959,-6.2959,-6.257,-6.1822,-6.1253,-6.0595,-5.9817,-5.9249,-5.8261,-6.5264,-7.1284,-7.7341,-8.3581,-8.6444,-8.8133,-8.9454,-8.9784,-8.9821,-8.9931,-9.0519,-9.1033,-9.1033,-9.0739,-9.0335,-9.0005,-8.9931,-8.9821,-8.9419,-8.9014,-8.8573,-8.8133,-8.6958,-8.5563,-8.3948,-8.3067,-8.2113,-8.0938,-8.0094,-7.9653,-7.9653,-7.7889,-7.6623,-7.6012,-7.4277,-7.3275,-7.315,-7.1913,-7.1546,-7.1926,-7.1501,-7.1684,-7.2428,-7.2732,-7.3646,-7.4999,-7.5439,-7.5371,-7.4965,-7.4593,-7.4289,-7.3916,-7.3172,-7.2699,-7.236,-7.1954,-7.1582,-7.1312,-7.1312,-7.1515,-7.1853,-7.2259,-7.2834,-7.351,-7.4356,-7.483,-7.5168,-7.5574,-7.5709,-7.5709,-7.5709,-7.5709,-7.5506,-7.4796,-7.4356,-7.3713,-7.2225,-7.1853,-7.1684,-7.1379,-7.1312,-7.1312,-7.1312,-7.1312,-7.1312,-7.1312,-7.1312,-7.1007,-7.0216,-6.8405,-6.6906,-6.6101,-6.4265,-6.3079,-6.3079,-6.3079,-6.3079,-6.3079,-6.3079,-6.3079,-6.3079,-6.3079,-6.3079,-6.3079,-6.3079,-6.275,-6.2091,-6.1792,-6.1104,-6.0086,-5.9787,-5.874,-6.6109,-6.9706,-7.323,-8.0094,-8.2443,-8.3801,0.0,0.0,-8.7509,0.0,-8.8316,-8.8206,-8.8206,-8.8867,-8.9235,-8.8831,-8.8793,-8.8683,-8.8243,-8.7509,-8.6775,-8.6187,-8.4682,-8.3141,-8.1709,-8.0865,-7.9925,-7.8853,-7.8463,-7.8034,-7.7542,-7.6182,-7.494,-7.3928,-7.2962,-7.2056,-7.1312,-7.1312,-7.1312,-7.1312,-7.1312,-7.1616,-7.2124,-7.2326,-7.2597,-7.2969,-7.3916,-7.4018,-7.3477,-7.3274,-7.3206,-7.3138,-7.2394,-7.2124,-7.2056,-7.1515,-7.1312,-7.1312,-7.1312,-7.1312,-7.1413,-7.1954,-7.236,-7.2868,-7.3984,-7.4593,-7.4999,-7.554,-7.5709,-7.5709,-7.5709,-7.5709,-7.5506,-7.4796,-7.4458,-7.3984,-7.2665,-7.1819,-7.1312,-7.1312,-7.1312,-7.1312,-7.1312,-7.1312,-7.1312,-7.1312,-7.1312,-7.0791,-6.9361,-6.8024,-6.6647,-6.5219,-6.4209,-6.3592,-6.3592,-6.3592,-6.3592,-6.3592,-6.3279,-6.3079,-6.3079,-6.3079,-6.3079,-6.3079,-6.3079,-6.2839,-6.2331,-6.2181,-6.1493,-6.0356,-6.0176,-5.9009,-6.13,-6.3833,-6.71,-7.2826,-7.6607,-7.9947,0.0,0.0,-8.5013,-8.582,-8.538,-8.4866,-8.4866,-8.7362,-8.8904,-8.7399,-8.7142,-8.6591,-8.5049,-8.4168,-8.3654,-8.3618,-8.2186,-8.0865,-7.9984,-7.9176,-7.798,-7.614,-7.6834,-7.6538,-7.4606,-7.4421,-7.3889,-7.2921,-7.1917,-7.1356,-7.1312,-7.1312,-7.1312,-7.1312,-7.1312,-7.1345,-7.1379,-7.209,-7.2056,-7.1515,-7.2935,-7.351,-7.3443,-7.2732,-7.2462,-7.2394,-7.165,-7.1379,-7.1379,-7.1312,-7.1312,-7.1312,-7.1312,-7.1312,-7.1312,-7.1345,-7.2293,-7.3443,-7.351,-7.4525,-7.5642,-7.5676,-7.5709,-7.5709,-7.5709,-7.5709,-7.5506,-7.4796,-7.4052,-7.3341,-7.2563,-7.1819,-7.1312,-7.1312,-7.1312,-7.1312,-7.1312,-7.1312,-7.1312,-7.1312,-7.1312,-7.0791,-6.9361,-6.8024,-6.6647,-6.5219,-6.5032,-6.5032,-6.5032,-6.5032,-6.5032,-6.5032,-6.3789,-6.3079,-6.3079,-6.3079,-6.3079,-6.3079,-6.3079,-6.3049,-6.3019,-6.2391,-6.1732,-6.1044,-6.0386,-5.9009,-6.1594,-6.2658,-6.4163,-6.9339,-7.2275,-7.4698,-7.7708,-8.0021,-8.1746,-8.2553,-8.2884,-8.3067,-8.3067,-8.4866,-8.6151,-8.5563,-8.5049,-8.4499,-8.3911,-8.27,-8.1856,-8.1856,-8.0461,-7.936,-7.9066,-7.8259,-7.7511,-7.6829,-7.6498,-7.6027,-7.5299,-7.4043,-7.2962,-7.2104,-7.1591,-7.1312,-7.1312,-7.0838,-7.0838,-7.1312,-7.1312,-7.1312,-7.1312,-7.1582,-7.1548,-7.1345,-7.1853,-7.209,-7.209,-7.1819,-7.1684,-7.1684,-7.1413,-7.1312,-7.1312,-7.1312,-7.1312,-7.1312,-7.1312,-7.1312,-7.1312,-7.1312,-7.1684,-7.2259,-7.3206,-7.3849,-7.4492,-7.5439,-7.5709,-7.5709,-7.5709,-7.5709,-7.5506,-7.4796,-7.4052,-7.3274,-7.2563,-7.1819,-7.1312,-7.1312,-7.1312,-7.1312,-7.1312,-7.1312,-7.1312,-7.1312,-7.0528,-6.949,-6.8074,-6.6699,-6.562,-6.5165,-6.5111,-6.549,-6.6365,-6.6006,-6.5523,-6.5134,-6.4193,-6.3472,-6.3107,-6.3079,-6.3079,-6.3079,-6.3079,-6.3079,-6.3079,-6.2839,-6.2181,-6.1104,-6.0864,-5.9668,-6.0603,0.0,0.0,-6.6806,-6.8274,-6.9522,-7.356,-7.5983,-7.7708,-7.9066,-8.0241,-8.1048,-8.1342,-8.226,-8.3067,-8.3361,-8.2957,-8.2517,-8.2223,-8.1048,-8.0094,-7.98,-7.8589,-7.7745,-7.7745,-7.7011,-7.6594,-7.6788,-7.569,-7.4861,-7.4438,-7.2941,-7.1663,-7.0842,-7.0658,-7.0567,-7.0567,-7.006,-7.0195,-7.0939,-7.0703,-7.0838,-7.1312,-7.1041,-7.0939,-7.0939,-7.0939,-7.0939,-7.0939,-7.0939,-7.0804,-7.0567,-7.0567,-7.0737,-7.0939,-7.0939,-7.1109,-7.1312,-7.1312,-7.1312,-7.1312,-7.1312,-7.1481,-7.1853,-7.2834,-7.3477,-7.4052,-7.5067,-7.5506,-7.5709,-7.5709,-7.5506,-7.5134,-7.4424,-7.368,-7.281,-7.1619,-7.0955,-7.0745,-7.1222,-7.0916,-7.0745,-7.1222,-7.1312,-7.1312,-7.1312,-7.009,-6.8699,-6.7368,-6.6417,-6.562,-6.5165,-6.5941,-6.6759,-6.7451,-6.7275,-6.6841,-6.6142,-6.5481,-6.47,-6.3845,-6.3732,-6.3535,-6.3137,-6.3079,-6.3079,-6.3079,-6.3079,-6.2391,-6.1104,-6.1104,-5.9907,0.0,0.0,0.0,-6.4861,-6.4494,0.0,-7.1725,-7.2826,-7.3046,-7.5395,-7.7231,-7.8662,-7.947,-7.9617,-7.991,-8.0681,-8.0901,-8.0645,-7.9874,-7.9029,-7.8222,-7.7347,-7.657,-7.6056,-7.6056,-7.5359,-7.5134,-7.5745,-7.4341,-7.294,-7.1781,-7.0966,-7.0093,-6.9122,-6.9079,-6.9045,-6.9113,-6.9079,-6.9451,-7.0161,-6.9451,-6.9857,-7.121,-7.05,-7.0161,-7.0161,-7.0161,-7.0128,-7.0128,-7.0161,-6.9755,-6.9113,-6.9122,-6.9562,-7.0206,-7.0206,-7.0713,-7.1356,-7.1312,-7.1312,-7.1312,-7.1312,-7.1785,-7.236,-7.2394,-7.3409,-7.4559,-7.4593,-7.51,-7.5642,-7.5642,-7.5134,-7.4424,-7.3646,-7.2902,-7.1837,-6.9717,-6.9217,-6.9571,-7.0916,-7.0123,-6.9666,-7.0961,-7.1176,-7.1222,-7.1222,-7.0043,-6.8699,-6.7419,-6.7215,-6.6699,-6.5382,-6.7622,-6.8921,-6.8229,-6.8837,-6.8888,-6.8181,-6.7536,-6.6595,-6.5219,-6.5165,-6.4568,-6.3222,-6.3222,-6.3194,-6.3194,-6.3137,-6.2391,-6.1104,-6.1074,-5.9638,-5.7997,0.0,0.0,0.0,0.0,0.0,-6.4494,-6.7063,-6.9376,-7.0624,-7.2642,-7.4441,-7.5249,-7.5873,-7.635,-7.657,-7.8112,-7.9176,-7.8956,-7.7708,-7.6717,-7.646,-7.5726,-7.5249,-7.5249,-7.5028,-7.4945,0.0,-7.3458,-7.2297,-7.1918,-6.9848,-6.8778,-6.9079,-6.803,-6.7963,-6.9079,-6.8504,-6.8639,-6.9383,-6.9214,-6.9316,-6.9722,-6.9485,-6.9417,-6.9417,-6.9417,-6.9079,-6.8571,-6.9147,-6.9282,-6.9166,-6.9872,-7.0616,-7.127,-7.1228,-7.171,-7.2279,-7.1546,-7.1312,-7.1312,-7.1312,-7.1447,-7.1718,-7.2225,-7.2699,-7.324,-7.4322,-7.4356,-7.4086,-7.4086,-7.4356,-7.4289,-7.3003,-7.2563,-7.21,-7.0959,-6.9549,-6.842,-6.8354,-6.9223,-6.9664,-6.8552,-6.8306,-6.865,-6.9633,-6.8601,-6.7974,-6.8552,-6.7774,-6.7419,-6.7974,-6.8748,-6.9533,-7.0352,-7.0107,-6.9641,-6.8936,-6.8207,-6.7456,-6.6647,-6.6627,-6.647,-6.6048,-6.6048,-6.5544,-6.4568,-6.3592,-6.2391,-6.1104,-6.0116,-5.9009,0.0,0.0,0.0,0.0,0.0,0.0,-6.1777,-6.3686,-6.5375,0.0,-6.8311,-7.0136,-7.061,-7.1626,-7.2519,-7.2875,-7.4702,-7.6276,-7.6974,-7.624,-7.5359,-7.4698,-7.4478,-7.4258,-7.3927,-7.3891,-7.3999,-7.4316,-7.2254,-7.0546,-6.9439,-6.7824,-6.7049,-6.7218,-6.6339,-6.6305,-6.7218,-6.7049,-6.7218,-6.7692,-6.7996,-6.8301,-6.8605,-6.8605,-6.8605,-6.8571,-6.8267,-6.7692,-6.6981,-6.7151,-6.759,-6.8217,-6.917,-7.0233,-7.1244,-7.1163,-7.1855,-7.2666,-7.1644,-7.1312,-7.1312,-7.1312,-7.1312,-7.1379,-7.1819,-7.2157,-7.2597,-7.3443,-7.3578,-7.3477,-7.3477,-7.3815,-7.3849,-7.2665,-7.2394,-7.2054,-7.0742,-7.0181,-6.9583,-6.8286,-6.853,-6.8576,-6.7407,-6.788,-6.8631,-6.9105,-6.8552,-6.8355,-6.9121,-6.8503,-6.8355,-6.9121,-6.9727,-7.0302,-7.0827,-7.0737,-7.0355,-6.9669,-6.9477,-6.9013,-6.8074,-6.8024,-6.7774,-6.7215,-6.6908,-6.6026,-6.4654,-6.4168,-6.2954,-6.1074,-5.9727,-5.874,0.0,0.0,0.0,0.0,-6.0382,0.0,-6.1704,-6.1924,-6.1777,-6.2401,-6.442,-6.6133,-6.6243,-6.7485,-6.8742,-6.9539,-7.0946,-7.2606,-7.4515,-7.4698,-7.4074,-7.2569,-7.2899,-7.2981,-7.216,-7.2087,-7.231,-7.2795,-7.0626,-6.8199,-6.5718,-6.5561,-6.5256,-6.4613,-6.4613,-6.4613,-6.4613,-6.5256,-6.5561,-6.5561,-6.6237,-6.6914,-6.7523,-6.7523,-6.7523,-6.7489,-6.6846,-6.617,-6.5527,-6.4884,-6.5425,-6.6803,-6.7847,-6.9215,-7.0645,-7.067,-7.1607,-7.2658,-7.1552,-7.1244,-7.1312,-7.121,-7.1244,-7.1312,-7.1312,-7.1751,-7.2293,-7.2293,-7.2868,-7.3443,-7.3274,-7.3308,-7.3172,-7.2462,-7.2293,-7.1782,-6.986,-7.0877,-7.1539,-6.9541,-6.8252,-6.7425,-6.7233,-6.8676,-6.9698,-6.9268,-6.9217,-6.9265,-6.9409,-6.9409,-6.9409,-6.9409,-7.0574,-7.1041,-7.0364,-7.0939,-7.1041,-7.0364,-7.0939,-7.0745,-6.9457,-6.9409,-6.8846,-6.7705,-6.6745,-6.5599,-6.4124,-6.4576,-6.3483,-6.1074,-5.9727,-5.88,0.0,0.0,0.0,0.0,0.0,0.0,-5.9245,-6.0309,-6.1447,0.0,-6.2291,-6.3745,-6.4448,-6.537,-6.6056,-6.6243,-6.7606,-6.9889,-7.3413,-7.3377,-7.2606,-7.1651,-7.1101,-7.047,-6.9594,-6.9533,-6.9264,-6.8665,-6.741,-6.6163,-6.4898,-6.4816,-6.4749,-6.4613,-6.4613,-6.4613,-6.4613,-6.4749,-6.4816,-6.4816,-6.4952,-6.5087,-6.5256,-6.5256,-6.5256,-6.5256,-6.5087,-6.4952,-6.4783,-6.4647,-6.5121,-6.6072,-6.7815,-6.9493,-7.094,-7.1429,-7.2202,-7.2781,-7.1037,-7.0804,-7.121,-7.0601,-7.0804,-7.1312,-7.1312,-7.1413,-7.1515,-7.1515,-7.2462,-7.3206,-7.2056,-7.2157,-7.2428,-7.1684,-7.1515,-7.1391,-7.0961,-7.0737,-7.0349,-6.9397,-6.9485,-6.9181,-6.7478,-6.7548,-6.8086,-6.9073,-6.9217,-6.9633,-7.0745,-7.0882,-7.0882,-7.0882,-7.1176,-7.1244,-7.1109,-7.1244,-7.1244,-7.1109,-7.1244,-7.1176,-7.0882,-7.0882,-7.0791,-7.0482,-6.8668,-6.6777,-6.4906,-6.3371,-6.2081,-6.1074,-5.9727,-5.9039,0.0,0.0,0.0,-6.0309,0.0,0.0,0.0,-5.9538,-6.0052,-5.8841,-5.9575,-6.0433,-6.0475,-6.148,-6.2386,-6.2844,-6.4213,-6.6109,-6.8568,-6.9242,-6.9041,-6.7838,-6.7692,-6.7223,-6.5971,-6.6937,-6.702,-6.5724,-6.4752,-6.3986,-6.3537,-6.3497,-6.3497,-6.3497,-6.3497,-6.3497,-6.3497,-6.3869,-6.3869,-6.3497,-6.4241,-6.441,-6.4072,-6.4444,-6.4613,-6.458,-6.4208,-6.4072,-6.4038,-6.3666,-6.4189,-6.5499,-6.7727,-6.9282,-7.0286,-7.1082,-7.1533,-7.166,-7.0158,-6.9891,-7.0161,-6.9755,-7.0161,-7.0737,-7.0737,-7.1007,-7.1312,-7.1312,-7.1853,-7.2225,-7.1515,-7.1582,-7.1751,-7.1413,-7.1312,-7.1312,-7.1312,-7.1014,-7.065,-7.033,-7.0563,-7.0015,-6.7585,-6.8014,-6.8795,-6.9154,-6.9775,-7.0528,-7.1222,-7.1312,-7.1312,-7.1312,-7.1312,-7.1312,-7.1312,-7.1312,-7.1312,-7.1312,-7.1312,-7.1312,-7.1312,-7.1312,-7.0973,-7.0229,-6.9132,-6.7273,-6.4572,-6.3178,-6.1867,-6.0565,-5.9578,-5.9099,0.0,0.0,0.0,0.0,0.0,-6.1447,0.0,0.0,0.0,-5.7629,-5.7776,0.0,0.0,0.0,0.0,0.0,0.0,0.0,0.0,-6.4157,0.0,-6.3691,-6.3961,-6.3718,-6.2495,-6.4081,-6.4595,-6.3206,-6.2555,-6.2207,-6.2207,-6.2225,-6.2246,-6.2382,-6.2295,-6.2245,-6.2381,-6.2854,-6.2787,-6.2178,-6.3226,-6.3497,-6.3125,-6.37,-6.4038,-6.414,-6.3565,-6.3294,-6.326,-6.2853,-6.3494,-6.5005,-6.7094,-6.8463,-6.9412,-7.0047,-7.0345,-7.0217,-6.9238,-6.8977,-6.9079,-6.891,-6.9451,-7.0229,-7.0364,-7.0838,-7.1312,-7.1312,-7.1312,-7.1312,-7.1312,-7.1312,-7.1312,-7.1312,-7.1312,-7.1312,-7.1312,-7.121,-7.1109,-7.1109,-7.0973,-7.0272,-6.8323,-6.9337,-7.0247,-6.9684,-7.0574,-7.1312,-7.1312,-7.1312,-7.1312,-7.1312,-7.1312,-7.1312,-7.1312,-7.1312,-7.1312,-7.1312,-7.1312,-7.1312,-7.1312,-7.1176,-7.0466,-6.9147,-6.8944,-6.7312,-6.4176,-6.3357,-6.1972,-6.0057,-5.9398,-5.9261,0.0,0.0,0.0,0.0,-6.5338,0.0,0.0,0.0,-6.1716,-5.9404,0.0,0.0,0.0,0.0,0.0,0.0,0.0,0.0,-5.9845,-5.9339,-5.974,-6.164,-6.082,-6.0215,-6.0544,-6.076,-6.0835,-6.0614,-6.1184,-6.1506,-6.1506,-6.1536,-6.1809,-6.2465,-6.1824,-6.1738,-6.2381,-6.1839,-6.1501,-6.1434,-6.0858,-6.0926,-6.1569,-6.1637,-6.2042,-6.2651,-6.255,-6.2516,-6.2595,-6.3271,-6.406,-6.4828,-6.5185,-6.6704,-6.8575,-6.8578,-6.8999,-6.9416,-6.8378,-6.8504,-6.8977,-6.8267,-6.9011,-7.0297,-7.0973,-7.1244,-7.1312,-7.1312,-7.1312,-7.1312,-7.1312,-7.1312,-7.1312,-7.1312,-7.1312,-7.1312,-7.1312,-7.0804,-7.0297,-7.0297,-6.9789,-6.9667,-7.068,-7.1029,-7.1153,-7.1052,-7.1222,-7.1312,-7.1312,-7.1312,-7.1312,-7.1312,-7.1312,-7.1312,-7.1312,-7.1312,-7.1312,-7.1312,-7.1312,-7.1312,-7.1312,-7.0669,-6.9925,-6.9113,-6.8402,-6.6987,-6.4819,-6.3609,-6.1972,-6.0057,-5.9398,-5.9705,0.0,0.0,0.0,0.0,0.0,0.0,-6.3649,0.0,-6.1667,0.0,0.0,0.0,0.0,0.0,0.0,0.0,-5.8584,0.0,0.0,0.0,-5.6751,0.0,0.0,0.0,-5.8178,-5.8666,-5.8724,-5.8265,-5.8966,-5.9602,-6.0061,-6.0522,-6.1099,-6.1837,-6.1987,-6.1985,-6.1821,-6.1513,-6.1118,-6.0588,-6.025,-6.0283,-6.0588,-6.0588,-6.0757,-6.1134,-6.2081,-6.2547,-6.2621,-6.3904,-6.4944,-6.563,-6.4566,-6.5362,-6.7047,-6.744,-6.7453,-6.723,-6.7251,-6.7489,-6.7861,-6.8436,-6.9316,-7.0331,-7.1075,-7.1312,-7.1312,-7.1312,-7.1312,-7.1312,-7.1312,-7.1312,-7.1312,-7.1312,-7.1312,-7.1312,-7.1312,-7.1075,-7.0838,-7.0838,-7.0601,-7.0567,-7.121,-7.0939,-7.0804,-7.1244,-7.1312,-7.1312,-7.1312,-7.1312,-7.1312,-7.1312,-7.1312,-7.1312,-7.1312,-7.1312,-7.1312,-7.1312,-7.1312,-7.1109,-7.0669,-7.0364,-6.962,-6.8436,-6.8064,-6.6896,-6.4869,-6.4368,-6.3324,-6.1761,-6.069,-6.0484,-6.731,0.0,0.0,0.0,0.0,0.0,0.0,0.0,0.0,0.0,0.0,0.0,0.0,0.0,0.0,-5.8033,0.0,-5.7703,0.0,0.0,0.0,0.0,0.0,0.0,0.0,-5.6867,-5.708,-5.6509,-5.743,-5.8251,-5.8759,-5.9556,-6.0326,-6.1077,-6.1671,-6.1782,-6.143,-6.143,-6.112,-6.0482,-6.0277,-6.0277,-6.0482,-6.0724,-6.0827,-6.0861,-6.2543,-6.3136,-6.3031,-6.4716,-6.5811,-6.6283,-6.4935,-6.4918,-6.5712,-6.5987,-6.5944,-6.5764,-6.6305,-6.6779,-6.7354,-6.891,-6.9755,-7.0331,-7.1075,-7.1312,-7.1312,-7.1312,-7.1312,-7.1312,-7.1312,-7.1312,-7.1312,-7.1312,-7.1312,-7.1312,-7.1312,-7.1142,-7.1007,-7.1007,-7.0838,-7.077,-7.0973,-7.0737,-7.0669,-7.1244,-7.1312,-7.1312,-7.1312,-7.1312,-7.1312,-7.1312,-7.1312,-7.1312,-7.1312,-7.1312,-7.1312,-7.1312,-7.1109,-7.077,-7.0195,-6.9789,-6.9045,-6.7929,-6.7895,-6.7103,-6.5426,-6.5279,-6.461,-6.3529,-6.2193,-6.1746,0.0,0.0,0.0,-6.8641,0.0,0.0,0.0,0.0,-6.5668,0.0,0.0,0.0,0.0,0.0,-5.8891,-5.8143,-5.7997,0.0,0.0,0.0,0.0,0.0,0.0,0.0,0.0,-5.52,-5.5676,0.0,-5.7107,-5.8,-5.8037,-5.8812,-5.9574,-6.0312,-6.038,-6.0697,-6.1376,-6.1439,-6.1471,-6.1439,-6.0728,-6.0764,-6.1475,-6.2248,-6.2602,-6.2608,-6.4226,-6.4473,-6.3904,-6.5612,-6.6374,-6.6404,-6.6344,-6.5815,-6.4908,-6.3974,-6.4519,-6.5696,-6.573,-6.6677,-6.8132,-6.9654,-7.0161,-7.0331,-7.1075,-7.1312,-7.1312,-7.1312,-7.1312,-7.1312,-7.1312,-7.1312,-7.1312,-7.1312,-7.1312,-7.1312,-7.1312,-7.0737,-7.0229,-7.0229,-6.9654,-6.9417,-7.0094,-7.0804,-7.1278,-7.1312,-7.1312,-7.1312,-7.1312,-7.1312,-7.1312,-7.1312,-7.1312,-7.1312,-7.1312,-7.1312,-7.1312,-7.1312,-7.0635,-7.0195,-7.0195,-6.8774,-6.7963,-6.7895,-6.7895,-6.7557,-6.6728,-6.6246,-6.5593,-6.4823,-6.3497,-6.3591,-7.1957,-7.2863,-7.367,-7.0146,0.0,0.0,0.0,0.0,0.0,0.0,0.0,0.0,0.0,-5.9551,-5.8927,-5.8143,-5.7997,-5.7519,0.0,0.0,0.0,0.0,0.0,0.0,0.0,0.0,0.0,0.0,-5.5794,-5.6638,-5.7189,-5.7969,-5.8738,-5.9552,-6.0622,-6.1037,-6.0755,-6.1286,-6.1301,-6.0755,-6.0508,-6.0508,-6.0791,-6.1632,-6.1951,-6.2057,-6.4179,-6.4997,-6.4878,-6.6547,-6.7258,-6.7202,-6.6612,-6.5842,-6.4972,-6.4514,-6.4327,-6.4377,-6.5358,-6.6677,-6.7996,-6.8504,-6.935,-7.0229,-7.05,-7.0906,-7.1312,-7.1312,-7.1312,-7.1312,-7.1312,-7.1312,-7.1312,-7.1312,-7.1312,-7.1312,-7.1312,-7.1109,-7.0939,-7.0939,-7.0737,-7.0635,-7.0872,-7.1142,-7.1312,-7.1312,-7.1312,-7.1312,-7.1312,-7.1312,-7.1312,-7.1312,-7.1312,-7.1312,-7.1312,-7.1312,-7.1312,-7.1312,-7.0601,-6.9958,-6.9485,-6.8977,-6.8436,-6.7895,-6.7895,-6.803,-6.8335,-6.7608,-6.7399,-6.7668,-6.7235,-6.6266,-7.2936,-7.367,-7.4258,-7.1615,-7.1358,-7.1027,-6.8385,0.0,-6.7577,0.0,0.0,0.0,0.0,0.0,-5.9355,-5.8547,-5.818,-5.7446,0.0,-5.4473,0.0,0.0,0.0,0.0,0.0,0.0,0.0,-5.3995,-5.473,-5.55,0.0,-5.7152,-5.796,-5.8767,-6.0346,-6.0895,-6.0399,-6.1478,-6.1742,-6.1265,-6.1581,-6.1724,-6.176,-6.2867,-6.3046,-6.2644,-6.504,-6.5747,-6.5375,-6.7012,-6.7687,-6.766,-6.7089,-6.6089,-6.497,-6.4529,-6.4187,-6.414,-6.5865,-6.7083,-6.7963,-6.8233,-6.918,-7.0195,-7.0195,-7.0737,-7.1278,-7.0973,-7.1109,-7.1244,-7.0973,-7.1109,-7.1312,-7.1312,-7.1312,-7.1312,-7.1312,-7.1312,-7.1312,-7.1312,-7.1312,-7.1312,-7.1312,-7.1312,-7.1312,-7.1312,-7.1312,-7.1312,-7.1312,-7.1312,-7.1312,-7.1312,-7.1312,-7.1312,-7.1312,-7.1312,-7.1312,-7.1312,-7.0601,-6.9992,-6.9519,-6.9248,-6.8977,-6.8707,-6.8707,-6.8977,-6.9485,-6.8977,-6.8842,-6.9113,-6.9113,-6.7978]},{"header":{"parameterUnit":"m.s-1","parameterCategory":1,"la1":30.6,"la2":29.2853,"lo1":-89.7004,"lo2":-87.6739,"dy":0.0162,"dx":0.0183,"nx":112,"ny":82,"refTime":"2024-05-12T18:00:00:Z","depth":0,"parameterNumber":3,"parameterNumberName":"V-component_of_WINDS"},"data":[0.0,0.0,0.0,0.0,0.0,0.0,0.0,0.0,0.0,0.0,0.0,0.0,0.0,0.0,0.0,0.0,0.0,0.0,0.0,0.0,0.0,0.0,0.0,0.0,0.0,0.0,0.0,0.0,0.0,0.0,0.0,0.0,0.0,0.0,0.0,0.0,0.0,0.0,0.0,0.0,0.0,0.0,0.0,0.0,0.0,0.0,0.0,0.0,0.0,0.0,0.0,0.0,0.0,0.0,0.0,0.0,0.0,0.0,0.0,0.0,0.0,0.0,0.0,0.0,0.0,0.0,0.0,0.0,0.0,0.0,0.0,0.0,0.0,0.0,0.0,0.0,0.0,0.0,0.0,0.0,0.0,0.0,0.0,0.0,0.0,0.0,0.0,0.0,0.0,0.0,3.3599,3.5603,4.0927,4.5124,4.6918,4.6171,4.4293,4.1156,0.0,0.0,0.0,0.0,0.0,0.0,0.0,0.0,0.0,0.0,0.0,0.0,0.0,0.0,0.0,0.0,0.0,0.0,0.0,0.0,0.0,0.0,0.0,0.0,0.0,0.0,0.0,0.0,0.0,0.0,0.0,0.0,0.0,0.0,0.0,0.0,0.0,0.0,0.0,0.0,0.0,0.0,0.0,0.0,0.0,0.0,0.0,0.0,0.0,0.0,0.0,0.0,0.0,0.0,0.0,0.0,0.0,0.0,0.0,0.0,0.0,0.0,0.0,0.0,0.0,0.0,0.0,0.0,0.0,0.0,0.0,0.0,0.0,0.0,0.0,0.0,0.0,0.0,0.0,0.0,0.0,0.0,0.0,0.0,0.0,0.0,0.0,0.0,0.0,0.0,0.0,0.0,0.0,0.0,0.0,0.0,0.0,0.0,0.0,0.0,0.0,0.0,0.0,0.0,3.3666,4.0019,4.1916,4.3698,4.6001,4.2849,4.0321,3.9571,0.0,0.0,0.0,0.0,0.0,0.0,0.0,0.0,0.0,0.0,0.0,0.0,0.0,0.0,0.0,0.0,0.0,0.0,0.0,0.0,0.0,0.0,0.0,0.0,0.0,0.0,0.0,0.0,0.0,0.0,0.0,0.0,0.0,0.0,0.0,0.0,0.0,0.0,0.0,0.0,0.0,0.0,0.0,0.0,0.0,0.0,0.0,0.0,0.0,0.0,0.0,0.0,0.0,0.0,0.0,0.0,0.0,0.0,0.0,0.0,0.0,0.0,0.0,0.0,0.0,0.0,0.0,0.0,0.0,0.0,0.0,0.0,0.0,0.0,0.0,0.0,0.0,0.0,0.0,0.0,0.0,0.0,0.0,0.0,0.0,0.0,0.0,0.0,0.0,0.0,0.0,0.0,0.0,0.0,0.0,0.0,0.0,0.0,0.0,0.0,0.0,0.0,0.0,3.3594,3.6973,4.291,4.3301,4.3977,4.6233,4.2489,3.9797,3.9265,3.7309,0.0,0.0,0.0,0.0,0.0,0.0,0.0,0.0,0.0,0.0,0.0,0.0,0.0,0.0,0.0,0.0,0.0,0.0,0.0,0.0,0.0,0.0,0.0,0.0,0.0,0.0,0.0,0.0,0.0,0.0,0.0,0.0,0.0,0.0,0.0,0.0,0.0,0.0,0.0,0.0,0.0,0.0,0.0,0.0,0.0,0.0,0.0,0.0,0.0,0.0,0.0,0.0,0.0,0.0,0.0,0.0,0.0,0.0,0.0,0.0,0.0,0.0,0.0,0.0,0.0,0.0,0.0,0.0,0.0,0.0,0.0,0.0,0.0,0.0,0.0,0.0,0.0,0.0,0.0,0.0,0.0,0.0,0.0,0.0,0.0,0.0,0.0,0.0,0.0,0.0,0.0,0.0,0.0,0.0,0.0,0.0,0.0,0.0,0.0,0.0,0.0,0.0,3.7949,4.0469,4.4726,4.4297,4.435,4.5839,4.1862,3.8865,3.7997,3.496,0.0,0.0,0.0,0.0,0.0,0.0,0.0,0.0,0.0,0.0,0.0,0.0,0.0,0.0,0.0,0.0,0.0,0.0,0.0,0.0,0.0,0.0,0.0,0.0,0.0,0.0,0.0,0.0,0.0,0.0,0.0,0.0,0.0,0.0,0.0,0.0,0.0,0.0,0.0,0.0,0.0,0.0,0.0,0.0,0.0,0.0,0.0,0.0,0.0,0.0,0.0,0.0,0.0,0.0,0.0,0.0,0.0,0.0,0.0,0.0,0.0,0.0,0.0,0.0,0.0,0.0,0.0,0.0,0.0,0.0,0.0,0.0,0.0,0.0,0.0,0.0,0.0,0.0,0.0,0.0,0.0,0.0,0.0,0.0,0.0,0.0,0.0,0.0,0.0,0.0,0.0,0.0,0.0,0.0,0.0,0.0,0.0,0.0,0.0,0.0,0.0,0.0,3.8769,4.2578,4.5332,4.4473,4.3793,4.3856,3.8987,3.5413,3.4271,3.0756,0.0,0.0,0.0,0.0,0.0,0.0,0.0,0.0,0.0,0.0,0.0,0.0,0.0,0.0,0.0,0.0,0.0,0.0,0.0,0.0,0.0,0.0,0.0,0.0,0.0,0.0,0.0,0.0,0.0,0.0,0.0,0.0,0.0,0.0,0.0,0.0,0.0,0.0,0.0,0.0,0.0,0.0,0.0,0.0,0.0,0.0,0.0,0.0,0.0,0.0,0.0,0.0,0.0,0.0,0.0,0.0,0.0,0.0,0.0,0.0,0.0,0.0,0.0,0.0,0.0,0.0,0.0,0.0,0.0,0.0,0.0,0.0,0.0,0.0,0.0,0.0,0.0,0.0,0.0,0.0,0.0,0.0,0.0,0.0,0.0,0.0,0.0,0.0,0.0,0.0,0.0,0.0,0.0,0.0,0.0,0.0,0.0,0.0,0.0,0.0,0.0,0.0,3.8809,4.2402,0.0,4.459,4.3906,4.3359,3.9597,3.6226,3.3935,0.0,0.0,0.0,0.0,0.0,0.0,0.0,0.0,0.0,0.0,0.0,0.0,0.0,0.0,0.0,0.0,0.0,0.0,0.0,0.0,0.0,0.0,0.0,0.0,0.0,0.0,0.0,0.0,0.0,0.0,0.0,0.0,0.0,0.0,0.0,0.0,0.0,0.0,0.0,0.0,0.0,0.0,0.0,0.0,0.0,0.0,0.0,0.0,0.0,0.0,0.0,0.0,0.0,0.0,0.0,0.0,0.0,0.0,0.0,0.0,0.0,0.0,0.0,0.0,0.0,0.0,0.0,0.0,0.0,0.0,0.0,0.0,0.0,0.0,0.0,0.0,0.0,0.0,0.0,0.0,0.0,0.0,0.0,0.0,0.0,0.0,0.0,0.0,0.0,0.0,0.0,0.0,0.0,0.0,0.0,0.0,0.0,0.0,0.0,0.0,0.0,0.0,3.4902,3.9004,4.2402,0.0,4.4316,4.3613,4.2754,3.9029,3.5654,3.3234,0.0,0.0,0.0,0.0,0.0,0.0,0.0,0.0,0.0,0.0,0.0,0.0,0.0,0.0,0.0,0.0,0.0,0.0,0.0,0.0,0.0,0.0,0.0,0.0,0.0,0.0,0.0,0.0,0.0,0.0,0.0,0.0,0.0,0.0,0.0,0.0,0.0,0.0,0.0,0.0,0.0,0.0,0.0,0.0,0.0,0.0,0.0,0.0,0.0,0.0,0.0,0.0,0.0,0.0,0.0,0.0,0.0,0.0,0.0,0.0,0.0,0.0,0.0,0.0,0.0,0.0,0.0,0.0,0.0,0.0,0.0,0.0,0.0,0.0,0.0,0.0,0.0,0.0,0.0,0.0,0.0,0.0,0.0,0.0,0.0,0.0,0.0,0.0,0.0,0.0,0.0,0.0,0.0,0.0,0.0,0.0,0.0,0.0,0.0,0.0,0.0,0.0,3.5039,3.9492,4.291,4.4238,4.3594,4.2715,4.1875,3.666,3.2891,0.0,0.0,0.0,0.0,0.0,0.0,0.0,0.0,0.0,0.0,0.0,0.0,0.0,0.0,0.0,0.0,0.0,0.0,0.0,0.0,0.0,0.0,0.0,0.0,0.0,0.0,0.0,0.0,0.0,0.0,0.0,0.0,0.0,0.0,0.0,0.0,0.0,0.0,0.0,0.0,0.0,0.0,0.0,0.0,0.0,0.0,0.0,0.0,0.0,0.0,0.0,0.0,0.0,0.0,0.0,0.0,0.0,0.0,0.0,0.0,0.0,0.0,0.0,0.0,0.0,0.0,0.0,0.0,0.0,0.0,0.0,0.0,0.0,0.0,0.0,0.0,0.0,0.0,0.0,0.0,0.0,0.0,0.0,0.0,0.0,0.0,0.0,0.0,0.0,0.0,0.0,0.0,0.0,0.0,0.0,0.0,0.0,0.0,0.0,0.0,0.0,0.0,0.0,3.4219,3.8867,4.2246,4.293,4.2773,4.2285,4.1426,3.7598,3.418,3.168,0.0,0.0,0.0,0.0,0.0,0.0,0.0,0.0,0.0,0.0,0.0,0.0,0.0,0.0,0.0,0.0,0.0,0.0,0.0,0.0,0.0,0.0,0.0,0.0,0.0,0.0,0.0,0.0,0.0,0.0,0.0,0.0,0.0,0.0,0.0,0.0,0.0,0.0,0.0,0.0,0.0,0.0,0.0,0.0,0.0,0.0,0.0,0.0,0.0,0.0,0.0,0.0,0.0,0.0,0.0,0.0,0.0,0.0,0.0,0.0,0.0,0.0,0.0,0.0,0.0,0.0,0.0,0.0,0.0,0.0,0.0,0.0,0.0,0.0,0.0,0.0,0.0,0.0,0.0,0.0,0.0,0.0,0.0,0.0,0.0,0.0,0.0,0.0,0.0,0.0,0.0,0.0,0.0,0.0,0.0,0.0,0.0,0.0,0.0,0.0,0.0,0.0,3.3848,3.8301,4.1523,4.2109,4.2168,4.1836,4.0996,3.8066,3.4922,3.1719,0.0,0.0,0.0,0.0,0.0,0.0,0.0,0.0,0.0,0.0,0.0,0.0,0.0,0.0,0.0,0.0,0.0,0.0,0.0,0.0,0.0,0.0,0.0,0.0,0.0,0.0,0.0,0.0,0.0,0.0,0.0,0.0,0.0,0.0,0.0,0.0,0.0,0.0,0.0,0.0,0.0,0.0,0.0,0.0,0.0,0.0,0.0,0.0,0.0,0.0,0.0,0.0,0.0,0.0,0.0,0.0,0.0,0.0,0.0,0.0,0.0,0.0,0.0,0.0,0.0,0.0,0.0,0.0,0.0,0.0,0.0,0.0,0.0,0.0,0.0,0.0,0.0,0.0,0.0,0.0,0.0,0.0,0.0,0.0,0.0,0.0,0.0,0.0,0.0,0.0,0.0,0.0,0.0,0.0,0.0,0.0,0.0,0.0,0.0,0.0,0.0,0.0,3.3789,3.7715,4.0703,4.1641,4.1738,4.1387,4.0527,3.8203,3.5312,3.1855,0.0,0.0,0.0,0.0,0.0,0.0,0.0,0.0,0.0,0.0,0.0,0.0,0.0,0.0,0.0,0.0,0.0,0.0,0.0,0.0,0.0,0.0,0.0,0.0,0.0,0.0,0.0,0.0,0.0,0.0,0.0,0.0,0.0,0.0,0.0,0.0,0.0,0.0,0.0,0.0,0.0,0.0,0.0,0.0,0.0,0.0,0.0,0.0,0.0,0.0,0.0,0.0,0.0,0.0,0.0,0.0,0.0,0.0,0.0,0.0,2.1897,2.2153,0.0,0.0,0.0,0.0,0.0,0.0,0.0,0.0,0.0,0.0,0.0,0.0,0.0,0.0,0.0,0.0,0.0,0.0,0.0,0.0,0.0,0.0,0.0,0.0,0.0,0.0,0.0,0.0,0.0,0.0,0.0,0.0,0.0,0.0,0.0,0.0,0.0,0.0,0.0,0.0,3.3301,3.6738,3.959,4.1133,4.1308,4.0957,4.0098,3.8574,3.6191,3.2734,3.0098,0.0,0.0,0.0,0.0,0.0,0.0,0.0,0.0,0.0,0.0,0.0,0.0,0.0,0.0,0.0,0.0,0.0,0.0,0.0,0.0,0.0,0.0,0.0,0.0,0.0,0.0,0.0,0.0,0.0,0.0,0.0,0.0,0.0,0.0,0.0,0.0,0.0,0.0,0.0,0.0,0.0,0.0,0.0,0.0,0.0,0.0,0.0,0.0,0.0,0.0,0.0,0.0,0.0,0.0,0.0,0.0,0.0,0.0,0.0,2.5003,2.5286,0.0,0.0,0.0,0.0,0.0,0.0,0.0,0.0,0.0,0.0,0.0,0.0,0.0,0.0,0.0,0.0,0.0,0.0,0.0,0.0,0.0,0.0,0.0,0.0,0.0,0.0,0.0,0.0,0.0,0.0,0.0,0.0,0.0,0.0,0.0,0.0,0.0,0.0,0.0,0.0,3.3437,3.6387,3.9004,4.0957,4.1172,4.0918,4.0254,3.8984,3.6855,3.3613,3.1172,0.0,0.0,0.0,0.0,0.0,0.0,0.0,0.0,0.0,0.0,0.0,0.0,0.0,0.0,0.0,0.0,0.0,0.0,0.0,0.0,0.0,0.0,0.0,0.0,0.0,0.0,0.0,0.0,0.0,0.0,0.0,0.0,0.0,0.0,0.0,0.0,0.0,0.0,0.0,0.0,0.0,0.0,0.0,0.0,0.0,0.0,0.0,0.0,0.0,0.0,0.0,0.0,0.0,2.6466,2.7054,2.7522,2.7762,2.7909,2.8036,2.893,2.9357,2.9372,2.8789,0.0,0.0,0.0,0.0,0.0,0.0,0.0,0.0,0.0,0.0,0.0,0.0,0.0,0.0,0.0,0.0,0.0,0.0,0.0,0.0,0.0,0.0,3.3633,3.4258,3.5019,3.4492,3.041,0.0,0.0,0.0,0.0,0.0,0.0,0.0,0.0,0.0,0.0,0.0,3.375,3.6328,3.8769,4.0937,4.1113,4.0879,4.0449,3.9277,3.7383,3.459,3.2402,2.9805,0.0,0.0,0.0,0.0,0.0,0.0,0.0,0.0,0.0,0.0,0.0,0.0,0.0,0.0,0.0,0.0,0.0,0.0,0.0,0.0,0.0,0.0,0.0,0.0,0.0,0.0,0.0,0.0,0.0,0.0,0.0,0.0,2.2298,2.2592,0.0,0.0,0.0,0.0,0.0,0.0,0.0,0.0,0.0,0.0,0.0,0.0,0.0,2.5772,2.636,2.7722,2.8444,2.8537,2.9633,3.0194,3.0274,3.0314,3.0461,3.0794,3.3129,0.0,3.1072,2.8392,0.0,0.0,0.0,0.0,0.0,0.0,0.0,0.0,0.0,0.0,0.0,0.0,0.0,0.0,0.0,0.0,0.0,0.0,0.0,0.0,0.0,0.0,3.6094,3.582,3.6152,3.6133,3.4746,3.248,3.0293,2.8867,2.748,0.0,0.0,0.0,0.0,0.0,0.0,0.0,3.3789,3.6328,3.8769,4.0937,4.084,4.0449,4.0019,3.9121,3.7773,3.5879,3.375,3.168,2.967,2.7324,0.0,0.0,0.0,0.0,0.0,0.0,0.0,0.0,0.0,0.0,0.0,0.0,0.0,0.0,0.0,0.0,0.0,0.0,0.0,0.0,0.0,0.0,0.0,0.0,0.0,0.0,0.0,0.0,0.0,2.2859,2.3714,2.318,2.3701,2.389,0.0,0.0,0.0,0.0,0.0,0.0,0.0,0.0,0.0,3.0533,3.0093,2.9508,2.8804,2.978,3.0434,3.0768,3.1784,3.2438,3.2786,3.2946,3.3093,3.3313,3.4237,3.5341,3.6187,3.2744,3.0262,2.8616,0.0,0.0,0.0,0.0,2.9192,3.1385,3.2665,3.3762,3.4507,3.4545,0.0,0.0,0.0,0.0,0.0,0.0,0.0,3.375,3.4785,3.6387,3.7812,3.8125,3.8711,3.8965,3.8105,3.6113,3.375,3.123,3.0137,2.9316,2.834,0.0,0.0,0.0,0.0,3.2187,3.4824,3.6992,3.8945,4.0625,4.0644,4.0254,3.957,3.8945,3.7851,3.6133,3.4434,3.2519,3.0312,2.8672,2.6953,0.0,0.0,0.0,0.0,0.0,0.0,0.0,0.0,0.0,0.0,0.0,0.0,0.0,0.0,0.0,0.0,0.0,0.0,0.0,0.0,0.0,0.0,0.0,0.0,0.0,0.0,0.0,0.0,2.4088,2.4957,2.3995,2.505,2.5104,0.0,0.0,0.0,0.0,0.0,0.0,3.0275,3.036,3.1265,3.3252,3.3013,3.2375,3.1343,3.1837,3.2425,3.3013,3.3668,3.4295,3.4883,3.5669,3.5696,3.5068,3.6182,3.7873,3.9644,3.5779,3.2975,3.1022,3.0209,2.8935,2.8057,3.098,3.3433,3.554,3.7053,3.7891,3.8173,3.7353,3.6213,3.4824,3.2676,0.0,0.0,0.0,0.0,3.5195,3.7129,3.8184,3.8984,3.998,4.0703,4.0976,4.0215,3.8867,3.6836,3.3613,3.2637,3.1855,3.0332,0.0,0.0,0.0,0.0,3.3437,3.6016,3.7851,3.9336,4.041,4.043,4.0,3.9121,3.8555,3.7617,3.6113,3.4902,3.3262,3.1113,2.998,2.8359,2.6094,0.0,0.0,0.0,0.0,0.0,0.0,0.0,0.0,0.0,0.0,0.0,0.0,0.0,0.0,0.0,0.0,0.0,0.0,0.0,0.0,0.0,0.0,0.0,0.0,0.0,0.0,0.0,0.0,0.0,2.5438,2.6934,0.0,0.0,0.0,0.0,2.5876,2.7216,2.9241,3.2217,3.1142,3.19,3.5295,3.3865,3.3278,3.3708,3.4295,3.4883,3.5444,3.5498,3.5832,3.6489,3.8537,3.8053,3.5884,4.0775,4.1335,3.8549,3.4818,3.4503,3.6006,3.1467,2.9617,2.9952,3.2905,3.5652,3.7775,3.8025,3.7872,3.7586,3.7908,3.8191,3.8164,3.7226,3.6387,0.0,0.0,3.6123,3.6836,3.8164,3.8828,3.9492,4.0801,4.1152,4.1055,4.0586,3.9766,3.834,0.0,3.3887,3.248,3.1582,0.0,3.2033,3.2031,3.3848,3.5703,3.7051,3.875,4.0019,4.0469,4.0156,3.957,3.8691,3.7851,3.6973,3.6074,3.5176,3.4238,3.3301,3.168,3.0137,2.875,2.6738,0.0,0.0,0.0,0.0,0.0,0.0,0.0,0.0,0.0,0.0,0.0,0.0,0.0,0.0,0.0,0.0,0.0,0.0,0.0,0.0,0.0,0.0,0.0,0.0,0.0,0.0,0.0,0.0,2.8577,2.9847,0.0,2.8203,2.8497,2.8871,2.9058,3.0434,3.2758,3.6038,3.6021,3.6722,3.831,3.7736,3.6789,3.5565,3.5404,3.5525,3.5912,3.5725,3.6769,3.8833,3.9431,4.0166,4.097,4.255,4.3657,4.4008,4.0497,3.8041,3.6584,3.5756,3.417,3.2991,3.7451,3.9819,4.0797,4.0884,4.0633,4.0036,3.7641,3.6258,3.5643,3.6302,3.6465,3.6601,3.7441,3.7969,3.8594,3.9902,4.0351,4.0586,4.1055,4.1172,4.1133,4.0976,4.0254,3.9375,3.8476,3.6445,3.4687,3.4101,3.3672,3.3594,3.416,3.5371,3.668,3.7949,3.9394,4.0254,4.0137,3.9726,3.9101,3.8223,3.6875,3.582,3.5215,3.4101,3.3086,3.2226,3.1348,3.0137,2.8555,2.7773,2.6406,0.0,0.0,0.0,0.0,0.0,0.0,0.0,0.0,0.0,0.0,0.0,0.0,0.0,0.0,0.0,0.0,0.0,0.0,0.0,0.0,0.0,0.0,0.0,0.0,0.0,0.0,3.0181,3.0862,3.2332,3.2706,3.1236,3.173,3.2211,3.2412,3.3601,3.5431,3.7767,3.8201,3.8454,3.8869,3.8883,3.8049,3.6366,3.7016,3.7377,3.7585,3.8212,3.9563,4.1633,4.2213,4.2937,4.3847,4.5407,4.6481,4.7032,4.5709,4.2981,3.9578,3.8476,3.6358,3.4356,3.8722,4.0427,4.0612,4.0451,3.9875,3.8859,3.6191,3.5295,3.5492,3.6473,3.747,3.8359,3.9219,3.9648,4.0059,4.0957,4.1172,4.1172,4.1172,4.1172,4.1133,4.0976,4.0391,3.9844,3.9687,3.8164,3.6699,3.6133,3.5664,3.5566,3.6152,3.6973,3.793,3.9082,3.998,4.0293,3.9726,3.9258,3.8535,3.7383,3.6133,3.5019,3.4121,3.2988,3.1973,3.1113,3.0664,2.9824,2.8535,2.7949,2.6582,2.4414,0.0,0.0,0.0,0.0,0.0,0.0,0.0,0.0,0.0,0.0,0.0,0.0,0.0,0.0,0.0,0.0,0.0,0.0,0.0,0.0,0.0,0.0,0.0,2.7281,2.99,3.1864,3.2225,3.4309,3.5151,3.3721,3.4883,3.5725,3.5725,3.654,3.7168,3.7422,3.7155,3.7008,3.7008,3.6981,3.6687,3.6126,3.9113,4.0613,4.0613,4.2971,4.4348,4.4765,4.6845,4.6412,4.4342,4.9268,4.9677,4.7082,4.9684,4.8804,4.5197,3.9557,3.5847,3.4,3.6509,3.7395,3.7305,3.6727,3.5365,3.3884,3.3635,3.5719,3.8285,3.833,3.9711,4.1211,4.1191,4.1191,4.1191,4.1191,4.1191,4.1172,4.1172,4.1172,4.1055,4.0644,4.0215,3.9785,3.9336,3.8906,3.834,3.748,3.7676,3.7969,3.7969,3.8691,0.0,4.0391,4.0488,4.0156,3.9277,3.8789,3.7851,3.6152,3.5566,3.457,3.2851,3.1914,3.1035,3.0176,2.9726,2.9316,2.8887,2.7226,2.5742,2.4473,0.0,0.0,0.0,0.0,0.0,0.0,0.0,0.0,0.0,0.0,0.0,0.0,0.0,0.0,0.0,0.0,0.0,0.0,0.0,0.0,0.0,2.7776,2.97,3.0368,3.2091,3.3935,3.5712,3.6874,3.7448,3.7275,3.7635,3.7889,3.7889,3.8504,3.8798,3.8678,3.8571,3.8464,3.825,3.7809,3.7382,3.7021,3.9214,4.027,4.0255,4.2469,4.4717,4.693,4.7361,4.8142,4.9367,5.0763,5.0785,4.9665,5.0182,4.8538,4.5311,4.1893,3.9929,3.9123,3.9884,4.0013,3.9739,3.9366,3.6227,3.2491,3.3332,3.5193,3.725,3.8075,4.0104,4.2012,4.1719,4.1621,4.1621,4.1621,4.1406,4.1172,4.1172,4.1172,4.1133,4.1016,4.0664,4.0312,4.0176,3.9824,3.9258,3.8379,3.8574,3.8848,3.8848,3.9336,0.0,4.0039,3.9766,3.9355,3.8809,3.8086,3.709,3.5684,3.4023,3.2578,3.1484,3.0,2.9062,2.8828,2.8418,2.8178,2.8008,2.6621,2.5898,0.0,0.0,0.0,0.0,0.0,0.0,0.0,0.0,0.0,0.0,0.0,0.0,0.0,0.0,0.0,0.0,0.0,0.0,0.0,0.0,0.0,0.0,2.9913,3.2211,3.3668,3.4723,3.5992,3.7742,3.8584,3.9132,3.9426,3.9452,3.9452,3.9452,3.9666,3.9666,3.9346,3.9225,3.8972,3.8544,3.8183,3.828,3.8916,4.0902,4.2488,4.3332,4.5628,4.7591,4.9337,4.9114,4.9904,5.1426,5.1426,5.1094,5.0527,5.0273,4.8917,4.682,0.0,0.0,0.0,0.0,4.0908,4.045,3.9145,3.6254,3.3117,3.2718,3.4393,3.6715,3.7416,3.9832,4.2344,4.1914,4.1797,4.1758,4.1582,4.1348,4.1172,4.1172,4.1172,4.1172,4.1172,4.084,4.0527,4.0527,4.0176,0.0,3.9219,3.9336,3.9551,3.9726,3.9844,3.9902,3.9902,3.9336,3.8711,3.8105,3.7266,3.6309,3.5195,3.3457,0.0,0.0,0.0,2.8398,2.8047,2.7617,0.0,0.0,0.0,2.6406,2.6641,2.4461,0.0,0.0,2.3126,2.351,0.0,0.0,0.0,0.0,0.0,0.0,0.0,0.0,0.0,0.0,0.0,0.0,0.0,0.0,0.0,0.0,3.1917,3.4162,3.6687,3.7382,3.7929,3.8731,3.9559,4.0187,4.0441,4.0481,4.0481,4.0481,4.0214,3.996,3.9666,3.9372,0.0,0.0,0.0,3.8998,4.0482,4.3178,4.5459,4.7339,5.0113,5.1426,5.1426,5.1426,5.1426,5.1426,5.1426,5.0957,5.0176,5.0176,4.9648,4.8663,4.6336,4.3927,4.162,4.2003,4.1577,4.064,3.8118,0.0,0.0,3.2426,3.381,3.6389,3.667,3.924,4.2136,4.1991,4.1914,4.1777,4.1348,4.1211,4.1172,4.1172,4.1172,4.1172,4.1172,4.0879,4.0586,4.0586,4.0293,4.0019,3.998,3.9961,4.0078,4.041,4.0098,3.9805,3.9746,3.8945,3.8066,3.7305,0.0,0.0,3.4707,3.3418,3.2129,3.0898,2.957,2.8516,2.7826,2.7324,2.7285,2.7787,2.7305,2.7109,2.7168,2.5696,2.4385,2.3217,2.2114,2.274,0.0,0.0,0.0,0.0,0.0,0.0,0.0,0.0,0.0,0.0,0.0,0.0,0.0,0.0,0.0,3.1316,3.3614,3.5712,3.7408,3.8544,3.9239,3.9412,4.0,4.0401,4.0481,4.0481,4.0481,4.0481,4.0441,4.0254,3.996,3.9666,3.9239,3.8651,3.8143,3.7821,3.7715,4.2092,4.4396,4.4682,4.9188,0.0,5.1426,5.1426,5.1426,5.1426,5.1426,5.0957,5.0176,5.0176,4.9648,4.8848,4.8366,4.6542,4.4494,4.6635,4.589,4.3683,4.2812,3.9583,3.5716,3.4577,3.4542,3.5362,3.6755,3.8994,0.0,4.2539,4.2578,4.2207,4.1797,4.1426,4.1172,4.1172,4.1172,4.1172,4.1172,4.1113,4.1055,4.1055,4.0976,4.082,4.0469,4.041,4.0312,4.0059,3.9629,3.9219,3.8867,3.7793,3.6973,3.6816,3.6035,3.5156,3.4258,3.2695,3.1348,3.0391,2.9121,2.834,2.8184,2.7773,2.7734,2.8164,2.7754,2.7715,2.8047,2.6675,2.5212,2.3651,2.2753,2.2914,0.0,0.0,0.0,0.0,0.0,0.0,0.0,0.0,0.0,0.0,0.0,2.6707,2.7749,0.0,3.1196,3.312,3.5044,3.6754,3.8076,3.9052,3.964,3.9813,4.0214,4.0481,4.0481,4.0481,4.0481,4.0481,4.0334,4.0107,3.9813,3.9519,3.9159,3.8731,3.8143,3.8257,3.922,4.1165,4.2669,4.3863,4.7564,4.9395,4.9395,5.0822,5.1426,5.1426,5.1211,5.005,4.8251,4.7818,4.731,4.7102,4.8366,4.8088,4.7102,4.8459,4.7684,4.5884,4.4435,4.1844,3.8824,3.6006,3.57,3.6668,3.7574,3.9164,4.105,4.2645,4.2754,4.2285,4.166,4.1328,4.1172,4.1172,4.1172,4.1172,4.1172,4.1172,4.1172,4.1172,4.0996,4.0781,4.0566,4.0156,3.9785,3.957,3.918,3.8652,3.8008,3.7187,3.6504,3.6074,3.5449,3.4785,3.4121,3.25,3.123,3.0586,2.9531,2.8926,2.8926,2.8516,2.8496,2.8926,2.8516,2.8496,2.8926,2.7307,2.5687,2.4142,2.2712,2.226,0.0,0.0,0.0,0.0,0.0,0.0,0.0,0.0,2.648,2.7468,2.815,2.8978,3.0354,3.1704,3.316,3.483,3.6233,3.7489,3.8571,3.9199,3.964,3.992,4.0254,4.0441,4.0401,4.0401,4.0401,4.0401,4.0107,3.9813,3.9533,3.9306,3.8895,3.8651,3.8143,3.883,4.0635,4.0438,4.1209,4.3251,4.6153,4.76,4.7699,5.037,5.1562,5.1523,5.0436,4.8244,4.5336,4.4608,4.4512,4.5191,4.7307,4.8459,4.8867,4.8867,4.8418,4.7522,4.5367,4.3851,4.2191,3.8019,3.752,3.8457,3.8457,3.9559,4.1074,4.2163,4.2488,4.2226,4.1387,4.1172,4.1172,4.1172,4.1172,4.1172,4.1172,4.1113,4.1055,4.1055,4.0703,4.0371,4.0273,3.9668,3.918,3.9101,3.8652,3.8047,3.7266,3.6738,3.6152,3.5469,3.4902,3.4375,3.3867,3.2559,3.1543,3.1055,3.0351,2.9922,2.988,2.9394,2.9375,2.9824,2.9394,2.9336,2.9687,2.8127,2.6522,2.4878,2.3121,2.2082,2.664,2.5558,2.5024,2.6226,2.5825,2.5798,0.0,0.0,2.9045,3.0448,3.1196,3.1904,3.2866,3.3814,3.487,3.6112,3.7088,3.7956,3.8611,3.9012,3.9306,3.9599,4.0147,4.0361,4.0107,4.0067,4.0067,4.0067,3.9813,3.9519,3.9225,3.9159,3.8905,3.833,3.825,3.817,3.7816,3.9928,4.0944,4.1043,4.6011,4.8429,4.8411,5.0942,5.2012,5.1835,4.8349,4.5063,4.2221,4.1787,4.2976,4.502,4.5285,4.6822,4.8867,4.8867,4.8808,4.8594,4.7561,4.5709,4.3559,4.2208,4.0503,3.8927,3.8927,4.0043,4.1233,4.059,4.1354,4.2226,4.1387,4.1172,4.1172,4.1172,4.1172,4.1172,4.1172,4.0879,4.0586,4.0586,4.0254,3.9844,3.9414,3.9258,3.9082,3.8691,3.7949,3.7266,3.6797,3.6035,3.5508,3.541,3.4648,3.3809,3.3008,3.2754,3.2305,3.1504,3.1348,3.1133,3.0762,3.0293,3.0273,3.0742,3.0293,3.0078,3.0137,2.9907,2.8672,2.6453,2.5386,2.3858,2.6707,2.6533,2.6694,0.0,2.7362,2.8257,2.9673,3.0287,3.0942,3.2238,3.2973,3.3721,3.4776,3.5551,3.6353,0.0,3.7996,3.8544,3.9159,3.9052,3.8825,3.8584,3.8771,3.9159,3.9706,3.9786,3.9786,3.9786,3.9519,3.9306,3.9159,3.8895,3.8798,3.8544,3.837,3.8143,3.7889,3.8432,3.858,3.8468,4.1751,4.4181,4.584,4.8216,4.91,4.8401,4.3492,4.0542,3.9132,3.8991,4.0464,4.2976,4.4418,4.6616,4.8828,4.8574,4.832,4.8027,4.7402,4.6388,4.4975,4.2922,4.1568,4.0713,4.0505,4.0684,4.1134,4.1694,4.214,4.2226,4.1387,4.1172,4.1172,4.1172,4.1172,4.1172,4.1172,4.1035,4.082,4.0566,4.0176,3.9746,3.9277,3.8789,3.832,3.7891,3.7519,3.7051,3.6387,3.5762,3.5195,3.4687,3.4062,3.3555,3.3184,3.2715,3.2285,3.1914,3.1426,3.1074,3.0898,3.0703,3.0703,3.0879,3.0703,3.0605,3.0605,3.0078,2.8898,2.7058,2.6408,2.4647,2.7068,2.7562,0.0,2.7883,2.9112,3.0541,3.1089,3.1891,3.2826,3.3921,3.4563,3.5204,3.6139,3.6794,3.7382,3.8036,3.8544,3.8945,3.9199,3.8798,3.8183,3.7422,3.7195,3.7422,3.829,3.8838,3.9159,3.9346,3.9092,3.8945,3.9052,3.8838,3.8718,3.8718,3.8504,3.833,3.8263,3.7529,3.7088,3.6941,3.9047,4.1007,4.286,4.5257,4.548,4.3746,3.9668,3.7313,3.6214,3.6214,3.7772,4.0271,4.2195,4.4818,4.7561,4.714,4.7347,4.7676,4.7129,4.666,4.5949,4.3721,4.2973,4.2651,4.1644,4.1469,4.16,4.1992,4.2172,4.209,4.1367,4.1172,4.1172,4.1172,4.1172,4.1172,4.1172,4.1074,4.0859,4.043,4.0,3.9551,3.9101,3.8516,3.791,3.7383,3.7305,3.6992,3.6133,3.5664,3.5059,3.416,3.3789,3.3555,3.3437,3.2871,3.2422,3.2187,3.1582,3.1133,3.0898,3.0898,3.0898,3.0898,3.0898,3.082,3.0703,2.9941,2.8989,2.7714,2.6971,2.5388,2.8033,2.8337,2.8858,2.998,3.0942,3.1917,3.308,3.4028,3.491,3.5805,3.6233,3.654,3.6861,3.7382,3.7809,3.7809,3.8571,3.8945,3.837,3.8036,3.7422,3.6259,3.5618,3.5284,0.0,3.6874,3.8103,3.8718,3.8477,3.8397,3.8718,3.8718,3.8718,3.8718,3.8718,3.8584,3.8263,3.7956,3.7489,3.6941,3.9495,4.0632,4.0514,4.2625,4.1622,3.8103,3.8004,3.6234,3.3514,3.3514,3.5054,3.7478,3.7478,4.0445,4.4464,4.3974,4.5664,4.8066,4.7226,4.666,4.623,4.5714,4.5305,4.4508,4.2092,4.2395,4.3035,4.0289,4.0609,4.1719,4.1289,4.1172,4.1172,4.1172,4.1172,4.1172,4.1172,4.084,4.041,4.0,3.9551,3.9082,3.8672,3.8574,3.8262,3.7422,3.7305,3.6992,3.6133,3.5664,3.5059,3.416,3.4062,3.3887,3.3457,3.3398,3.3027,3.2226,3.2209,3.1758,3.0918,3.0898,3.0898,3.0898,3.0898,3.0664,3.0215,2.9785,2.9355,2.8816,2.7234,2.6435,2.8444,2.9659,3.1062,3.1664,3.2772,3.3935,3.471,3.5271,3.5658,3.5765,3.5391,3.5084,3.5177,3.5364,3.5819,3.6794,3.7702,3.825,3.8263,3.8183,3.7382,3.5431,3.5364,0.0,0.0,0.0,0.0,3.7742,3.7929,3.8183,3.8691,3.8718,3.8718,3.8718,3.8718,3.8464,3.7969,3.7676,3.7235,3.6647,3.8773,3.9584,3.9343,3.9682,3.909,3.7775,3.5806,3.4382,3.3414,3.3414,3.4969,3.7267,3.714,3.9084,4.2039,4.31,4.407,4.5122,4.6149,4.623,4.582,4.5391,4.4746,4.3915,4.2857,4.2645,4.2592,4.1342,4.1356,4.1699,4.1289,4.1172,4.1172,4.1172,4.1172,4.1172,4.1172,4.1055,4.082,4.0391,3.9961,3.9512,3.9062,3.875,3.8379,3.7793,3.6992,3.625,3.5684,3.5488,3.5156,3.4551,3.4492,3.4316,3.3887,3.3594,3.3066,3.2226,3.1894,3.1484,3.0918,3.0898,3.0898,3.0898,3.0898,3.082,3.0644,3.0215,2.9766,2.9355,2.9067,2.7996,2.9713,3.1263,3.2879,3.3494,3.4523,3.5511,3.5992,3.6086,3.5925,3.5418,3.4442,3.3627,3.3414,3.3026,3.3334,3.511,3.5872,3.662,3.7635,3.7422,3.662,3.5097,3.487,3.4549,0.0,0.0,0.0,3.6981,3.7448,3.7929,3.8504,3.8651,3.8718,3.8718,3.8611,3.833,3.7809,3.7422,3.6874,3.6179,3.7258,3.763,3.7198,3.6781,3.6464,3.6134,3.4282,3.3414,3.3414,3.3414,3.4317,3.5744,3.5543,3.7409,4.0336,4.1459,4.2946,4.4543,4.584,4.5918,4.5391,4.5117,4.4433,4.3633,4.3203,4.2773,4.2344,4.1914,4.1699,4.1523,4.125,4.1172,4.1172,4.1172,4.1172,4.1172,4.1172,4.1172,4.1035,4.0605,4.0176,3.9746,3.9277,3.873,3.8242,3.7969,3.7109,3.6328,3.5898,3.5859,3.5625,3.5019,3.4941,3.4707,3.4121,3.3809,3.3223,3.2226,3.1914,3.1484,3.0918,3.0898,3.0898,3.0898,3.0898,3.0898,3.0898,3.043,3.0059,2.9805,2.9922,2.9064,3.1664,3.3106,3.4309,3.5431,3.6126,3.6607,3.6861,3.6433,3.5698,3.479,3.34,3.2158,3.153,3.0568,3.0635,3.2946,3.344,3.4322,3.6647,3.6032,3.5324,0.0,0.0,0.0,0.0,0.0,0.0,3.6393,0.0,3.7609,3.8263,3.8584,3.8718,3.8691,3.8397,3.8076,3.7742,3.7155,3.6433,3.5605,3.5311,3.4883,3.4336,3.4309,3.3988,3.3427,3.3414,3.3414,3.3414,3.34,3.3227,3.2973,3.2946,3.5521,3.9244,3.932,4.2225,4.6114,4.6308,4.5742,4.5019,4.5019,4.4414,4.3594,4.3183,4.2734,4.2305,4.1894,4.1484,4.1172,4.1172,4.1172,4.1172,4.1172,4.1172,4.1172,4.1172,4.1172,4.1055,4.0644,4.0215,3.9766,3.9277,3.8535,3.7988,3.7969,3.7617,3.7207,3.6758,3.668,3.6367,3.5547,3.543,3.5039,3.418,3.4082,3.3535,3.2307,3.2229,3.1777,3.0918,3.0898,3.0898,3.0898,3.0898,3.0898,3.0898,3.0449,3.0215,3.0176,2.9805,2.9609,3.3307,3.4937,3.6286,3.6794,3.6874,3.6794,3.6647,3.5485,3.4068,3.2732,3.0942,2.9299,2.8243,2.8724,2.9887,3.1797,3.3774,0.0,3.7048,3.7382,0.0,3.5979,0.0,3.5778,3.5137,3.5338,0.0,0.0,3.6767,3.7275,3.8544,3.8691,3.8611,3.8397,3.8076,3.7569,3.6834,3.6046,3.5525,3.5311,3.5017,3.479,3.4629,3.4202,3.3908,3.3748,3.3507,3.3414,3.3387,3.3173,3.3053,3.2933,3.2492,3.4106,3.6899,3.8489,4.0985,4.3815,4.5656,4.5742,4.5019,4.5019,4.4219,4.3164,4.2715,4.2305,4.1875,4.1445,4.125,4.1172,4.1172,4.1172,4.1172,4.1172,4.1172,4.1172,4.1172,4.1172,4.1133,4.1035,4.0664,4.0117,3.9336,3.9023,3.8769,3.8457,3.832,3.7988,3.7226,3.6875,3.6582,3.6367,3.5781,3.5156,3.459,3.4258,3.3535,3.2307,3.2229,3.1777,3.0918,3.0898,3.0898,3.0898,3.0898,3.0898,3.0898,3.0762,3.0527,3.0195,3.0449,3.0195,3.5378,3.6647,3.7595,3.7889,3.7448,3.6727,3.5925,3.4269,3.2385,3.0501,2.8591,2.6961,2.6039,2.6547,2.7856,0.0,0.0,0.0,3.6687,3.7275,3.7382,0.0,3.7195,0.0,3.6647,3.662,3.6874,0.0,3.7128,3.7382,3.8477,3.8504,3.837,3.8076,3.7662,3.7008,3.6126,3.5511,3.5191,3.5191,3.503,3.4883,3.475,3.4282,3.4002,3.3868,3.3547,3.3334,3.3213,3.3053,3.2826,3.2559,3.2225,3.4164,3.7334,3.8602,4.1259,4.4435,4.5638,4.5586,4.5019,4.5019,4.4277,4.3242,4.2617,4.2266,4.1953,4.1348,4.1172,4.1172,4.1172,4.1172,4.1172,4.1172,4.1172,4.1172,4.1172,4.1172,4.1113,4.0918,4.0684,4.0312,3.9629,3.9336,3.9121,3.8887,3.8691,3.8398,3.791,3.7324,3.6875,3.668,3.6074,3.541,3.4746,3.4473,3.373,3.2266,3.2229,3.1777,3.0918,3.0898,3.0898,3.0898,3.0898,3.0898,3.0898,3.0898,3.0762,3.0508,3.0762,3.0625,3.7448,3.8223,3.8477,3.8691,3.7742,3.638,3.4923,3.2826,3.0568,2.8395,0.0,2.5104,2.4516,2.4556,2.5665,2.8617,0.0,3.2585,3.6179,3.6687,3.7128,3.829,3.8183,3.7996,3.8036,3.7782,3.7823,3.833,3.7863,3.7742,3.8223,3.8263,3.8076,3.7662,3.7088,3.638,3.5578,3.5324,3.5191,3.5191,3.5191,3.5044,3.475,3.4456,3.4162,3.3868,3.3547,3.3267,3.3026,3.2959,3.2625,3.2144,3.2448,3.5217,3.9084,3.9358,4.2371,4.623,4.582,4.5391,4.5019,4.4961,4.4375,4.3555,4.2754,4.2519,4.2344,4.1484,4.125,4.125,4.1191,4.1172,4.1172,4.1172,4.1172,4.1172,4.1172,4.1172,4.1055,4.0684,4.0605,4.0469,4.0059,3.9648,3.9336,3.9219,3.8887,3.8633,3.8574,3.7832,3.7148,3.6797,3.6211,3.5527,3.4766,3.459,3.3848,3.2326,3.2229,3.1777,3.0918,3.0898,3.0898,3.0898,3.0898,3.0898,3.0898,3.0898,3.0898,3.0898,3.0898,3.0918,3.8571,3.9132,3.9265,3.8838,3.7261,3.5471,3.4002,3.1116,0.0,0.0,2.513,2.3888,2.3287,2.4168,2.5972,2.8925,3.0835,0.0,0.0,0.0,3.8036,0.0,0.0,0.0,3.9265,3.9012,0.0,0.0,3.8691,3.8437,3.8263,3.8263,3.7782,3.6767,3.6166,3.5672,3.5271,3.5217,3.5191,3.5191,3.5191,3.5044,3.475,3.4456,3.4162,3.3868,3.3547,0.0,3.3293,3.2826,3.2656,3.2703,3.4145,3.6483,3.9266,4.1259,4.3815,4.623,4.582,4.5391,4.4961,4.4629,4.4141,4.3613,4.3125,4.2969,4.2793,4.1933,4.1699,4.1621,4.1269,4.1172,4.1172,4.1172,4.1172,4.1172,4.1172,4.1172,4.1152,4.1074,4.1055,4.0918,4.0488,4.0351,4.0039,3.9316,3.9141,3.8965,3.8613,3.7832,3.7266,3.7187,3.584,3.4863,3.4707,3.4043,3.3223,3.2226,3.2229,3.1777,3.0918,3.0898,3.0898,3.0898,3.0898,3.0898,3.0898,3.0898,3.0898,3.0898,3.0898,3.1074,3.9519,3.996,3.9853,3.8945,3.6941,3.4629,3.2545,0.0,0.0,0.0,2.4008,2.3207,2.2913,2.4075,0.0,2.7362,2.9125,0.0,0.0,0.0,0.0,0.0,0.0,0.0,0.0,0.0,3.9332,3.9159,3.8905,3.8584,3.8263,3.7676,3.7021,3.6299,3.5712,3.5338,3.5191,3.5191,3.5191,3.5191,3.6621,3.6468,3.4854,3.5958,3.5549,3.3868,3.3547,3.324,3.2933,3.2666,3.2372,3.2339,3.4443,3.6791,3.925,4.1708,4.4188,4.6211,4.5566,4.5195,4.4922,4.4258,4.3887,4.3633,4.3203,4.291,4.2598,4.1973,4.1641,4.1426,4.123,4.1328,4.1445,4.123,4.1172,4.1172,4.1172,4.1172,4.1172,4.1172,4.1172,4.1113,4.0898,4.0664,4.0312,3.9668,3.9355,3.8965,3.832,3.7676,3.7305,3.7305,3.6152,3.5195,3.4746,3.4316,3.3633,3.2559,3.25,3.2207,3.1582,3.1562,3.1445,3.123,3.1211,3.1113,3.0898,3.1113,3.1211,3.123,3.1445,3.166,4.0187,4.0481,4.0187,3.8945,3.6473,3.3708,3.1183,2.8003,0.0,2.3941,2.3247,2.2928,2.2928,2.3821,2.4903,0.0,2.7281,2.9593,0.0,0.0,0.0,0.0,0.0,0.0,0.0,0.0,0.0,3.9068,3.8838,3.8477,3.8183,3.7048,3.634,3.6166,3.5538,3.5231,3.5284,3.5231,3.5191,3.5191,3.7339,3.714,3.476,3.6618,3.6203,3.3774,3.3521,3.3146,3.2719,3.2696,3.2651,3.2857,3.5197,3.762,4.0084,4.2532,4.4649,4.6191,4.5312,4.5019,4.4883,4.3984,4.3711,4.3633,4.3301,4.2969,4.2617,4.2187,4.1777,4.1426,4.1328,4.1484,4.1582,4.125,4.1172,4.1172,4.1172,4.1172,4.1172,4.1172,4.1172,4.1172,4.1172,4.0879,4.0488,3.998,3.959,3.9043,3.8184,3.7617,3.7305,3.7305,3.6445,3.5566,3.4766,3.4609,3.4062,3.2871,3.2793,3.2598,3.2248,3.2229,3.2012,3.166,3.166,3.1484,3.1172,3.1504,3.166,3.166,3.2012,3.2268,4.0294,4.0481,4.012,3.8664,3.5698,3.2585,3.0474,0.0,0.0,2.35,2.31,2.2928,2.2928,2.3048,2.3772,2.5715,2.676,2.8804,0.0,0.0,0.0,0.0,0.0,0.0,0.0,0.0,0.0,3.9068,3.8624,3.8183,3.7889,3.6767,3.6219,3.6473,3.5645,3.5324,3.5591,3.5324,3.5191,3.5191,3.5507,3.5106,3.4362,3.4528,3.4205,3.3454,3.3427,3.3387,0.0,3.2759,3.3837,3.597,3.7951,4.0175,4.2532,4.5021,4.6114,4.6191,4.5312,4.5019,4.4883,4.3984,4.3711,4.3691,4.3652,4.3613,4.3496,4.3086,4.2656,4.2226,4.1836,4.1484,4.123,4.1191,4.1172,4.1172,4.1172,4.1172,4.1172,4.1172,4.1172,4.1172,4.1172,4.1133,4.084,4.0019,3.9863,3.9512,3.8633,3.7793,3.7305,3.7305,3.6191,3.5254,3.4746,3.4355,3.375,3.2851,3.2793,3.2598,3.2248,3.2229,3.2148,3.2109,3.2109,3.209,3.2051,3.209,3.2109,3.2109,3.2148,3.2383,3.9493,4.0334,4.0294,3.8437,3.5324,3.2171,3.0127,0.0,2.3821,2.3407,2.3086,2.2806,2.2632,2.2739,2.3073,2.3728,2.4115,2.5598,2.9205,0.0,0.0,0.0,0.0,0.0,0.0,0.0,3.9199,3.8905,3.8504,3.8116,3.7823,3.7048,3.658,3.65,3.5992,3.5698,3.5631,3.5511,3.5364,3.5191,3.6635,3.6327,3.4309,3.5812,3.5389,3.3414,3.3414,3.332,0.0,3.2706,3.3947,3.6156,3.818,4.0446,4.2907,4.5373,4.6152,4.584,4.5234,4.5019,4.4922,4.4316,4.4121,4.4062,4.3789,4.334,4.2891,4.2734,4.2207,4.1699,4.1777,4.168,4.1543,4.1543,4.1348,4.1172,4.1172,4.1172,4.1172,4.1172,4.1172,4.1172,4.1172,4.1172,4.0879,4.0019,3.9902,3.9473,3.834,3.7656,3.7207,3.6953,3.623,3.5586,3.5156,3.4961,3.4492,3.3613,3.3809,3.3633,3.2949,3.3184,3.3066,3.2559,3.2539,3.2422,3.2229,3.2422,3.2539,3.2559,3.2812,3.3008,3.8263,3.964,4.004,3.8063,3.4897,3.1744,0.0,0.0,2.3527,2.314,2.2886,2.2645,2.2338,2.2458,2.2539,2.2325,2.2592,2.3834,2.6734,2.7936,0.0,0.0,0.0,3.6607,0.0,3.8905,3.9052,3.8758,3.8504,3.8223,3.7849,3.7408,3.6981,3.6513,3.6139,3.5845,3.5631,3.5538,3.5351,3.507,3.6777,3.6364,3.4291,3.5946,3.5463,3.3414,3.3414,3.3293,0.0,3.2706,3.4304,3.7132,3.844,4.0898,4.3904,4.5656,4.6035,4.5605,4.5176,4.5019,4.4961,4.4531,4.4394,4.4336,4.4004,4.3398,4.2812,4.2812,4.2285,4.1758,4.1797,4.1797,4.1777,4.1641,4.1387,4.1172,4.1172,4.1172,4.1172,4.1172,4.1172,4.1172,4.1172,4.1172,4.0879,4.0019,3.9902,3.9473,3.8262,3.7637,3.7187,3.6894,3.6348,3.5859,3.543,3.5391,3.5078,3.4316,3.4531,3.4434,3.3828,3.4101,3.3984,3.3379,3.3242,3.3027,3.2734,3.291,3.2988,3.2988,3.3281,3.3359,3.666,3.8263,3.9199,3.7382,3.4295,3.1142,0.0,0.0,2.3153,2.2552,2.2432,2.2338,2.2044,2.1991,2.1991,2.1991,2.2979,2.4476,2.6533,2.835,0.0,0.0,0.0,3.4175,3.5939,3.7956,3.9052,3.8758,3.8718,0.0,3.7849,3.7809,3.7408,3.654,3.5939,3.5631,3.5631,3.5351,3.5057,3.4763,3.4867,3.4559,3.3895,3.3881,3.3708,3.3414,3.3414,3.3414,0.0,3.2786,3.5462,3.9796,3.9182,4.1995,4.6308,4.6308,4.6035,4.5605,4.5176,4.5019,4.4961,4.4531,4.4394,4.4394,4.4394,4.4062,4.3691,4.3691,4.3379,4.2871,4.2012,4.1797,4.1699,4.1269,4.1172,4.1172,4.1172,4.1172,4.1172,4.1172,4.1172,4.1172,4.1172,4.1172,4.0879,4.0019,3.9902,3.957,3.8691,3.7832,3.7305,3.7285,3.6523,3.5859,3.543,3.5391,3.5195,3.4726,3.4707,3.4687,3.4687,3.4687,3.4687,3.4687,3.4277,3.4062,3.4043,3.3633,3.3418,3.3418,3.3418,3.3203,3.2973,3.4336,3.499,3.3427,3.1129,2.8885,2.7428,2.5144,2.3207,2.2806,2.2726,2.2579,2.2071,2.2151,2.2418,2.2832,2.3394,2.4275,0.0,0.0,0.0,3.1851,3.5391,3.7782,0.0,0.0,3.9265,3.8758,3.8504,3.8223,3.7849,3.7448,3.7008,3.6513,3.6326,3.6032,3.5631,3.5338,3.5057,3.4763,3.4362,3.4068,3.3881,3.3654,3.3507,3.34,3.32,3.312,3.3165,3.4375,3.6628,3.9637,4.0998,4.346,4.6269,4.5976,4.5605,4.5215,4.5078,4.5019,4.5058,4.5215,4.5078,4.4824,4.4824,4.4101,4.3203,4.291,4.2949,4.2871,4.2031,4.2012,4.2051,4.1348,4.1172,4.1172,4.1172,4.1172,4.1172,4.1172,4.1172,4.1172,4.1172,4.1172,4.0976,4.041,4.0078,3.957,3.8691,3.7832,3.7187,3.6894,3.6367,3.5976,3.584,3.582,3.6142,3.6828,3.7225,3.7102,3.6529,3.6753,3.6208,3.4707,3.457,3.4355,3.4082,3.3945,3.3711,3.3418,3.3418,3.334,3.0127,3.161,3.2291,3.1036,2.9259,2.7509,2.6333,2.4636,2.3207,2.2779,2.2699,2.2512,2.1924,2.1977,2.2178,2.2445,2.2832,2.3581,0.0,0.0,0.0,3.2091,0.0,0.0,0.0,3.8838,3.9052,3.8584,3.825,3.7969,3.7676,3.7195,3.6754,3.6353,3.6233,3.5899,3.5311,3.5124,3.483,3.4429,3.4068,3.3828,3.3694,3.3507,3.3347,3.324,3.3053,3.2919,0.0,3.5023,3.7211,3.9581,4.1777,4.41,4.625,4.584,4.5508,4.5254,4.5078,4.5137,4.5312,4.5586,4.5371,4.4961,4.4629,4.3965,4.3262,4.2988,4.3105,4.3125,4.2266,4.2226,4.2207,4.1367,4.1172,4.1172,4.1172,4.1172,4.1172,4.1172,4.1172,4.1172,4.1172,4.1172,4.1035,4.0586,4.0156,3.9629,3.8906,3.793,3.7266,3.7148,3.7202,3.738,3.7541,3.7401,3.796,3.9648,4.0038,3.9623,3.8392,3.8432,3.7534,3.5516,3.5137,3.4824,3.457,3.4238,3.3926,3.3672,3.3496,3.3242,0.0,2.9673,3.0528,2.9686,2.8217,2.6694,2.5598,2.4289,0.0,2.2565,2.2458,2.2285,2.1724,2.1655,2.1574,2.1309,2.1724,2.2699,0.0,2.64,0.0,0.0,3.503,0.0,3.654,3.7889,3.8584,3.8263,3.7956,3.7662,3.7382,3.7048,3.662,3.6032,3.5725,3.5311,3.4763,3.4723,3.4429,3.3881,3.3868,3.3694,3.3414,3.3387,3.324,0.0,3.2933,3.2857,3.2965,3.5178,3.7445,3.9807,4.2047,4.4277,4.625,4.584,4.5683,4.5625,4.5215,4.5332,4.5664,4.5644,4.5351,4.4863,4.3965,4.3711,4.3711,4.3711,4.3711,4.3516,4.2695,4.248,4.2266,4.1426,4.1211,4.1211,4.1172,4.1172,4.1172,4.1172,4.1172,4.1172,4.1172,4.1172,4.1035,4.0625,4.0195,3.9726,3.9258,3.8105,3.748,3.7832,3.871,3.9521,4.0277,3.9943,4.0621,4.2835,4.299,4.2216,4.0529,4.0036,3.8927,3.6937,3.5888,3.5391,3.5391,3.4531,3.4101,3.4062,3.3652,3.3027,2.4823,0.0,2.5745,2.5317,2.473,2.4182,0.0,2.3394,2.2926,2.2792,2.2752,2.2645,2.2285,2.2031,2.2084,2.2712,2.2926,2.3554,2.509,0.0,0.0,3.503,3.7155,3.8103,3.7275,3.8103,3.8504,3.7956,3.7635,3.7342,3.7048,3.654,3.6006,3.5418,3.5124,3.4897,3.4763,3.4322,3.4028,3.3881,3.3641,3.348,3.34,3.3187,3.304,3.2946,3.2505,3.3395,3.5163,3.7334,3.9657,4.2119,4.4491,4.5763,4.625,4.584,4.5683,4.5664,4.5566,4.5586,4.5625,4.5293,4.5117,4.4863,4.3965,4.3711,4.3711,4.3711,4.3711,4.3574,4.3066,4.293,4.2715,4.1855,4.166,4.1562,4.125,4.1172,4.1172,4.1172,4.1172,4.1172,4.1172,4.1172,4.1133,4.1035,4.0371,3.9726,3.9258,3.8359,3.7695,3.7461,3.7667,3.913,4.2432,4.226,4.2811,4.4648,4.4801,4.4607,4.4151,4.4035,4.2345,3.8839,3.6542,3.5391,3.5391,3.4824,3.4394,3.4082,3.3965,3.3633,2.3567,2.3688,2.3768,2.3607,2.334,2.3113,2.3113,2.2979,2.2928,2.2928,2.2928,2.2766,2.2472,2.2178,2.2191,2.2806,2.302,0.0,0.0,0.0,3.3414,3.6326,3.7529,3.8103,0.0,3.8076,3.7969,3.7635,3.7235,3.6901,3.6754,3.6179,3.5658,3.5204,3.4776,3.4496,3.4362,3.4042,3.3814,3.3668,3.3494,3.3347,3.32,3.3053,3.2826,3.2559,3.2238,3.3418,3.5765,3.8067,4.0446,4.2818,4.5285,4.6308,4.625,4.584,4.5801,4.5937,4.5742,4.5801,4.5859,4.5234,4.5019,4.4863,4.3965,4.3711,4.3711,4.3711,4.3711,4.3613,4.3183,4.3086,4.2871,4.2012,4.1797,4.168,4.1269,4.1172,4.1172,4.1172,4.1172,4.1172,4.1172,4.1172,4.1172,4.1172,4.0449,3.9805,3.9551,3.8594,3.791,3.7891,3.8635,4.01,4.2575,4.4323,4.5869,4.7231,4.7335,4.6924,4.6097,4.5882,4.3759,3.9492,3.7755,3.645,3.5684,3.5234,3.4785,3.4355,3.416,3.373,2.3367,2.342,2.3434,2.3287,2.306,2.2941,2.2926,2.2899,2.2873,2.2926,2.2968,2.2766,2.2472,2.2325,2.2325,2.2525,2.3113,0.0,2.9619,3.1476,3.3561,3.6727,3.7088,0.0,3.8183,3.7676,3.7275,3.7195,3.6727,3.6433,3.638,3.5859,3.5404,3.507,3.4536,3.4108,3.3814,3.3814,3.3681,3.3414,3.3414,3.3253,3.2973,3.2933,3.2612,3.2104,3.2421,3.3832,3.6066,3.852,4.0988,4.3353,4.548,4.6308,4.625,4.5898,4.5996,4.625,4.5898,4.5957,4.6074,4.5273,4.498,4.4785,4.3945,4.3711,4.3711,4.3711,4.3711,4.3633,4.3262,4.3125,4.2871,4.209,4.1836,4.168,4.1269,4.1172,4.1172,4.1172,4.1172,4.1172,4.1172,4.1172,4.1172,4.1172,4.0508,4.0,4.0,3.8965,3.8359,3.873,4.0164,4.1367,4.203,4.5656,4.8284,4.9346,4.9611,4.8992,4.7287,4.6586,4.4368,4.0487,3.9308,3.7991,3.6502,3.5818,3.5215,3.4687,3.4336,3.3711,2.3567,2.3875,2.3888,2.3126,2.2899,2.2926,2.3193,2.3046,2.2939,2.3207,2.3046,2.2766,2.2472,2.3006,2.3434,2.322,2.5104,2.7802,0.0,0.0,3.4175,3.5712,0.0,3.7261,3.6206,3.6647,3.6794,3.6313,3.6193,3.6032,3.5778,3.5444,3.5017,3.4469,3.4135,3.3801,3.3494,3.348,3.3454,3.3414,3.3414,3.3253,3.2973,3.2719,3.2425,3.2187,0.0,3.6205,3.8611,4.1079,4.346,4.5744,4.6114,4.6308,4.6289,4.623,4.625,4.6289,4.623,4.6016,4.5683,4.5195,4.4785,4.4394,4.3867,4.3711,4.3711,4.3711,4.3711,4.3691,4.3633,4.334,4.2949,4.2441,4.2051,4.168,4.1269,4.1172,4.1172,4.1172,4.1172,4.1172,4.1172,4.1172,4.1172,4.1172,4.0742,4.043,4.043,3.9941,3.9609,3.9687,3.9987,4.0767,4.2387,4.4673,4.6702,4.8359,4.9635,4.9937,4.9202,4.7288,4.5901,4.5146,4.1263,3.9118,3.8849,3.6909,3.5508,3.4707,3.4629,3.4141,2.3276,2.338,2.35,2.3567,2.3581,2.346,2.2953,2.2846,2.2953,2.326,2.3086,2.2966,2.3313,2.3981,2.4903,2.6199,2.7963,2.9913,3.2038,3.308,3.4189,0.0,0.0,3.654,3.6353,3.6433,3.6366,3.6099,3.5925,3.5698,3.5404,3.5124,3.4696,3.4108,3.3961,3.3734,3.3414,3.3414,3.3414,3.3414,3.3253,3.3026,3.283,3.385,3.4198,3.3979,3.6313,3.8703,4.0988,4.2174,4.41,4.6308,4.6308,4.6308,4.6308,4.6308,4.6308,4.6269,4.6035,4.584,4.5566,4.4902,4.4551,4.4316,4.3848,4.3711,4.3711,4.3711,4.3711,4.3711,4.3711,4.3555,4.3242,4.2578,4.2285,4.1953,4.1308,4.1172,4.1172,4.1172,4.1172,4.1172,4.1172,4.1172,4.1172,4.1172,4.0801,4.0527,4.0527,4.0156,3.9902,3.9902,4.0098,4.0594,4.1364,4.3542,4.6276,4.9718,5.0232,5.0293,5.0042,4.8457,4.7126,4.6257,4.2655,4.0339,3.9424,3.7144,3.5566,3.4707,3.4707,3.4238,2.3033,2.3196,2.3327,2.3941,2.4048,2.3901,2.3527,2.346,2.3634,2.4142,2.3955,2.3834,2.4315,2.5117,2.6547,2.9125,3.0541,3.1744,3.2986,3.3547,3.4389,3.5899,3.5872,3.5965,3.658,3.6233,3.5912,3.5778,3.5551,3.5297,3.5004,3.4723,3.4349,3.3895,3.3814,3.3654,3.3414,3.3347,3.3307,3.3307,3.308,3.2786,3.2536,3.4827,3.5637,3.5509,3.852,4.0898,4.2621,4.3264,4.4561,4.6308,4.6308,4.6308,4.6289,4.6191,4.6152,4.6094,4.5664,4.5449,4.5273,4.4609,4.4316,4.416,4.3808,4.3711,4.3711,4.3711,4.3711,4.3711,4.3711,4.3633,4.3359,4.2598,4.2344,4.207,4.1328,4.1172,4.1172,4.1172,4.1172,4.1172,4.1172,4.1172,4.1172,4.1172,4.0879,4.0684,4.0684,4.0391,4.0195,4.0195,4.0488,4.0818,4.1314,4.3455,4.6569,5.0703,5.0855,5.0695,5.0419,4.9615,4.8486,4.7037,4.4352,4.2255,4.0823,3.8022,3.6196,3.5321,3.4786,3.4141,2.3554,2.3901,2.4062,2.3848,2.3594,2.3941,2.6026,2.5892,2.5638,2.6747,2.6533,2.5905,2.5157,2.6386,2.8297,3.0675,3.2051,3.3334,3.4803,0.0,3.5324,3.5992,3.6059,3.5952,3.5738,3.5685,3.5444,3.4897,3.4843,3.4696,3.4402,3.4108,3.3935,3.3881,3.3601,3.3427,3.3414,3.3146,3.3013,3.3013,3.2986,3.2679,3.2227,3.4725,3.5637,3.5602,4.0248,4.2443,4.2818,4.5109,4.6114,4.6308,4.6308,4.6308,4.625,4.5859,4.5723,4.5664,4.5215,4.4824,4.4473,4.4414,4.4101,4.375,4.3711,4.3711,4.3711,4.3711,4.3711,4.3711,4.3711,4.3418,4.3008,4.2539,4.2129,4.1719,4.1269,4.1172,4.1172,4.1172,4.1172,4.1172,4.1172,4.1172,4.1172,4.1172,4.1152,4.1133,4.1133,4.1094,4.1074,4.1074,4.1113,4.1848,4.3676,4.5627,4.7736,4.9937,5.127,5.1523,5.0469,5.0343,4.9977,4.9346,4.7102,4.5575,4.4948,4.0694,3.8094,3.7064,3.5031,3.3867,2.3209,2.3688,2.4182,2.4062,2.4369,2.497,2.6039,2.6306,2.6667,2.7856,2.807,2.7989,2.7843,2.8804,3.0207,3.2024,3.3307,3.4349,3.5097,3.5351,3.5551,3.5765,3.5792,3.5752,3.5645,3.5471,3.5191,3.479,3.4763,3.4549,3.4082,3.3948,3.3801,3.3601,3.3293,3.3146,3.3146,3.2853,3.2612,3.2438,3.2438,3.2318,3.2187,3.6076,3.7747,3.7895,4.2818,4.4914,4.5002,4.5939,4.6308,4.6308,4.6308,4.6308,4.625,4.584,4.5683,4.5586,4.4883,4.4531,4.4355,4.4062,4.3848,4.3711,4.3711,4.3711,4.3711,4.3711,4.3711,4.3711,4.3711,4.3594,4.3281,4.2598,4.2305,4.2012,4.1328,4.1172,4.1172,4.1172,4.1172,4.1172,4.1172,4.1172,4.1172,4.1172,4.1172,4.1172,4.1172,4.1172,4.1172,4.1172,4.1172,4.1985,4.3945,4.5849,4.7854,4.989,5.1299,5.1925,5.1473,5.0795,5.0318,5.0117,4.7183,4.5596,4.5405,4.1953,3.9927,3.927,3.7336,3.6254,2.2699,2.3166,2.3714,2.3995,2.4649,2.5585,2.6907,2.7509,2.8217,2.9686,2.9633,2.9406,2.97,3.0247,3.1102,3.2478,3.3868,3.487,3.5151,3.5364,3.5498,3.5498,3.5498,3.5458,3.5364,3.5177,3.4897,3.4509,3.4482,3.4269,3.3761,3.3734,3.3601,3.328,3.308,3.2933,3.2839,3.2545,3.2678,3.3215,3.2381,3.2327,3.3253,3.7177,3.9449,4.0356,4.4473,4.6308,4.6308,4.6308,4.6308,4.6308,4.6308,4.623,4.6055,4.5625,4.5391,4.5156,4.4433,4.418,4.4121,4.3808,4.3711,4.3711,4.3711,4.3711,4.3711,4.3711,4.3711,4.3711,4.3711,4.3711,4.3496,4.2637,4.2422,4.2207,4.1348,4.1172,4.1172,4.1172,4.1172,4.1172,4.1172,4.1172,4.1172,4.1172,4.1172,4.1172,4.1172,4.1172,4.1172,4.1172,4.1753,4.2637,4.4021,4.6441,4.8506,4.989,5.1472,5.2277,5.2126,5.1197,5.0594,5.0419,4.797,4.6536,4.6197,4.3548,4.196,4.1256,3.9379,3.8379,2.2338,2.2418,2.2645,2.3554,2.4222,2.5585,2.9125,2.9927,3.0515,3.2572,3.137,3.0034,3.0327,3.0381,3.0755,3.1917,3.3601,3.4857,3.5151,3.5191,3.5191,3.5191,3.5191,3.5084,3.479,3.4763,3.4523,3.3935,3.3881,3.3748,3.3427,3.3414,3.328,3.2986,3.2973,3.2826,3.2643,3.2335,3.3406,3.5817,3.31,3.3041,3.5416,3.7895,4.0339,4.2711,4.5197,4.6289,4.6289,4.6289,4.6289,4.6289,4.6289,4.6035,4.5625,4.5176,4.4766,4.4336,4.3867,4.3711,4.3711,4.3711,4.3711,4.3711,4.3711,4.3711,4.3711,4.3711,4.3711,4.3711,4.3711,4.3711,4.3496,4.2637,4.2422,4.2207,4.1348,4.1172,4.1172,4.1172,4.1172,4.1172,4.1172,4.1172,4.1172,4.1172,4.1172,4.1172,4.1172,4.1172,4.1172,4.125,4.2922,4.4096,4.4151,4.7759,5.0032,5.0032,5.1816,5.2678,5.2126,5.1574,5.0996,5.0419,4.9866,4.9038,4.7908,4.5764,4.4156,4.3092,4.0915,3.9927,2.2392,2.2726,2.3327,2.4422,2.5598,2.7201,2.9913,3.0528,3.1236,3.3721,3.308,3.2038,3.1917,3.2,3.2078,3.2625,3.3694,3.4629,3.5124,3.5191,3.5124,3.491,3.4897,3.4776,3.4482,3.4456,3.4295,3.3921,3.3881,3.3654,3.3133,3.3106,3.2973,3.2679,3.2478,3.2969,3.4334,3.4111,3.5024,3.7137,3.6302,3.6597,3.7895,3.8611,4.0129,4.2313,4.4758,4.5859,4.5859,4.5859,4.5859,4.584,4.5527,4.5332,4.5176,4.4746,4.4512,4.4336,4.3867,4.3711,4.3711,4.3711,4.3711,4.3711,4.3711,4.3711,4.3711,4.3711,4.3711,4.3711,4.3711,4.3711,4.3496,4.2637,4.2422,4.2207,4.1348,4.1172,4.1172,4.1172,4.1172,4.1172,4.1172,4.1172,4.1172,4.1172,4.1172,4.1172,4.1172,4.1172,4.1676,4.3075,4.3718,4.5201,4.7976,4.932,5.0551,5.1956,5.256,5.2678,5.2126,5.1574,5.0996,5.0419,4.949,4.8862,4.851,4.7122,4.6229,4.5846,4.364,4.2552,2.2178,2.2779,2.3661,2.5077,2.6533,2.8297,3.0902,3.2131,3.32,3.4937,3.4242,3.3253,3.2959,3.2612,3.2505,3.2906,3.3641,3.4349,3.4937,3.4923,3.483,3.4776,3.4656,3.4469,3.4175,3.4148,3.4028,3.3721,3.3587,3.336,3.3,3.2759,3.2492,3.2211,3.1904,3.2716,3.4766,3.4572,3.6009,3.8848,3.8103,3.8868,4.1143,4.0307,4.1143,4.3261,4.4962,4.5781,4.5918,4.5918,4.582,4.5644,4.5391,4.4961,4.4473,4.4219,4.3906,4.3594,4.3496,4.3457,4.3476,4.3652,4.3711,4.3711,4.3711,4.3711,4.3711,4.3711,4.3711,4.3711,4.3711,4.3711,4.3496,4.2637,4.2422,4.2207,4.1348,4.1172,4.1172,4.1172,4.1172,4.1172,4.1172,4.1172,4.1172,4.1172,4.1172,4.1172,4.1172,4.1907,4.2769,4.3945,4.5478,4.7394,4.9819,5.0717,5.1677,5.2861,5.2929,5.2678,5.2126,5.1774,5.1348,5.077,4.9891,4.9213,4.8761,4.8109,4.7556,4.7068,4.5687,4.4962,2.1937,2.2726,2.3834,2.5758,2.7537,2.9467,3.2187,3.4202,3.5658,3.5899,3.491,3.3908,3.3587,3.2839,3.2438,3.2973,3.3521,3.4082,3.4643,3.4496,3.4402,3.4656,3.4442,3.4148,3.3841,3.3801,3.3668,3.336,3.3066,3.2893,3.2866,3.2332,3.1891,3.1597,3.1477,3.2265,3.4082,3.4502,3.6692,4.0539,3.887,4.0258,4.4155,4.2303,4.2716,4.5039,4.5449,4.584,4.6191,4.6191,4.5937,4.5547,4.5508,4.4746,4.3652,4.3652,4.3125,4.248,4.2891,4.3047,4.3144,4.3516,4.3672,4.3711,4.3711,4.3711,4.3711,4.3711,4.3711,4.3711,4.3711,4.3711,4.3496,4.2637,4.2461,4.2246,4.1367,4.1211,4.1211,4.1172,4.1172,4.1172,4.1172,4.1172,4.1172,4.1172,4.1172,4.1172,4.1172,4.2922,4.4172,4.4377,4.7759,5.0032,5.0269,5.1886,5.2929,5.2929,5.2929,5.2703,5.2201,5.2126,5.185,5.1297,5.077,4.9967,4.8912,4.8862,4.8309,4.728,4.723,4.6903,2.2752,2.3354,2.4436,2.7589,3.0528,3.2879,3.3734,3.4643,3.5244,3.5084,3.4977,3.475,3.4229,3.3788,3.3547,3.3668,3.3801,3.4015,3.4362,3.4362,3.4255,3.4095,3.4015,3.3761,3.3227,3.3173,3.3053,3.2759,3.2452,3.2185,3.1957,3.161,3.1276,3.0996,3.2387,3.3217,3.3604,3.6678,3.8737,3.9548,4.0812,4.1914,4.2809,4.1829,4.2716,4.5039,4.5117,4.5215,4.5293,4.5293,4.5058,4.4629,4.4277,4.375,4.3223,4.3223,4.2871,4.2441,4.2539,4.2793,4.3086,4.3183,4.3437,4.3711,4.3711,4.3711,4.3711,4.3711,4.3711,4.3711,4.3711,4.3711,4.3496,4.2637,4.2695,4.2617,4.1426,4.1426,4.1562,4.123,4.1172,4.1172,4.1172,4.1172,4.1172,4.1172,4.1172,4.1172,4.1172,4.2922,4.4677,4.6219,4.8578,5.0622,5.2119,5.2629,5.2929,5.2929,5.2929,5.2879,5.2754,5.2327,5.185,5.1297,5.1147,5.0745,5.0067,4.9615,4.9063,4.841,4.7958,4.7456,2.2779,2.3834,2.5518,2.9352,3.2104,3.3921,3.4082,3.4456,3.4736,3.4576,3.479,3.4803,3.4215,3.3988,3.3841,3.3681,3.3654,3.3761,3.4068,3.3988,3.3828,3.3681,3.3534,3.3213,3.2612,3.2559,3.2438,3.2144,3.1717,3.141,3.1263,3.0702,3.0754,3.1657,3.2558,3.4022,3.6047,3.8136,3.9604,4.0452,4.1744,4.2539,4.2693,4.239,4.3101,4.4726,4.4726,4.4844,4.5019,4.5019,4.4785,4.4355,4.3887,4.332,4.2734,4.2539,4.2187,4.1855,4.2051,4.2285,4.2539,4.2949,4.3223,4.3437,4.3633,4.3711,4.3711,4.3711,4.3711,4.3711,4.3711,4.3711,4.3496,4.2637,4.2598,4.248,4.1406,4.1348,4.1426,4.1211,4.1172,4.1172,4.1172,4.1172,4.1172,4.1172,4.1172,4.1172,4.1172,4.3739,4.5849,4.6882,4.9605,5.1816,5.2792,5.2929,5.2929,5.2929,5.2929,5.2929,5.2929,5.2653,5.2226,5.1674,5.1674,5.1272,5.0419,5.0117,4.9565,4.8761,4.846,4.7883,2.2539,2.4422,2.6934,3.0662,3.2706,3.3801,3.3801,3.3988,3.4148,3.4095,3.4362,3.4469,3.3975,3.3841,3.3708,3.3387,3.3334,3.3414,3.3627,3.3427,3.3267,3.3267,3.3,3.2599,3.2011,3.1904,3.173,3.1396,3.0875,3.0568,3.0568,3.0177,3.0769,3.2553,3.3051,3.4957,3.8305,3.8987,3.9956,4.1108,4.1872,4.2441,4.2851,4.293,4.3496,4.4394,4.4394,4.459,4.4902,4.4824,4.4551,4.4121,4.3672,4.3008,4.2285,4.1933,4.1543,4.123,4.1562,4.1738,4.1914,4.2617,4.2949,4.3144,4.3496,4.3652,4.3711,4.3711,4.3711,4.3711,4.3711,4.3711,4.3516,4.2734,4.248,4.2207,4.1348,4.123,4.125,4.1191,4.1172,4.1172,4.1172,4.1172,4.1172,4.1172,4.1172,4.1172,4.1172,4.4623,4.7029,4.7029,5.0576,5.2929,5.2929,5.2929,5.2929,5.2929,5.2929,5.2929,5.2929,5.2929,5.2703,5.2251,5.2251,5.1749,5.0695,5.0619,5.0042,4.9063,4.8962,4.8309,2.2539,2.5478,2.8684,3.0768,3.2385,3.3467,3.3467,3.3507,3.3467,0.0,3.3614,3.3975,3.3895,3.3654,3.3374,3.308,3.304,3.2959,3.2759,3.279,3.2666,3.2666,3.2398,3.1984,3.1396,3.1116,3.0742,3.0194,2.9847,2.9659,2.9659,3.1078,3.2025,3.2368,3.5692,3.6903,3.5592,3.9136,4.0075,3.8463,4.0409,4.1562,4.1992,4.2344,4.3203,4.4394,4.4394,4.4433,4.4453,4.4043,4.3633,4.3203,4.2773,4.2305,4.1875,4.1816,4.1543,4.1172,4.123,4.1504,4.1816,4.1933,4.248,4.3086,4.3144,4.3418,4.3711,4.3711,4.3711,4.3711,4.3711,4.3711,4.3574,4.3105,4.2695,4.2207,4.1348,4.1465,4.1601,4.125,4.1172,4.1172,4.1172,4.1172,4.1172,4.1172,4.1172,4.1172,4.1172,4.4623,4.7029,4.7029,5.0576,5.2929,5.2929,5.2929,5.2929,5.2929,5.2929,5.2929,5.2929,5.2929,5.2904,5.2829,5.2829,5.2503,5.1875,5.1398,5.0845,5.0193,4.9715,4.8887,2.3754,2.5945,2.815,3.0421,3.1463,3.2078,3.2559,3.2679,3.2692,3.2732,3.2946,3.3133,3.3133,3.3026,3.2879,3.2759,3.2732,3.2692,3.2656,3.2398,3.2238,3.2078,3.165,3.1142,3.0555,3.0234,2.9887,2.9459,2.9152,2.8991,2.8991,3.0779,3.2328,3.3644,3.6529,3.8246,3.8486,4.0273,4.0685,3.9767,4.0763,4.1387,4.1816,4.1992,4.2519,4.3301,4.3555,4.3516,4.3281,4.3066,4.2891,4.2676,4.2246,4.1973,4.1777,4.1543,4.1328,4.1172,4.1172,4.1289,4.1484,4.1719,4.2051,4.2441,4.293,4.3203,4.3398,4.3633,4.3711,4.3711,4.3711,4.3711,4.3594,4.3183,4.293,4.2558,4.1699,4.1484,4.1387,4.1211,4.1172,4.1172,4.1172,4.1172,4.1172,4.1172,4.1172,4.1618,4.2713,4.5276,4.7394,4.8578,5.1233,5.2929,5.2929,5.2929,5.2929,5.2929,5.2929,5.2929,5.2929,5.2929,5.2929,5.2929,5.2929,5.2653,5.2101,5.185,5.1272,5.0419,5.0167,4.9289,2.4062,2.5371,2.6653,2.9152,3.0007,3.0501,0.0,0.0,3.1851,0.0,3.2144,3.2104,3.2104,3.2345,3.2589,3.2442,3.2318,3.2278,3.2118,3.1851,3.1583,3.137,3.0822,3.0261,2.974,2.9432,2.9387,2.958,2.8947,2.8982,3.0057,3.1458,3.3267,3.546,3.7578,3.9531,4.1172,4.1172,4.1172,4.1172,4.1172,4.1348,4.1641,4.1758,4.1914,4.2129,4.2676,4.2734,4.2422,4.2305,4.2266,4.2226,4.1797,4.1641,4.1601,4.1289,4.1172,4.1172,4.1172,4.1172,4.123,4.1543,4.1777,4.207,4.2715,4.3066,4.3301,4.3613,4.3711,4.3711,4.3711,4.3711,4.3594,4.3183,4.2988,4.2715,4.1953,4.1465,4.1172,4.1172,4.1172,4.1172,4.1172,4.1172,4.1172,4.1172,4.1172,4.1907,4.3869,4.5775,4.7759,4.9819,5.1303,5.2189,5.2189,5.2189,5.2189,5.2189,5.2629,5.2929,5.2929,5.2929,5.2929,5.2929,5.2929,5.2729,5.2302,5.2176,5.1599,5.0645,5.0494,4.9515,2.2311,2.3233,2.4422,2.6507,2.7883,2.9098,0.0,0.0,3.0942,3.1236,3.1076,3.0889,3.0889,3.1797,3.2358,3.181,3.1717,3.1517,3.0955,3.0635,3.0448,3.0434,2.9913,2.9432,2.9112,2.8818,2.935,3.115,2.9398,3.0053,3.4197,3.4506,3.554,3.7657,3.9864,4.1094,4.1172,4.1172,4.1172,4.1172,4.1172,4.1191,4.1211,4.1621,4.1601,4.1289,4.2109,4.2441,4.2402,4.1992,4.1836,4.1797,4.1367,4.1211,4.1211,4.1172,4.1172,4.1172,4.1172,4.1172,4.1172,4.1191,4.1738,4.2402,4.2441,4.3027,4.3672,4.3691,4.3711,4.3711,4.3711,4.3711,4.3594,4.3183,4.2754,4.2344,4.1894,4.1465,4.1172,4.1172,4.1172,4.1172,4.1172,4.1172,4.1172,4.1172,4.1172,4.1907,4.3869,4.5775,4.7759,4.9819,5.0127,5.0127,5.0127,5.0127,5.0127,5.0127,5.1886,5.2929,5.2929,5.2929,5.2929,5.2929,5.2929,5.2904,5.2879,5.2352,5.18,5.1222,5.067,4.9515,2.2418,2.2806,2.3354,2.5237,2.6306,2.7188,2.8283,2.9125,2.9753,3.0047,3.0167,3.0234,3.0234,3.0889,3.1356,3.1142,3.0955,3.0755,3.0541,3.01,2.9793,2.9793,2.9285,2.8885,2.8778,2.8484,2.8595,2.93,2.9941,3.091,3.2546,3.5218,3.6976,3.7535,3.9888,4.1172,4.1172,4.0898,4.0898,4.1172,4.1172,4.1172,4.1172,4.1328,4.1308,4.1191,4.1484,4.1621,4.1621,4.1465,4.1387,4.1387,4.123,4.1172,4.1172,4.1172,4.1172,4.1172,4.1172,4.1172,4.1172,4.1172,4.1387,4.1719,4.2266,4.2637,4.3008,4.3555,4.3711,4.3711,4.3711,4.3711,4.3594,4.3183,4.2754,4.2305,4.1894,4.1465,4.1172,4.1172,4.1172,4.1172,4.1172,4.1172,4.1172,4.1172,4.2273,4.3739,4.5701,4.7686,4.9224,4.989,4.9961,4.9463,4.8217,4.7846,4.8374,4.9866,5.0379,5.1284,5.2836,5.2929,5.2929,5.2929,5.2929,5.2929,5.2929,5.2729,5.2176,5.1272,5.1071,5.0067,2.2058,0.0,0.0,2.4315,2.485,2.5304,2.6774,2.7655,2.8283,2.8778,2.9205,2.9499,2.9606,2.994,3.0234,3.0341,3.0194,3.0034,2.9927,2.9499,2.9152,2.9045,2.8604,2.8297,2.8297,2.803,2.8257,2.9188,3.0389,3.168,3.3337,3.597,3.7704,3.8165,3.9875,4.0742,4.0742,4.0449,4.0527,4.0957,4.082,4.0898,4.1172,4.1016,4.0957,4.0957,4.0957,4.0957,4.0957,4.0957,4.0879,4.0742,4.0742,4.084,4.0957,4.0957,4.1055,4.1172,4.1172,4.1172,4.1172,4.1172,4.1269,4.1484,4.2051,4.2422,4.2754,4.334,4.3594,4.3711,4.3711,4.3594,4.3379,4.2969,4.2539,4.2249,4.2503,4.2319,4.1985,4.1327,4.1773,4.1985,4.1327,4.1172,4.1172,4.1172,4.2846,4.4827,4.6735,4.8144,4.9224,4.989,4.8794,4.7399,4.5926,4.5698,4.6262,4.7725,4.8233,4.9534,5.1816,5.1956,5.2258,5.2861,5.2929,5.2929,5.2929,5.2929,5.2352,5.1272,5.1272,5.0268,0.0,0.0,0.0,2.3607,2.3474,0.0,2.6106,2.6507,2.6587,2.7442,2.811,2.8631,2.8925,2.8978,2.9085,2.9366,2.9446,2.9352,2.9072,2.8764,2.847,2.8248,2.7869,2.7682,2.7682,2.7428,2.8372,3.1084,3.0698,3.238,3.697,3.6844,3.7662,3.9807,3.9883,3.9863,3.9902,3.9883,4.0098,4.0508,4.0098,4.0332,4.1113,4.0703,4.0508,4.0508,4.0508,4.0488,4.0488,4.0508,4.0273,3.9902,3.9807,4.0061,4.0431,4.0431,4.0724,4.1094,4.1172,4.1172,4.1172,4.1172,4.1445,4.1777,4.1797,4.2383,4.3047,4.3066,4.3359,4.3672,4.3672,4.3379,4.2969,4.2519,4.209,4.221,4.367,4.4096,4.3684,4.1773,4.2866,4.3532,4.1695,4.1405,4.1327,4.1327,4.2922,4.4827,4.6662,4.6955,4.7686,4.9605,4.6367,4.3907,4.3467,4.3748,4.3886,4.3541,4.5661,4.7831,4.9819,4.989,5.0787,5.2698,5.2698,5.2792,5.2792,5.2861,5.2352,5.1272,5.1247,5.0042,2.1109,0.0,0.0,0.0,0.0,0.0,2.3474,2.4409,2.5251,2.5705,2.644,2.7094,2.7388,2.7615,2.7789,2.7869,2.843,2.8818,2.8738,2.8283,2.7923,2.7829,2.7562,2.7388,2.7388,2.7308,2.7649,0.0,3.1087,3.3234,3.4592,3.7041,3.8913,3.9883,3.9277,3.9238,3.9883,3.9551,3.9629,4.0059,3.9961,4.0019,4.0254,4.0117,4.0078,4.0078,4.0078,3.9883,3.959,3.9922,4.0,3.9732,3.8234,3.7844,3.8195,3.8272,3.8531,3.904,4.0685,4.1172,4.1172,4.1172,4.125,4.1406,4.1699,4.1973,4.2285,4.291,4.293,4.2773,4.2773,4.293,4.2891,4.2148,4.1894,4.1837,4.2007,4.4521,4.6585,4.5565,4.4954,4.4702,4.5266,4.5425,4.4902,4.3511,4.4977,4.5849,4.5052,4.6146,4.6662,4.5849,4.4752,4.3449,4.1959,4.1606,4.2155,4.3811,4.4294,4.55,4.7759,4.7854,4.8072,4.865,4.865,4.9391,5.0787,5.2189,5.2352,5.1272,5.0444,4.9515,0.0,0.0,0.0,0.0,0.0,0.0,2.2485,2.318,2.3794,0.0,2.4863,2.5788,2.6752,2.6602,2.6664,2.761,2.7744,2.7762,2.8016,2.7749,2.7428,2.7188,2.7108,2.7028,2.6907,2.6894,2.7391,2.8434,3.1417,3.3838,3.5286,3.7499,3.8711,3.8809,3.8301,3.8281,3.8809,3.8711,3.8809,3.9082,3.9258,3.9434,3.9609,3.9609,3.9609,3.959,3.9414,3.9082,3.8672,3.8769,3.9023,3.9187,3.7069,3.6561,3.6988,3.7144,3.7505,3.8231,4.0431,4.1172,4.1172,4.1172,4.1172,4.1211,4.1465,4.166,4.1914,4.2402,4.248,4.2422,4.2422,4.2617,4.2637,4.1953,4.1797,4.1916,4.2296,4.396,4.5404,4.5735,4.677,4.7462,4.709,4.6544,4.5641,4.4344,4.5052,4.5351,4.4247,4.5127,4.5351,4.4247,4.3359,4.2346,4.0995,4.084,4.1339,4.2485,4.2575,4.3544,4.5701,4.5775,4.6146,4.6955,4.6849,4.7751,4.9723,5.1041,5.155,5.1247,5.0117,4.9289,0.0,0.0,0.0,0.0,2.1977,0.0,2.2458,2.2539,2.2485,2.2712,2.3447,2.4562,2.6344,2.5736,2.5616,2.7568,2.6967,2.6426,2.7121,2.7188,2.6961,2.6413,2.6533,2.6653,2.6621,2.6594,2.7667,3.0246,3.1815,3.4189,3.7656,3.7851,3.7676,3.7305,3.7305,3.7305,3.7305,3.7676,3.7851,3.7851,3.8242,3.8633,3.8984,3.8984,3.8984,3.8965,3.8594,3.8203,3.7832,3.7461,3.7773,3.8278,3.598,3.5553,3.619,3.6397,3.688,3.7824,4.0276,4.1133,4.1172,4.1113,4.1133,4.1172,4.1172,4.1426,4.1738,4.1738,4.207,4.2402,4.2305,4.2324,4.2246,4.1836,4.1738,4.2072,4.3442,4.2904,4.2561,4.3877,4.779,5.0006,4.7406,4.5996,4.4939,4.4235,4.4096,4.4021,4.3794,4.3794,4.3794,4.3794,4.2196,4.1016,4.0625,4.0957,4.1016,4.0625,4.0957,4.1985,4.3718,4.3794,4.4602,4.6315,4.6195,4.7008,4.8872,4.9439,5.0271,5.1247,5.0117,4.9339,0.0,0.0,0.0,0.0,0.0,0.0,2.1563,2.1951,2.2365,0.0,2.2672,2.3359,2.3936,2.4035,2.4206,2.4603,2.4857,2.5438,2.672,2.6707,2.6426,2.6079,2.5879,2.6348,2.7853,2.8005,2.8867,3.0841,3.2787,3.4902,3.728,3.7422,3.7383,3.7305,3.7305,3.7305,3.7305,3.7383,3.7422,3.7422,3.75,3.7578,3.7676,3.7676,3.7676,3.7676,3.7578,3.75,3.7402,3.7324,3.7598,3.7667,3.3996,3.2961,3.3647,3.4166,3.4632,3.5498,3.9275,4.0879,4.1113,4.0762,4.0879,4.1172,4.1172,4.123,4.1289,4.1289,4.1836,4.2266,4.1601,4.166,4.1816,4.1387,4.1289,4.1425,4.1695,4.3136,4.428,4.4105,4.5124,4.6225,4.692,4.6751,4.6033,4.4323,4.4096,4.3511,4.1985,4.1753,4.1753,4.1753,4.1405,4.1133,4.1055,4.1133,4.1133,4.1055,4.1133,4.1405,4.1753,4.1753,4.1907,4.235,4.3431,4.483,4.6297,4.7537,4.9271,5.1247,5.0117,4.954,0.0,0.0,0.0,2.1951,0.0,0.0,0.0,2.167,2.1857,2.1416,2.1683,2.2295,2.329,2.3063,2.3093,2.4202,2.4008,2.4062,2.4957,2.6061,2.6589,2.6126,2.6069,2.6734,2.8429,2.8155,2.9054,3.1878,3.3977,3.5559,3.6591,3.666,3.666,3.666,3.666,3.666,3.666,3.6875,3.6875,3.666,3.709,3.7187,3.6992,3.7207,3.7305,3.7285,3.707,3.6992,3.6973,3.6758,3.6316,3.5563,3.285,3.286,3.4376,3.3714,3.4311,3.5826,3.9089,4.0351,4.0508,4.0273,4.0508,4.084,4.084,4.0996,4.1172,4.1172,4.1484,4.1699,4.1289,4.1328,4.1426,4.123,4.1172,4.1172,4.1172,4.2144,4.2977,4.2677,4.2819,4.3857,4.6559,4.6418,4.5535,4.4268,4.3283,4.2273,4.1327,4.1172,4.1172,4.1172,4.1172,4.1172,4.1172,4.1172,4.1172,4.1172,4.1172,4.1172,4.1172,4.1172,4.0976,4.0547,4.1334,4.2858,4.5214,4.5691,4.7579,5.082,4.9992,4.959,0.0,0.0,0.0,0.0,0.0,2.2365,0.0,0.0,0.0,2.0975,2.1029,0.0,0.0,0.0,0.0,0.0,0.0,0.0,0.0,2.503,0.0,2.5571,2.5842,2.6638,2.7988,2.778,2.8844,3.1945,3.37,3.4659,3.4659,3.5026,3.5307,3.5384,3.5695,3.5937,3.6016,3.6289,3.625,3.5898,3.6504,3.666,3.6445,3.6777,3.6973,3.7031,3.6699,3.6543,3.6523,3.5742,3.4834,3.366,3.2543,3.3391,3.5081,3.3975,3.4786,3.6845,3.8974,3.9824,3.9883,3.9785,4.0098,4.0547,4.0625,4.0898,4.1172,4.1172,4.1172,4.1172,4.1172,4.1172,4.1172,4.1172,4.1172,4.1172,4.1172,4.1113,4.1055,4.1055,4.0976,4.2015,4.5329,4.4921,4.4002,4.3649,4.2196,4.1172,4.1172,4.1172,4.1172,4.1172,4.1172,4.1172,4.1172,4.1172,4.1172,4.1172,4.1172,4.1172,4.1172,4.1094,4.0684,3.9922,3.9805,4.1249,4.421,4.4157,4.6277,5.0393,4.9841,4.9396,0.0,0.0,0.0,0.0,2.3781,0.0,0.0,0.0,2.2539,2.1695,0.0,0.0,0.0,0.0,0.0,0.0,0.0,0.0,2.1856,2.33,2.3985,2.297,2.3804,2.4788,2.5621,2.737,2.861,2.9074,2.9512,2.9833,2.9833,3.1523,3.2691,3.3038,3.4623,3.5644,3.6016,3.5703,3.5508,3.5469,3.5137,3.5176,3.5547,3.5586,3.582,3.6172,3.6113,3.6094,3.5957,3.4264,3.3614,3.3747,3.3482,3.2985,3.2709,3.4566,3.5632,3.6522,3.8588,3.9551,3.9824,3.9414,3.9844,4.0586,4.0976,4.1133,4.1172,4.1172,4.1172,4.1172,4.1172,4.1172,4.1172,4.1172,4.1172,4.1172,4.1172,4.0879,4.0586,4.0586,4.0293,4.0425,4.1634,4.1735,4.16,4.154,4.1327,4.1172,4.1172,4.1172,4.1172,4.1172,4.1172,4.1172,4.1172,4.1172,4.1172,4.1172,4.1172,4.1172,4.1172,4.0801,4.0371,3.9902,3.9492,4.0051,4.1693,4.3309,4.6277,5.0393,4.9841,4.8673,0.0,0.0,0.0,0.0,0.0,0.0,2.3166,0.0,2.2445,0.0,0.0,0.0,0.0,0.0,0.0,0.0,2.1323,0.0,0.0,0.0,2.3145,0.0,0.0,0.0,2.4396,2.6504,2.7774,2.7557,2.781,2.811,2.8327,2.9355,3.0131,3.0578,3.1414,3.2525,3.3741,3.3573,3.3965,3.498,3.4785,3.4805,3.498,3.498,3.5078,3.5207,3.4323,3.396,3.3824,3.221,3.0977,3.0343,3.2544,3.3393,3.3611,3.4734,3.6054,3.7362,3.8437,3.8965,3.918,3.9512,4.0019,4.0605,4.1035,4.1172,4.1172,4.1172,4.1172,4.1172,4.1172,4.1172,4.1172,4.1172,4.1172,4.1172,4.1172,4.1035,4.0898,4.0898,4.0762,4.0742,4.1113,4.0957,4.0879,4.1133,4.1172,4.1172,4.1172,4.1172,4.1172,4.1172,4.1172,4.1172,4.1172,4.1172,4.1172,4.1172,4.1172,4.1055,4.0801,4.0625,4.0195,3.9512,3.9297,3.9898,4.1326,4.2101,4.393,4.6752,4.763,4.7575,2.3836,0.0,0.0,0.0,0.0,0.0,0.0,0.0,0.0,0.0,0.0,0.0,0.0,0.0,0.0,2.1122,0.0,2.1002,0.0,0.0,0.0,0.0,0.0,0.0,0.0,2.4285,2.5265,2.5012,2.5344,2.5707,2.6008,2.6906,2.7572,2.7995,2.8758,2.98,3.1216,3.1216,3.1817,3.3096,3.2983,3.2983,3.3096,3.3142,3.3198,3.3217,3.2298,3.1823,3.1684,3.0178,2.8701,2.7795,3.0539,3.2367,3.3482,3.4901,3.6459,3.7969,3.8281,3.8555,3.8887,3.9785,4.0273,4.0605,4.1035,4.1172,4.1172,4.1172,4.1172,4.1172,4.1172,4.1172,4.1172,4.1172,4.1172,4.1172,4.1172,4.1074,4.0996,4.0996,4.0898,4.0859,4.0976,4.084,4.0801,4.1133,4.1172,4.1172,4.1172,4.1172,4.1172,4.1172,4.1172,4.1172,4.1172,4.1172,4.1172,4.1172,4.1055,4.0859,4.0527,4.0293,3.9863,3.9219,3.9199,3.9625,4.0586,4.1188,4.2159,4.3357,4.5186,4.5794,0.0,0.0,0.0,2.4983,0.0,0.0,0.0,0.0,2.3901,0.0,0.0,0.0,0.0,0.0,2.1507,2.1162,2.1109,0.0,0.0,0.0,0.0,0.0,0.0,0.0,0.0,2.0227,2.0402,0.0,2.0926,2.1326,2.1339,2.3464,2.4905,2.5368,2.7358,2.8627,2.9111,2.8977,2.891,2.8977,2.856,2.8577,2.8993,2.9275,2.9442,2.9611,3.012,3.0236,2.9884,2.8274,2.7578,2.7505,2.765,2.8788,3.096,3.5097,3.7156,3.793,3.7949,3.8496,3.9336,4.0215,4.0508,4.0605,4.1035,4.1172,4.1172,4.1172,4.1172,4.1172,4.1172,4.1172,4.1172,4.1172,4.1172,4.1172,4.1172,4.084,4.0547,4.0547,4.0215,4.0078,4.0469,4.0879,4.1152,4.1172,4.1172,4.1172,4.1172,4.1172,4.1172,4.1172,4.1172,4.1172,4.1172,4.1172,4.1172,4.1172,4.0781,4.0527,4.0527,3.9707,3.9238,3.9199,3.9199,3.9004,3.872,4.0894,4.1788,4.1397,4.3335,4.3196,2.5924,2.652,2.6814,2.5531,0.0,0.0,0.0,0.0,0.0,0.0,0.0,0.0,0.0,2.1748,2.1521,2.1162,2.1109,2.0935,0.0,0.0,0.0,0.0,0.0,0.0,0.0,0.0,0.0,0.0,2.0307,2.0615,2.0815,2.1746,2.2474,2.286,2.388,2.5048,2.6417,2.6568,2.7213,2.8411,2.8296,2.8296,2.8428,2.8658,2.8806,2.8855,2.8239,2.7925,2.7706,2.6213,2.5566,2.5712,2.6997,2.8629,3.0643,3.3673,3.5749,3.7168,3.7734,3.8496,3.9258,3.9551,4.0039,4.0547,4.0703,4.0937,4.1172,4.1172,4.1172,4.1172,4.1172,4.1172,4.1172,4.1172,4.1172,4.1172,4.1172,4.1055,4.0957,4.0957,4.084,4.0781,4.0918,4.1074,4.1172,4.1172,4.1172,4.1172,4.1172,4.1172,4.1172,4.1172,4.1172,4.1172,4.1172,4.1172,4.1172,4.1172,4.0762,4.0391,4.0117,3.9824,3.9512,3.9199,3.9199,3.9277,3.9453,3.9923,4.0198,4.0358,4.1,4.1307,2.6547,2.6814,2.7028,2.6066,2.5972,2.5852,2.489,0.0,2.4596,0.0,0.0,0.0,0.0,0.0,2.1603,2.1309,2.1176,2.0909,0.0,1.9826,0.0,0.0,0.0,0.0,0.0,0.0,0.0,1.9653,1.992,2.0201,0.0,2.0802,2.1096,2.139,2.1964,2.2844,2.402,2.4372,2.5181,2.6321,2.6378,2.6439,2.6454,2.6847,2.6924,2.6672,2.6195,2.5898,2.567,2.4888,2.4636,2.471,2.6005,2.8053,3.0555,3.2791,3.5032,3.7031,3.8027,3.873,3.9238,3.9394,3.9941,4.0527,4.0527,4.084,4.1152,4.0976,4.1055,4.1133,4.0976,4.1055,4.1172,4.1172,4.1172,4.1172,4.1172,4.1172,4.1172,4.1172,4.1172,4.1172,4.1172,4.1172,4.1172,4.1172,4.1172,4.1172,4.1172,4.1172,4.1172,4.1172,4.1172,4.1172,4.1172,4.1172,4.1172,4.1172,4.0762,4.041,4.0137,3.998,3.9824,3.9668,3.9668,3.9824,4.0117,3.9824,3.9746,3.9902,3.9902,4.0142]}]]